<?xml version="1.0" encoding="UTF-8" standalone="no" ?>
<gpx xmlns="http://www.topografix.com/GPX/1/1" xmlns:xsi="http://www.w3.org/2001/XMLSchema-instance" xsi:schemaLocation="http://www.topografix.com/GPX/1/1 http://www.topografix.com/GPX/1/1/gpx.xsd" version="1.1" creator="VisuGPX - https://www.visugpx.com">
  <metadata>
    <name>Etape 4/6</name>
    <desc><![CDATA[azertyuiop]]></desc>
  </metadata>
  <trk>
    <name><![CDATA[Etape 3]]></name>
    <trkseg>
      <trkpt lat="47.01111" lon="3.078">
        <ele>160.67749023438</ele>
        <time>2013-06-27T04:55:04Z</time>
      </trkpt>
      <trkpt lat="47.01113" lon="3.07809">
        <ele>170.29064941406</ele>
        <time>2013-06-27T05:09:34Z</time>
      </trkpt>
      <trkpt lat="47.01127" lon="3.07806">
        <ele>169.32946777344</ele>
        <time>2013-06-27T05:09:46Z</time>
      </trkpt>
      <trkpt lat="47.01154" lon="3.07786">
        <ele>168.84875488281</ele>
        <time>2013-06-27T05:10:00Z</time>
      </trkpt>
      <trkpt lat="47.01179" lon="3.07771">
        <ele>169.32946777344</ele>
        <time>2013-06-27T05:10:12Z</time>
      </trkpt>
      <trkpt lat="47.0119" lon="3.07781">
        <ele>167.88732910156</ele>
        <time>2013-06-27T05:10:27Z</time>
      </trkpt>
      <trkpt lat="47.01193" lon="3.07782">
        <ele>167.40673828125</ele>
        <time>2013-06-27T05:10:50Z</time>
      </trkpt>
      <trkpt lat="47.01196" lon="3.07789">
        <ele>168.36804199219</ele>
        <time>2013-06-27T05:11:15Z</time>
      </trkpt>
      <trkpt lat="47.01196" lon="3.07789">
        <ele>168.36804199219</ele>
        <time>2013-06-27T05:11:16Z</time>
      </trkpt>
      <trkpt lat="47.01205" lon="3.07825">
        <ele>169.32946777344</ele>
        <time>2013-06-27T05:11:28Z</time>
      </trkpt>
      <trkpt lat="47.01204" lon="3.0783">
        <ele>169.32946777344</ele>
        <time>2013-06-27T05:11:30Z</time>
      </trkpt>
      <trkpt lat="47.01232" lon="3.07858">
        <ele>171.25207519531</ele>
        <time>2013-06-27T05:11:46Z</time>
      </trkpt>
      <trkpt lat="47.0124" lon="3.07854">
        <ele>171.25207519531</ele>
        <time>2013-06-27T05:11:49Z</time>
      </trkpt>
      <trkpt lat="47.01231" lon="3.0784">
        <ele>170.29064941406</ele>
        <time>2013-06-27T05:11:55Z</time>
      </trkpt>
      <trkpt lat="47.01237" lon="3.07856">
        <ele>169.32946777344</ele>
        <time>2013-06-27T05:12:00Z</time>
      </trkpt>
      <trkpt lat="47.01241" lon="3.0783">
        <ele>168.36804199219</ele>
        <time>2013-06-27T05:12:06Z</time>
      </trkpt>
      <trkpt lat="47.01239" lon="3.07818">
        <ele>168.36804199219</ele>
        <time>2013-06-27T05:12:08Z</time>
      </trkpt>
      <trkpt lat="47.0124" lon="3.0773">
        <ele>168.36804199219</ele>
        <time>2013-06-27T05:12:21Z</time>
      </trkpt>
      <trkpt lat="47.01237" lon="3.0757">
        <ele>179.42321777344</ele>
        <time>2013-06-27T05:12:46Z</time>
      </trkpt>
      <trkpt lat="47.01237" lon="3.0743">
        <ele>180.865234375</ele>
        <time>2013-06-27T05:13:06Z</time>
      </trkpt>
      <trkpt lat="47.01235" lon="3.0721">
        <ele>186.15246582031</ele>
        <time>2013-06-27T05:13:35Z</time>
      </trkpt>
      <trkpt lat="47.01235" lon="3.07045">
        <ele>189.03637695312</ele>
        <time>2013-06-27T05:13:57Z</time>
      </trkpt>
      <trkpt lat="47.01266" lon="3.06919">
        <ele>175.57788085938</ele>
        <time>2013-06-27T05:14:12Z</time>
      </trkpt>
      <trkpt lat="47.01304" lon="3.06728">
        <ele>173.6552734375</ele>
        <time>2013-06-27T05:14:36Z</time>
      </trkpt>
      <trkpt lat="47.01309" lon="3.06705">
        <ele>174.13586425781</ele>
        <time>2013-06-27T05:14:39Z</time>
      </trkpt>
      <trkpt lat="47.01326" lon="3.06678">
        <ele>172.21325683594</ele>
        <time>2013-06-27T05:14:44Z</time>
      </trkpt>
      <trkpt lat="47.01334" lon="3.0667">
        <ele>172.21325683594</ele>
        <time>2013-06-27T05:14:46Z</time>
      </trkpt>
      <trkpt lat="47.01357" lon="3.06657">
        <ele>171.25207519531</ele>
        <time>2013-06-27T05:14:51Z</time>
      </trkpt>
      <trkpt lat="47.01454" lon="3.06603">
        <ele>175.09729003906</ele>
        <time>2013-06-27T05:15:15Z</time>
      </trkpt>
      <trkpt lat="47.01541" lon="3.06547">
        <ele>168.84875488281</ele>
        <time>2013-06-27T05:15:30Z</time>
      </trkpt>
      <trkpt lat="47.01561" lon="3.06519">
        <ele>168.84875488281</ele>
        <time>2013-06-27T05:15:34Z</time>
      </trkpt>
      <trkpt lat="47.01626" lon="3.06362">
        <ele>166.4453125</ele>
        <time>2013-06-27T05:15:55Z</time>
      </trkpt>
      <trkpt lat="47.01696" lon="3.06194">
        <ele>166.4453125</ele>
        <time>2013-06-27T05:16:19Z</time>
      </trkpt>
      <trkpt lat="47.0179" lon="3.0597">
        <ele>165.00341796875</ele>
        <time>2013-06-27T05:16:51Z</time>
      </trkpt>
      <trkpt lat="47.01885" lon="3.05743">
        <ele>165.96472167969</ele>
        <time>2013-06-27T05:17:24Z</time>
      </trkpt>
      <trkpt lat="47.01996" lon="3.05479">
        <ele>165.96472167969</ele>
        <time>2013-06-27T05:18:02Z</time>
      </trkpt>
      <trkpt lat="47.02086" lon="3.05262">
        <ele>165.96472167969</ele>
        <time>2013-06-27T05:18:34Z</time>
      </trkpt>
      <trkpt lat="47.02178" lon="3.05038">
        <ele>167.88732910156</ele>
        <time>2013-06-27T05:19:07Z</time>
      </trkpt>
      <trkpt lat="47.0229" lon="3.04773">
        <ele>166.4453125</ele>
        <time>2013-06-27T05:19:45Z</time>
      </trkpt>
      <trkpt lat="47.02381" lon="3.04552">
        <ele>165.48413085938</ele>
        <time>2013-06-27T05:20:16Z</time>
      </trkpt>
      <trkpt lat="47.02442" lon="3.04335">
        <ele>164.52270507812</ele>
        <time>2013-06-27T05:20:45Z</time>
      </trkpt>
      <trkpt lat="47.02458" lon="3.04128">
        <ele>165.48413085938</ele>
        <time>2013-06-27T05:21:10Z</time>
      </trkpt>
      <trkpt lat="47.02461" lon="3.03856">
        <ele>166.92602539062</ele>
        <time>2013-06-27T05:21:42Z</time>
      </trkpt>
      <trkpt lat="47.02462" lon="3.03592">
        <ele>171.73266601562</ele>
        <time>2013-06-27T05:22:14Z</time>
      </trkpt>
      <trkpt lat="47.02466" lon="3.03398">
        <ele>169.81005859375</ele>
        <time>2013-06-27T05:22:42Z</time>
      </trkpt>
      <trkpt lat="47.02468" lon="3.03325">
        <ele>176.05859375</ele>
        <time>2013-06-27T05:22:59Z</time>
      </trkpt>
      <trkpt lat="47.02469" lon="3.03325">
        <ele>175.57788085938</ele>
        <time>2013-06-27T05:23:15Z</time>
      </trkpt>
      <trkpt lat="47.02467" lon="3.03313">
        <ele>175.09729003906</ele>
        <time>2013-06-27T05:23:36Z</time>
      </trkpt>
      <trkpt lat="47.02463" lon="3.03251">
        <ele>174.61657714844</ele>
        <time>2013-06-27T05:23:47Z</time>
      </trkpt>
      <trkpt lat="47.02467" lon="3.0315">
        <ele>177.50061035156</ele>
        <time>2013-06-27T05:24:05Z</time>
      </trkpt>
      <trkpt lat="47.02496" lon="3.03137">
        <ele>179.90380859375</ele>
        <time>2013-06-27T05:24:14Z</time>
      </trkpt>
      <trkpt lat="47.02568" lon="3.03156">
        <ele>181.34582519531</ele>
        <time>2013-06-27T05:24:32Z</time>
      </trkpt>
      <trkpt lat="47.02662" lon="3.03182">
        <ele>178.94262695312</ele>
        <time>2013-06-27T05:24:49Z</time>
      </trkpt>
      <trkpt lat="47.02689" lon="3.03181">
        <ele>177.50061035156</ele>
        <time>2013-06-27T05:24:53Z</time>
      </trkpt>
      <trkpt lat="47.02724" lon="3.03158">
        <ele>176.53930664062</ele>
        <time>2013-06-27T05:24:58Z</time>
      </trkpt>
      <trkpt lat="47.02795" lon="3.03053">
        <ele>176.05859375</ele>
        <time>2013-06-27T05:25:12Z</time>
      </trkpt>
      <trkpt lat="47.02824" lon="3.03013">
        <ele>177.98120117188</ele>
        <time>2013-06-27T05:25:20Z</time>
      </trkpt>
      <trkpt lat="47.02841" lon="3.03005">
        <ele>178.4619140625</ele>
        <time>2013-06-27T05:25:24Z</time>
      </trkpt>
      <trkpt lat="47.03002" lon="3.02994">
        <ele>179.90380859375</ele>
        <time>2013-06-27T05:25:56Z</time>
      </trkpt>
      <trkpt lat="47.03173" lon="3.02983">
        <ele>178.4619140625</ele>
        <time>2013-06-27T05:26:27Z</time>
      </trkpt>
      <trkpt lat="47.03311" lon="3.02975">
        <ele>177.02001953125</ele>
        <time>2013-06-27T05:26:49Z</time>
      </trkpt>
      <trkpt lat="47.03436" lon="3.03003">
        <ele>178.94262695312</ele>
        <time>2013-06-27T05:27:12Z</time>
      </trkpt>
      <trkpt lat="47.03554" lon="3.03087">
        <ele>175.57788085938</ele>
        <time>2013-06-27T05:27:35Z</time>
      </trkpt>
      <trkpt lat="47.03617" lon="3.03138">
        <ele>175.09729003906</ele>
        <time>2013-06-27T05:27:47Z</time>
      </trkpt>
      <trkpt lat="47.03729" lon="3.03184">
        <ele>175.57788085938</ele>
        <time>2013-06-27T05:28:08Z</time>
      </trkpt>
      <trkpt lat="47.03859" lon="3.03194">
        <ele>175.09729003906</ele>
        <time>2013-06-27T05:28:29Z</time>
      </trkpt>
      <trkpt lat="47.03995" lon="3.03184">
        <ele>169.81005859375</ele>
        <time>2013-06-27T05:28:47Z</time>
      </trkpt>
      <trkpt lat="47.04111" lon="3.03135">
        <ele>168.84875488281</ele>
        <time>2013-06-27T05:29:03Z</time>
      </trkpt>
      <trkpt lat="47.04227" lon="3.03022">
        <ele>170.29064941406</ele>
        <time>2013-06-27T05:29:25Z</time>
      </trkpt>
      <trkpt lat="47.04357" lon="3.02941">
        <ele>170.29064941406</ele>
        <time>2013-06-27T05:29:48Z</time>
      </trkpt>
      <trkpt lat="47.04485" lon="3.02898">
        <ele>169.32946777344</ele>
        <time>2013-06-27T05:30:09Z</time>
      </trkpt>
      <trkpt lat="47.04599" lon="3.02861">
        <ele>171.73266601562</ele>
        <time>2013-06-27T05:30:31Z</time>
      </trkpt>
      <trkpt lat="47.04753" lon="3.02812">
        <ele>173.6552734375</ele>
        <time>2013-06-27T05:30:58Z</time>
      </trkpt>
      <trkpt lat="47.04875" lon="3.02764">
        <ele>176.05859375</ele>
        <time>2013-06-27T05:31:19Z</time>
      </trkpt>
      <trkpt lat="47.04999" lon="3.02675">
        <ele>175.57788085938</ele>
        <time>2013-06-27T05:31:42Z</time>
      </trkpt>
      <trkpt lat="47.0514" lon="3.02585">
        <ele>176.05859375</ele>
        <time>2013-06-27T05:32:07Z</time>
      </trkpt>
      <trkpt lat="47.05237" lon="3.0251">
        <ele>173.6552734375</ele>
        <time>2013-06-27T05:32:24Z</time>
      </trkpt>
      <trkpt lat="47.05296" lon="3.02395">
        <ele>171.73266601562</ele>
        <time>2013-06-27T05:32:39Z</time>
      </trkpt>
      <trkpt lat="47.05387" lon="3.02192">
        <ele>171.73266601562</ele>
        <time>2013-06-27T05:33:05Z</time>
      </trkpt>
      <trkpt lat="47.0547" lon="3.02121">
        <ele>170.77136230469</ele>
        <time>2013-06-27T05:33:20Z</time>
      </trkpt>
      <trkpt lat="47.05584" lon="3.02073">
        <ele>169.81005859375</ele>
        <time>2013-06-27T05:33:38Z</time>
      </trkpt>
      <trkpt lat="47.05655" lon="3.01992">
        <ele>171.25207519531</ele>
        <time>2013-06-27T05:33:52Z</time>
      </trkpt>
      <trkpt lat="47.05684" lon="3.02008">
        <ele>173.6552734375</ele>
        <time>2013-06-27T05:33:59Z</time>
      </trkpt>
      <trkpt lat="47.05685" lon="3.02015">
        <ele>173.6552734375</ele>
        <time>2013-06-27T05:34:00Z</time>
      </trkpt>
      <trkpt lat="47.05698" lon="3.02091">
        <ele>174.13586425781</ele>
        <time>2013-06-27T05:34:13Z</time>
      </trkpt>
      <trkpt lat="47.05721" lon="3.02191">
        <ele>169.81005859375</ele>
        <time>2013-06-27T05:34:24Z</time>
      </trkpt>
      <trkpt lat="47.05782" lon="3.02351">
        <ele>166.4453125</ele>
        <time>2013-06-27T05:34:41Z</time>
      </trkpt>
      <trkpt lat="47.05788" lon="3.0237">
        <ele>165.96472167969</ele>
        <time>2013-06-27T05:34:43Z</time>
      </trkpt>
      <trkpt lat="47.05815" lon="3.02389">
        <ele>164.52270507812</ele>
        <time>2013-06-27T05:34:48Z</time>
      </trkpt>
      <trkpt lat="47.05881" lon="3.02304">
        <ele>164.52270507812</ele>
        <time>2013-06-27T05:35:02Z</time>
      </trkpt>
      <trkpt lat="47.05995" lon="3.02161">
        <ele>165.96472167969</ele>
        <time>2013-06-27T05:35:27Z</time>
      </trkpt>
      <trkpt lat="47.06085" lon="3.02054">
        <ele>165.96472167969</ele>
        <time>2013-06-27T05:35:47Z</time>
      </trkpt>
      <trkpt lat="47.06134" lon="3.01998">
        <ele>167.40673828125</ele>
        <time>2013-06-27T05:35:58Z</time>
      </trkpt>
      <trkpt lat="47.06209" lon="3.01906">
        <ele>167.88732910156</ele>
        <time>2013-06-27T05:36:15Z</time>
      </trkpt>
      <trkpt lat="47.06224" lon="3.01891">
        <ele>167.88732910156</ele>
        <time>2013-06-27T05:36:21Z</time>
      </trkpt>
      <trkpt lat="47.06229" lon="3.01896">
        <ele>166.92602539062</ele>
        <time>2013-06-27T05:36:37Z</time>
      </trkpt>
      <trkpt lat="47.0623" lon="3.01891">
        <ele>166.4453125</ele>
        <time>2013-06-27T05:37:04Z</time>
      </trkpt>
      <trkpt lat="47.0623" lon="3.01889">
        <ele>165.96472167969</ele>
        <time>2013-06-27T05:37:16Z</time>
      </trkpt>
      <trkpt lat="47.06233" lon="3.01882">
        <ele>165.48413085938</ele>
        <time>2013-06-27T05:37:21Z</time>
      </trkpt>
      <trkpt lat="47.06269" lon="3.01848">
        <ele>165.00341796875</ele>
        <time>2013-06-27T05:37:34Z</time>
      </trkpt>
      <trkpt lat="47.06369" lon="3.01783">
        <ele>166.92602539062</ele>
        <time>2013-06-27T05:37:56Z</time>
      </trkpt>
      <trkpt lat="47.06462" lon="3.01719">
        <ele>168.84875488281</ele>
        <time>2013-06-27T05:38:16Z</time>
      </trkpt>
      <trkpt lat="47.06547" lon="3.01655">
        <ele>169.32946777344</ele>
        <time>2013-06-27T05:38:34Z</time>
      </trkpt>
      <trkpt lat="47.06638" lon="3.016">
        <ele>165.96472167969</ele>
        <time>2013-06-27T05:38:51Z</time>
      </trkpt>
      <trkpt lat="47.06788" lon="3.01493">
        <ele>167.40673828125</ele>
        <time>2013-06-27T05:39:21Z</time>
      </trkpt>
      <trkpt lat="47.06898" lon="3.01394">
        <ele>167.88732910156</ele>
        <time>2013-06-27T05:39:44Z</time>
      </trkpt>
      <trkpt lat="47.06992" lon="3.01336">
        <ele>167.40673828125</ele>
        <time>2013-06-27T05:40:02Z</time>
      </trkpt>
      <trkpt lat="47.07029" lon="3.01329">
        <ele>167.88732910156</ele>
        <time>2013-06-27T05:40:09Z</time>
      </trkpt>
      <trkpt lat="47.07131" lon="3.01269">
        <ele>168.36804199219</ele>
        <time>2013-06-27T05:40:27Z</time>
      </trkpt>
      <trkpt lat="47.07235" lon="3.01203">
        <ele>168.36804199219</ele>
        <time>2013-06-27T05:40:46Z</time>
      </trkpt>
      <trkpt lat="47.07349" lon="3.01161">
        <ele>165.00341796875</ele>
        <time>2013-06-27T05:41:04Z</time>
      </trkpt>
      <trkpt lat="47.07508" lon="3.01111">
        <ele>164.04211425781</ele>
        <time>2013-06-27T05:41:30Z</time>
      </trkpt>
      <trkpt lat="47.07641" lon="3.01013">
        <ele>165.48413085938</ele>
        <time>2013-06-27T05:41:53Z</time>
      </trkpt>
      <trkpt lat="47.0784" lon="3.00778">
        <ele>164.52270507812</ele>
        <time>2013-06-27T05:42:34Z</time>
      </trkpt>
      <trkpt lat="47.07956" lon="3.00646">
        <ele>164.52270507812</ele>
        <time>2013-06-27T05:42:58Z</time>
      </trkpt>
      <trkpt lat="47.08091" lon="3.00561">
        <ele>164.04211425781</ele>
        <time>2013-06-27T05:43:22Z</time>
      </trkpt>
      <trkpt lat="47.08264" lon="3.00513">
        <ele>164.04211425781</ele>
        <time>2013-06-27T05:43:50Z</time>
      </trkpt>
      <trkpt lat="47.08418" lon="3.0047">
        <ele>164.52270507812</ele>
        <time>2013-06-27T05:44:16Z</time>
      </trkpt>
      <trkpt lat="47.08544" lon="3.00439">
        <ele>163.5615234375</ele>
        <time>2013-06-27T05:44:37Z</time>
      </trkpt>
      <trkpt lat="47.0866" lon="3.00446">
        <ele>163.5615234375</ele>
        <time>2013-06-27T05:44:56Z</time>
      </trkpt>
      <trkpt lat="47.08797" lon="3.00486">
        <ele>165.00341796875</ele>
        <time>2013-06-27T05:45:19Z</time>
      </trkpt>
      <trkpt lat="47.08816" lon="3.00494">
        <ele>164.52270507812</ele>
        <time>2013-06-27T05:45:22Z</time>
      </trkpt>
      <trkpt lat="47.08877" lon="3.00567">
        <ele>163.08081054688</ele>
        <time>2013-06-27T05:45:35Z</time>
      </trkpt>
      <trkpt lat="47.08897" lon="3.00591">
        <ele>163.08081054688</ele>
        <time>2013-06-27T05:45:39Z</time>
      </trkpt>
      <trkpt lat="47.09013" lon="3.0065">
        <ele>163.08081054688</ele>
        <time>2013-06-27T05:45:59Z</time>
      </trkpt>
      <trkpt lat="47.091" lon="3.00692">
        <ele>163.5615234375</ele>
        <time>2013-06-27T05:46:14Z</time>
      </trkpt>
      <trkpt lat="47.09125" lon="3.00695">
        <ele>163.5615234375</ele>
        <time>2013-06-27T05:46:18Z</time>
      </trkpt>
      <trkpt lat="47.09266" lon="3.00673">
        <ele>164.04211425781</ele>
        <time>2013-06-27T05:46:41Z</time>
      </trkpt>
      <trkpt lat="47.09346" lon="3.00661">
        <ele>164.04211425781</ele>
        <time>2013-06-27T05:46:54Z</time>
      </trkpt>
      <trkpt lat="47.09374" lon="3.00627">
        <ele>165.48413085938</ele>
        <time>2013-06-27T05:47:01Z</time>
      </trkpt>
      <trkpt lat="47.09387" lon="3.00578">
        <ele>168.84875488281</ele>
        <time>2013-06-27T05:47:12Z</time>
      </trkpt>
      <trkpt lat="47.09385" lon="3.00576">
        <ele>167.88732910156</ele>
        <time>2013-06-27T05:47:30Z</time>
      </trkpt>
      <trkpt lat="47.09386" lon="3.00571">
        <ele>167.88732910156</ele>
        <time>2013-06-27T05:47:52Z</time>
      </trkpt>
      <trkpt lat="47.09393" lon="3.00562">
        <ele>167.88732910156</ele>
        <time>2013-06-27T05:47:57Z</time>
      </trkpt>
      <trkpt lat="47.09397" lon="3.00553">
        <ele>167.40673828125</ele>
        <time>2013-06-27T05:47:59Z</time>
      </trkpt>
      <trkpt lat="47.09432" lon="3.00541">
        <ele>165.96472167969</ele>
        <time>2013-06-27T05:48:07Z</time>
      </trkpt>
      <trkpt lat="47.09508" lon="3.00587">
        <ele>164.04211425781</ele>
        <time>2013-06-27T05:48:22Z</time>
      </trkpt>
      <trkpt lat="47.09625" lon="3.00614">
        <ele>164.04211425781</ele>
        <time>2013-06-27T05:48:43Z</time>
      </trkpt>
      <trkpt lat="47.09714" lon="3.00683">
        <ele>162.60009765625</ele>
        <time>2013-06-27T05:49:00Z</time>
      </trkpt>
      <trkpt lat="47.09792" lon="3.00783">
        <ele>162.60009765625</ele>
        <time>2013-06-27T05:49:17Z</time>
      </trkpt>
      <trkpt lat="47.09803" lon="3.00813">
        <ele>163.08081054688</ele>
        <time>2013-06-27T05:49:21Z</time>
      </trkpt>
      <trkpt lat="47.09816" lon="3.0083">
        <ele>163.5615234375</ele>
        <time>2013-06-27T05:49:24Z</time>
      </trkpt>
      <trkpt lat="47.09892" lon="3.00921">
        <ele>164.04211425781</ele>
        <time>2013-06-27T05:49:41Z</time>
      </trkpt>
      <trkpt lat="47.10017" lon="3.00982">
        <ele>163.08081054688</ele>
        <time>2013-06-27T05:50:04Z</time>
      </trkpt>
      <trkpt lat="47.10122" lon="3.00969">
        <ele>163.5615234375</ele>
        <time>2013-06-27T05:50:22Z</time>
      </trkpt>
      <trkpt lat="47.10246" lon="3.00922">
        <ele>162.11950683594</ele>
        <time>2013-06-27T05:50:43Z</time>
      </trkpt>
      <trkpt lat="47.10435" lon="3.00919">
        <ele>161.63891601562</ele>
        <time>2013-06-27T05:51:14Z</time>
      </trkpt>
      <trkpt lat="47.10649" lon="3.00917">
        <ele>160.67749023438</ele>
        <time>2013-06-27T05:51:49Z</time>
      </trkpt>
      <trkpt lat="47.10796" lon="3.00902">
        <ele>164.04211425781</ele>
        <time>2013-06-27T05:52:14Z</time>
      </trkpt>
      <trkpt lat="47.109" lon="3.00896">
        <ele>161.158203125</ele>
        <time>2013-06-27T05:52:29Z</time>
      </trkpt>
      <trkpt lat="47.11047" lon="3.00884">
        <ele>161.158203125</ele>
        <time>2013-06-27T05:52:53Z</time>
      </trkpt>
      <trkpt lat="47.11205" lon="3.00876">
        <ele>160.67749023438</ele>
        <time>2013-06-27T05:53:18Z</time>
      </trkpt>
      <trkpt lat="47.11391" lon="3.00869">
        <ele>160.67749023438</ele>
        <time>2013-06-27T05:53:48Z</time>
      </trkpt>
      <trkpt lat="47.11592" lon="3.00878">
        <ele>162.60009765625</ele>
        <time>2013-06-27T05:54:20Z</time>
      </trkpt>
      <trkpt lat="47.11804" lon="3.00867">
        <ele>162.60009765625</ele>
        <time>2013-06-27T05:54:54Z</time>
      </trkpt>
      <trkpt lat="47.11986" lon="3.00846">
        <ele>162.11950683594</ele>
        <time>2013-06-27T05:55:23Z</time>
      </trkpt>
      <trkpt lat="47.12116" lon="3.0081">
        <ele>165.96472167969</ele>
        <time>2013-06-27T05:55:44Z</time>
      </trkpt>
      <trkpt lat="47.12218" lon="3.00794">
        <ele>163.08081054688</ele>
        <time>2013-06-27T05:55:58Z</time>
      </trkpt>
      <trkpt lat="47.12401" lon="3.00754">
        <ele>164.04211425781</ele>
        <time>2013-06-27T05:56:26Z</time>
      </trkpt>
      <trkpt lat="47.12681" lon="3.0069">
        <ele>162.60009765625</ele>
        <time>2013-06-27T05:57:10Z</time>
      </trkpt>
      <trkpt lat="47.12894" lon="3.00634">
        <ele>162.60009765625</ele>
        <time>2013-06-27T05:57:43Z</time>
      </trkpt>
      <trkpt lat="47.13125" lon="3.00564">
        <ele>162.11950683594</ele>
        <time>2013-06-27T05:58:19Z</time>
      </trkpt>
      <trkpt lat="47.13321" lon="3.00508">
        <ele>160.67749023438</ele>
        <time>2013-06-27T05:58:49Z</time>
      </trkpt>
      <trkpt lat="47.13472" lon="3.00458">
        <ele>162.60009765625</ele>
        <time>2013-06-27T05:59:13Z</time>
      </trkpt>
      <trkpt lat="47.1364" lon="3.00412">
        <ele>161.158203125</ele>
        <time>2013-06-27T05:59:39Z</time>
      </trkpt>
      <trkpt lat="47.13822" lon="3.00393">
        <ele>160.67749023438</ele>
        <time>2013-06-27T06:00:07Z</time>
      </trkpt>
      <trkpt lat="47.13961" lon="3.00342">
        <ele>159.71618652344</ele>
        <time>2013-06-27T06:00:29Z</time>
      </trkpt>
      <trkpt lat="47.14089" lon="3.00283">
        <ele>162.60009765625</ele>
        <time>2013-06-27T06:00:51Z</time>
      </trkpt>
      <trkpt lat="47.142" lon="3.00304">
        <ele>164.04211425781</ele>
        <time>2013-06-27T06:01:10Z</time>
      </trkpt>
      <trkpt lat="47.1429" lon="3.0038">
        <ele>159.23547363281</ele>
        <time>2013-06-27T06:01:26Z</time>
      </trkpt>
      <trkpt lat="47.1438" lon="3.00535">
        <ele>154.90954589844</ele>
        <time>2013-06-27T06:01:44Z</time>
      </trkpt>
      <trkpt lat="47.14469" lon="3.00642">
        <ele>153.46765136719</ele>
        <time>2013-06-27T06:01:59Z</time>
      </trkpt>
      <trkpt lat="47.14578" lon="3.00687">
        <ele>153.94836425781</ele>
        <time>2013-06-27T06:02:15Z</time>
      </trkpt>
      <trkpt lat="47.14777" lon="3.00729">
        <ele>153.46765136719</ele>
        <time>2013-06-27T06:02:45Z</time>
      </trkpt>
      <trkpt lat="47.14966" lon="3.00769">
        <ele>153.46765136719</ele>
        <time>2013-06-27T06:03:13Z</time>
      </trkpt>
      <trkpt lat="47.15177" lon="3.00812">
        <ele>155.39025878906</ele>
        <time>2013-06-27T06:03:44Z</time>
      </trkpt>
      <trkpt lat="47.15314" lon="3.00812">
        <ele>154.90954589844</ele>
        <time>2013-06-27T06:04:04Z</time>
      </trkpt>
      <trkpt lat="47.15413" lon="3.00802">
        <ele>155.87097167969</ele>
        <time>2013-06-27T06:04:19Z</time>
      </trkpt>
      <trkpt lat="47.1552" lon="3.00793">
        <ele>155.39025878906</ele>
        <time>2013-06-27T06:04:36Z</time>
      </trkpt>
      <trkpt lat="47.157" lon="3.00774">
        <ele>155.39025878906</ele>
        <time>2013-06-27T06:05:03Z</time>
      </trkpt>
      <trkpt lat="47.15814" lon="3.00798">
        <ele>155.39025878906</ele>
        <time>2013-06-27T06:05:20Z</time>
      </trkpt>
      <trkpt lat="47.1595" lon="3.00852">
        <ele>156.3515625</ele>
        <time>2013-06-27T06:05:41Z</time>
      </trkpt>
      <trkpt lat="47.16105" lon="3.00878">
        <ele>156.3515625</ele>
        <time>2013-06-27T06:06:03Z</time>
      </trkpt>
      <trkpt lat="47.16314" lon="3.00888">
        <ele>157.31286621094</ele>
        <time>2013-06-27T06:06:31Z</time>
      </trkpt>
      <trkpt lat="47.16475" lon="3.0088">
        <ele>157.31286621094</ele>
        <time>2013-06-27T06:06:53Z</time>
      </trkpt>
      <trkpt lat="47.16635" lon="3.00865">
        <ele>157.31286621094</ele>
        <time>2013-06-27T06:07:15Z</time>
      </trkpt>
      <trkpt lat="47.16752" lon="3.00907">
        <ele>157.79357910156</ele>
        <time>2013-06-27T06:07:32Z</time>
      </trkpt>
      <trkpt lat="47.16855" lon="3.00917">
        <ele>157.79357910156</ele>
        <time>2013-06-27T06:07:47Z</time>
      </trkpt>
      <trkpt lat="47.16991" lon="3.00894">
        <ele>157.79357910156</ele>
        <time>2013-06-27T06:08:06Z</time>
      </trkpt>
      <trkpt lat="47.17188" lon="3.0086">
        <ele>157.79357910156</ele>
        <time>2013-06-27T06:08:34Z</time>
      </trkpt>
      <trkpt lat="47.17389" lon="3.00834">
        <ele>158.27416992188</ele>
        <time>2013-06-27T06:09:02Z</time>
      </trkpt>
      <trkpt lat="47.17454" lon="3.00831">
        <ele>161.63891601562</ele>
        <time>2013-06-27T06:09:15Z</time>
      </trkpt>
      <trkpt lat="47.17463" lon="3.00839">
        <ele>161.158203125</ele>
        <time>2013-06-27T06:09:23Z</time>
      </trkpt>
      <trkpt lat="47.17463" lon="3.00843">
        <ele>161.158203125</ele>
        <time>2013-06-27T06:09:39Z</time>
      </trkpt>
      <trkpt lat="47.17464" lon="3.00836">
        <ele>161.158203125</ele>
        <time>2013-06-27T06:12:01Z</time>
      </trkpt>
      <trkpt lat="47.17464" lon="3.00836">
        <ele>161.158203125</ele>
        <time>2013-06-27T06:12:02Z</time>
      </trkpt>
      <trkpt lat="47.1749" lon="3.00821">
        <ele>160.67749023438</ele>
        <time>2013-06-27T06:12:13Z</time>
      </trkpt>
      <trkpt lat="47.17573" lon="3.00767">
        <ele>158.27416992188</ele>
        <time>2013-06-27T06:12:32Z</time>
      </trkpt>
      <trkpt lat="47.17727" lon="3.0067">
        <ele>157.79357910156</ele>
        <time>2013-06-27T06:12:59Z</time>
      </trkpt>
      <trkpt lat="47.17917" lon="3.00546">
        <ele>157.31286621094</ele>
        <time>2013-06-27T06:13:31Z</time>
      </trkpt>
      <trkpt lat="47.18109" lon="3.00422">
        <ele>156.83215332031</ele>
        <time>2013-06-27T06:14:03Z</time>
      </trkpt>
      <trkpt lat="47.18292" lon="3.00304">
        <ele>156.3515625</ele>
        <time>2013-06-27T06:14:33Z</time>
      </trkpt>
      <trkpt lat="47.1846" lon="3.00196">
        <ele>156.83215332031</ele>
        <time>2013-06-27T06:15:00Z</time>
      </trkpt>
      <trkpt lat="47.18661" lon="3.00067">
        <ele>155.87097167969</ele>
        <time>2013-06-27T06:15:32Z</time>
      </trkpt>
      <trkpt lat="47.18859" lon="2.99935">
        <ele>156.3515625</ele>
        <time>2013-06-27T06:16:04Z</time>
      </trkpt>
      <trkpt lat="47.18906" lon="2.99842">
        <ele>154.42895507812</ele>
        <time>2013-06-27T06:16:15Z</time>
      </trkpt>
      <trkpt lat="47.18978" lon="2.99608">
        <ele>153.46765136719</ele>
        <time>2013-06-27T06:16:40Z</time>
      </trkpt>
      <trkpt lat="47.19067" lon="2.99361">
        <ele>154.42895507812</ele>
        <time>2013-06-27T06:17:08Z</time>
      </trkpt>
      <trkpt lat="47.19173" lon="2.99153">
        <ele>154.90954589844</ele>
        <time>2013-06-27T06:17:34Z</time>
      </trkpt>
      <trkpt lat="47.19298" lon="2.98908">
        <ele>153.46765136719</ele>
        <time>2013-06-27T06:18:04Z</time>
      </trkpt>
      <trkpt lat="47.19436" lon="2.98638">
        <ele>152.98693847656</ele>
        <time>2013-06-27T06:18:38Z</time>
      </trkpt>
      <trkpt lat="47.19582" lon="2.98352">
        <ele>153.94836425781</ele>
        <time>2013-06-27T06:19:14Z</time>
      </trkpt>
      <trkpt lat="47.19696" lon="2.98135">
        <ele>151.544921875</ele>
        <time>2013-06-27T06:19:41Z</time>
      </trkpt>
      <trkpt lat="47.19806" lon="2.9798">
        <ele>152.02575683594</ele>
        <time>2013-06-27T06:20:03Z</time>
      </trkpt>
      <trkpt lat="47.19949" lon="2.97822">
        <ele>152.02575683594</ele>
        <time>2013-06-27T06:20:29Z</time>
      </trkpt>
      <trkpt lat="47.20028" lon="2.97765">
        <ele>152.50634765625</ele>
        <time>2013-06-27T06:20:42Z</time>
      </trkpt>
      <trkpt lat="47.20039" lon="2.97706">
        <ele>154.42895507812</ele>
        <time>2013-06-27T06:20:49Z</time>
      </trkpt>
      <trkpt lat="47.20013" lon="2.9763">
        <ele>157.79357910156</ele>
        <time>2013-06-27T06:21:00Z</time>
      </trkpt>
      <trkpt lat="47.20022" lon="2.97608">
        <ele>156.83215332031</ele>
        <time>2013-06-27T06:21:04Z</time>
      </trkpt>
      <trkpt lat="47.20132" lon="2.97542">
        <ele>153.46765136719</ele>
        <time>2013-06-27T06:21:21Z</time>
      </trkpt>
      <trkpt lat="47.20319" lon="2.97407">
        <ele>154.90954589844</ele>
        <time>2013-06-27T06:21:52Z</time>
      </trkpt>
      <trkpt lat="47.20419" lon="2.97274">
        <ele>155.39025878906</ele>
        <time>2013-06-27T06:22:12Z</time>
      </trkpt>
      <trkpt lat="47.20515" lon="2.97129">
        <ele>154.90954589844</ele>
        <time>2013-06-27T06:22:32Z</time>
      </trkpt>
      <trkpt lat="47.20627" lon="2.96969">
        <ele>152.98693847656</ele>
        <time>2013-06-27T06:22:55Z</time>
      </trkpt>
      <trkpt lat="47.20692" lon="2.96833">
        <ele>151.544921875</ele>
        <time>2013-06-27T06:23:12Z</time>
      </trkpt>
      <trkpt lat="47.20763" lon="2.96716">
        <ele>152.98693847656</ele>
        <time>2013-06-27T06:23:28Z</time>
      </trkpt>
      <trkpt lat="47.20844" lon="2.96566">
        <ele>156.83215332031</ele>
        <time>2013-06-27T06:23:47Z</time>
      </trkpt>
      <trkpt lat="47.20949" lon="2.96361">
        <ele>156.83215332031</ele>
        <time>2013-06-27T06:24:13Z</time>
      </trkpt>
      <trkpt lat="47.21063" lon="2.96172">
        <ele>156.83215332031</ele>
        <time>2013-06-27T06:24:37Z</time>
      </trkpt>
      <trkpt lat="47.21188" lon="2.95974">
        <ele>158.75476074219</ele>
        <time>2013-06-27T06:25:04Z</time>
      </trkpt>
      <trkpt lat="47.21279" lon="2.95869">
        <ele>159.23547363281</ele>
        <time>2013-06-27T06:25:20Z</time>
      </trkpt>
      <trkpt lat="47.21408" lon="2.95727">
        <ele>155.39025878906</ele>
        <time>2013-06-27T06:25:41Z</time>
      </trkpt>
      <trkpt lat="47.21502" lon="2.95622">
        <ele>155.39025878906</ele>
        <time>2013-06-27T06:25:57Z</time>
      </trkpt>
      <trkpt lat="47.21567" lon="2.95579">
        <ele>155.87097167969</ele>
        <time>2013-06-27T06:26:10Z</time>
      </trkpt>
      <trkpt lat="47.2158" lon="2.95587">
        <ele>154.90954589844</ele>
        <time>2013-06-27T06:26:14Z</time>
      </trkpt>
      <trkpt lat="47.21586" lon="2.95602">
        <ele>154.90954589844</ele>
        <time>2013-06-27T06:26:16Z</time>
      </trkpt>
      <trkpt lat="47.2161" lon="2.9565">
        <ele>154.42895507812</ele>
        <time>2013-06-27T06:26:23Z</time>
      </trkpt>
      <trkpt lat="47.21619" lon="2.95671">
        <ele>154.90954589844</ele>
        <time>2013-06-27T06:26:26Z</time>
      </trkpt>
      <trkpt lat="47.21647" lon="2.95722">
        <ele>155.39025878906</ele>
        <time>2013-06-27T06:26:36Z</time>
      </trkpt>
      <trkpt lat="47.21668" lon="2.95745">
        <ele>152.98693847656</ele>
        <time>2013-06-27T06:26:40Z</time>
      </trkpt>
      <trkpt lat="47.21735" lon="2.95799">
        <ele>152.50634765625</ele>
        <time>2013-06-27T06:26:51Z</time>
      </trkpt>
      <trkpt lat="47.21794" lon="2.95926">
        <ele>152.98693847656</ele>
        <time>2013-06-27T06:27:07Z</time>
      </trkpt>
      <trkpt lat="47.21873" lon="2.96124">
        <ele>152.50634765625</ele>
        <time>2013-06-27T06:27:29Z</time>
      </trkpt>
      <trkpt lat="47.21889" lon="2.96255">
        <ele>151.06420898438</ele>
        <time>2013-06-27T06:27:41Z</time>
      </trkpt>
      <trkpt lat="47.21909" lon="2.96402">
        <ele>150.10302734375</ele>
        <time>2013-06-27T06:27:55Z</time>
      </trkpt>
      <trkpt lat="47.21972" lon="2.96584">
        <ele>151.544921875</ele>
        <time>2013-06-27T06:28:14Z</time>
      </trkpt>
      <trkpt lat="47.22044" lon="2.96684">
        <ele>150.58361816406</ele>
        <time>2013-06-27T06:28:28Z</time>
      </trkpt>
      <trkpt lat="47.22116" lon="2.96741">
        <ele>151.06420898438</ele>
        <time>2013-06-27T06:28:39Z</time>
      </trkpt>
      <trkpt lat="47.22153" lon="2.96755">
        <ele>151.544921875</ele>
        <time>2013-06-27T06:28:44Z</time>
      </trkpt>
      <trkpt lat="47.22296" lon="2.96744">
        <ele>150.58361816406</ele>
        <time>2013-06-27T06:29:03Z</time>
      </trkpt>
      <trkpt lat="47.22507" lon="2.96733">
        <ele>149.62231445312</ele>
        <time>2013-06-27T06:29:31Z</time>
      </trkpt>
      <trkpt lat="47.22639" lon="2.96725">
        <ele>150.58361816406</ele>
        <time>2013-06-27T06:29:48Z</time>
      </trkpt>
      <trkpt lat="47.22757" lon="2.96694">
        <ele>151.544921875</ele>
        <time>2013-06-27T06:30:04Z</time>
      </trkpt>
      <trkpt lat="47.22974" lon="2.96593">
        <ele>152.02575683594</ele>
        <time>2013-06-27T06:30:33Z</time>
      </trkpt>
      <trkpt lat="47.23055" lon="2.96518">
        <ele>152.02575683594</ele>
        <time>2013-06-27T06:30:45Z</time>
      </trkpt>
      <trkpt lat="47.23133" lon="2.96436">
        <ele>151.544921875</ele>
        <time>2013-06-27T06:30:57Z</time>
      </trkpt>
      <trkpt lat="47.23219" lon="2.9642">
        <ele>151.06420898438</ele>
        <time>2013-06-27T06:31:08Z</time>
      </trkpt>
      <trkpt lat="47.23299" lon="2.96419">
        <ele>151.06420898438</ele>
        <time>2013-06-27T06:31:18Z</time>
      </trkpt>
      <trkpt lat="47.23338" lon="2.96403">
        <ele>150.10302734375</ele>
        <time>2013-06-27T06:31:23Z</time>
      </trkpt>
      <trkpt lat="47.23458" lon="2.9629">
        <ele>152.02575683594</ele>
        <time>2013-06-27T06:31:41Z</time>
      </trkpt>
      <trkpt lat="47.23604" lon="2.96203">
        <ele>152.98693847656</ele>
        <time>2013-06-27T06:32:01Z</time>
      </trkpt>
      <trkpt lat="47.23749" lon="2.9617">
        <ele>152.50634765625</ele>
        <time>2013-06-27T06:32:19Z</time>
      </trkpt>
      <trkpt lat="47.23812" lon="2.96166">
        <ele>150.10302734375</ele>
        <time>2013-06-27T06:32:27Z</time>
      </trkpt>
      <trkpt lat="47.23891" lon="2.96193">
        <ele>149.1416015625</ele>
        <time>2013-06-27T06:32:37Z</time>
      </trkpt>
      <trkpt lat="47.23944" lon="2.96213">
        <ele>148.66101074219</ele>
        <time>2013-06-27T06:32:44Z</time>
      </trkpt>
      <trkpt lat="47.23974" lon="2.96252">
        <ele>148.66101074219</ele>
        <time>2013-06-27T06:32:49Z</time>
      </trkpt>
      <trkpt lat="47.23992" lon="2.96288">
        <ele>150.10302734375</ele>
        <time>2013-06-27T06:32:53Z</time>
      </trkpt>
      <trkpt lat="47.24019" lon="2.96311">
        <ele>149.62231445312</ele>
        <time>2013-06-27T06:32:58Z</time>
      </trkpt>
      <trkpt lat="47.24083" lon="2.96317">
        <ele>150.58361816406</ele>
        <time>2013-06-27T06:33:10Z</time>
      </trkpt>
      <trkpt lat="47.24102" lon="2.9632">
        <ele>151.06420898438</ele>
        <time>2013-06-27T06:33:13Z</time>
      </trkpt>
      <trkpt lat="47.24234" lon="2.96342">
        <ele>152.98693847656</ele>
        <time>2013-06-27T06:33:34Z</time>
      </trkpt>
      <trkpt lat="47.24369" lon="2.96367">
        <ele>150.58361816406</ele>
        <time>2013-06-27T06:33:53Z</time>
      </trkpt>
      <trkpt lat="47.2453" lon="2.96397">
        <ele>151.06420898438</ele>
        <time>2013-06-27T06:34:16Z</time>
      </trkpt>
      <trkpt lat="47.24686" lon="2.96424">
        <ele>151.06420898438</ele>
        <time>2013-06-27T06:34:37Z</time>
      </trkpt>
      <trkpt lat="47.24876" lon="2.96458">
        <ele>150.58361816406</ele>
        <time>2013-06-27T06:35:03Z</time>
      </trkpt>
      <trkpt lat="47.25035" lon="2.96486">
        <ele>150.10302734375</ele>
        <time>2013-06-27T06:35:25Z</time>
      </trkpt>
      <trkpt lat="47.25215" lon="2.96517">
        <ele>150.10302734375</ele>
        <time>2013-06-27T06:35:51Z</time>
      </trkpt>
      <trkpt lat="47.25322" lon="2.96538">
        <ele>150.10302734375</ele>
        <time>2013-06-27T06:36:09Z</time>
      </trkpt>
      <trkpt lat="47.25328" lon="2.96541">
        <ele>149.1416015625</ele>
        <time>2013-06-27T06:36:18Z</time>
      </trkpt>
      <trkpt lat="47.25328" lon="2.9654">
        <ele>148.18041992188</ele>
        <time>2013-06-27T06:38:22Z</time>
      </trkpt>
      <trkpt lat="47.25329" lon="2.9654">
        <ele>148.18041992188</ele>
        <time>2013-06-27T06:38:56Z</time>
      </trkpt>
      <trkpt lat="47.25333" lon="2.9654">
        <ele>148.18041992188</ele>
        <time>2013-06-27T06:39:15Z</time>
      </trkpt>
      <trkpt lat="47.25333" lon="2.96541">
        <ele>148.18041992188</ele>
        <time>2013-06-27T06:39:18Z</time>
      </trkpt>
      <trkpt lat="47.25364" lon="2.96544">
        <ele>151.06420898438</ele>
        <time>2013-06-27T06:39:32Z</time>
      </trkpt>
      <trkpt lat="47.25426" lon="2.96557">
        <ele>150.10302734375</ele>
        <time>2013-06-27T06:39:48Z</time>
      </trkpt>
      <trkpt lat="47.25541" lon="2.96576">
        <ele>152.02575683594</ele>
        <time>2013-06-27T06:40:08Z</time>
      </trkpt>
      <trkpt lat="47.25677" lon="2.96602">
        <ele>152.02575683594</ele>
        <time>2013-06-27T06:40:31Z</time>
      </trkpt>
      <trkpt lat="47.25754" lon="2.96573">
        <ele>151.544921875</ele>
        <time>2013-06-27T06:40:44Z</time>
      </trkpt>
      <trkpt lat="47.25859" lon="2.96509">
        <ele>151.06420898438</ele>
        <time>2013-06-27T06:41:04Z</time>
      </trkpt>
      <trkpt lat="47.26029" lon="2.96406">
        <ele>152.50634765625</ele>
        <time>2013-06-27T06:41:34Z</time>
      </trkpt>
      <trkpt lat="47.26221" lon="2.96273">
        <ele>152.02575683594</ele>
        <time>2013-06-27T06:42:07Z</time>
      </trkpt>
      <trkpt lat="47.26293" lon="2.96138">
        <ele>150.58361816406</ele>
        <time>2013-06-27T06:42:24Z</time>
      </trkpt>
      <trkpt lat="47.26396" lon="2.95935">
        <ele>150.10302734375</ele>
        <time>2013-06-27T06:42:50Z</time>
      </trkpt>
      <trkpt lat="47.26505" lon="2.95756">
        <ele>150.10302734375</ele>
        <time>2013-06-27T06:43:15Z</time>
      </trkpt>
      <trkpt lat="47.2666" lon="2.95599">
        <ele>150.58361816406</ele>
        <time>2013-06-27T06:43:44Z</time>
      </trkpt>
      <trkpt lat="47.26782" lon="2.95389">
        <ele>150.58361816406</ele>
        <time>2013-06-27T06:44:12Z</time>
      </trkpt>
      <trkpt lat="47.26885" lon="2.95227">
        <ele>151.06420898438</ele>
        <time>2013-06-27T06:44:34Z</time>
      </trkpt>
      <trkpt lat="47.26934" lon="2.95199">
        <ele>151.06420898438</ele>
        <time>2013-06-27T06:44:42Z</time>
      </trkpt>
      <trkpt lat="47.26995" lon="2.95192">
        <ele>151.544921875</ele>
        <time>2013-06-27T06:44:51Z</time>
      </trkpt>
      <trkpt lat="47.27094" lon="2.95122">
        <ele>152.50634765625</ele>
        <time>2013-06-27T06:45:07Z</time>
      </trkpt>
      <trkpt lat="47.27215" lon="2.95022">
        <ele>152.50634765625</ele>
        <time>2013-06-27T06:45:27Z</time>
      </trkpt>
      <trkpt lat="47.2724" lon="2.95004">
        <ele>152.50634765625</ele>
        <time>2013-06-27T06:45:31Z</time>
      </trkpt>
      <trkpt lat="47.27263" lon="2.94968">
        <ele>152.98693847656</ele>
        <time>2013-06-27T06:45:36Z</time>
      </trkpt>
      <trkpt lat="47.27284" lon="2.94906">
        <ele>152.98693847656</ele>
        <time>2013-06-27T06:45:43Z</time>
      </trkpt>
      <trkpt lat="47.27291" lon="2.9487">
        <ele>152.50634765625</ele>
        <time>2013-06-27T06:45:47Z</time>
      </trkpt>
      <trkpt lat="47.27293" lon="2.94811">
        <ele>152.02575683594</ele>
        <time>2013-06-27T06:45:56Z</time>
      </trkpt>
      <trkpt lat="47.27293" lon="2.94789">
        <ele>152.50634765625</ele>
        <time>2013-06-27T06:45:59Z</time>
      </trkpt>
      <trkpt lat="47.27317" lon="2.94719">
        <ele>152.98693847656</ele>
        <time>2013-06-27T06:46:08Z</time>
      </trkpt>
      <trkpt lat="47.27328" lon="2.94655">
        <ele>152.02575683594</ele>
        <time>2013-06-27T06:46:15Z</time>
      </trkpt>
      <trkpt lat="47.27379" lon="2.94525">
        <ele>150.58361816406</ele>
        <time>2013-06-27T06:46:30Z</time>
      </trkpt>
      <trkpt lat="47.27382" lon="2.94458">
        <ele>151.06420898438</ele>
        <time>2013-06-27T06:46:37Z</time>
      </trkpt>
      <trkpt lat="47.27339" lon="2.94316">
        <ele>150.10302734375</ele>
        <time>2013-06-27T06:46:52Z</time>
      </trkpt>
      <trkpt lat="47.27354" lon="2.94239">
        <ele>150.10302734375</ele>
        <time>2013-06-27T06:47:00Z</time>
      </trkpt>
      <trkpt lat="47.2743" lon="2.94105">
        <ele>150.58361816406</ele>
        <time>2013-06-27T06:47:17Z</time>
      </trkpt>
      <trkpt lat="47.27518" lon="2.93959">
        <ele>150.58361816406</ele>
        <time>2013-06-27T06:47:35Z</time>
      </trkpt>
      <trkpt lat="47.27622" lon="2.93743">
        <ele>151.06420898438</ele>
        <time>2013-06-27T06:48:00Z</time>
      </trkpt>
      <trkpt lat="47.27659" lon="2.93664">
        <ele>151.06420898438</ele>
        <time>2013-06-27T06:48:09Z</time>
      </trkpt>
      <trkpt lat="47.2768" lon="2.93512">
        <ele>150.10302734375</ele>
        <time>2013-06-27T06:48:24Z</time>
      </trkpt>
      <trkpt lat="47.27665" lon="2.93435">
        <ele>149.62231445312</ele>
        <time>2013-06-27T06:48:32Z</time>
      </trkpt>
      <trkpt lat="47.27629" lon="2.93365">
        <ele>150.10302734375</ele>
        <time>2013-06-27T06:48:41Z</time>
      </trkpt>
      <trkpt lat="47.27616" lon="2.93332">
        <ele>150.58361816406</ele>
        <time>2013-06-27T06:48:45Z</time>
      </trkpt>
      <trkpt lat="47.27611" lon="2.93284">
        <ele>150.10302734375</ele>
        <time>2013-06-27T06:48:50Z</time>
      </trkpt>
      <trkpt lat="47.27635" lon="2.93153">
        <ele>150.10302734375</ele>
        <time>2013-06-27T06:49:04Z</time>
      </trkpt>
      <trkpt lat="47.27696" lon="2.92976">
        <ele>150.10302734375</ele>
        <time>2013-06-27T06:49:24Z</time>
      </trkpt>
      <trkpt lat="47.27711" lon="2.92927">
        <ele>150.10302734375</ele>
        <time>2013-06-27T06:49:30Z</time>
      </trkpt>
      <trkpt lat="47.27735" lon="2.92917">
        <ele>150.10302734375</ele>
        <time>2013-06-27T06:49:35Z</time>
      </trkpt>
      <trkpt lat="47.27837" lon="2.92986">
        <ele>150.10302734375</ele>
        <time>2013-06-27T06:49:53Z</time>
      </trkpt>
      <trkpt lat="47.27864" lon="2.92981">
        <ele>150.58361816406</ele>
        <time>2013-06-27T06:49:58Z</time>
      </trkpt>
      <trkpt lat="47.27939" lon="2.9283">
        <ele>149.62231445312</ele>
        <time>2013-06-27T06:50:18Z</time>
      </trkpt>
      <trkpt lat="47.28011" lon="2.92753">
        <ele>150.58361816406</ele>
        <time>2013-06-27T06:50:32Z</time>
      </trkpt>
      <trkpt lat="47.28122" lon="2.92605">
        <ele>149.62231445312</ele>
        <time>2013-06-27T06:50:56Z</time>
      </trkpt>
      <trkpt lat="47.28194" lon="2.92503">
        <ele>149.1416015625</ele>
        <time>2013-06-27T06:51:12Z</time>
      </trkpt>
      <trkpt lat="47.28238" lon="2.92495">
        <ele>150.10302734375</ele>
        <time>2013-06-27T06:51:19Z</time>
      </trkpt>
      <trkpt lat="47.28284" lon="2.92501">
        <ele>149.62231445312</ele>
        <time>2013-06-27T06:51:26Z</time>
      </trkpt>
      <trkpt lat="47.28374" lon="2.92461">
        <ele>149.62231445312</ele>
        <time>2013-06-27T06:51:40Z</time>
      </trkpt>
      <trkpt lat="47.28459" lon="2.92365">
        <ele>149.62231445312</ele>
        <time>2013-06-27T06:51:56Z</time>
      </trkpt>
      <trkpt lat="47.28577" lon="2.92197">
        <ele>149.1416015625</ele>
        <time>2013-06-27T06:52:20Z</time>
      </trkpt>
      <trkpt lat="47.28641" lon="2.92108">
        <ele>148.66101074219</ele>
        <time>2013-06-27T06:52:33Z</time>
      </trkpt>
      <trkpt lat="47.28711" lon="2.92009">
        <ele>148.66101074219</ele>
        <time>2013-06-27T06:52:47Z</time>
      </trkpt>
      <trkpt lat="47.28805" lon="2.91899">
        <ele>150.10302734375</ele>
        <time>2013-06-27T06:53:05Z</time>
      </trkpt>
      <trkpt lat="47.28927" lon="2.91768">
        <ele>149.62231445312</ele>
        <time>2013-06-27T06:53:27Z</time>
      </trkpt>
      <trkpt lat="47.29012" lon="2.91726">
        <ele>149.62231445312</ele>
        <time>2013-06-27T06:53:40Z</time>
      </trkpt>
      <trkpt lat="47.29111" lon="2.91687">
        <ele>149.1416015625</ele>
        <time>2013-06-27T06:53:55Z</time>
      </trkpt>
      <trkpt lat="47.29173" lon="2.91667">
        <ele>148.66101074219</ele>
        <time>2013-06-27T06:54:04Z</time>
      </trkpt>
      <trkpt lat="47.29218" lon="2.91608">
        <ele>149.1416015625</ele>
        <time>2013-06-27T06:54:13Z</time>
      </trkpt>
      <trkpt lat="47.29224" lon="2.91537">
        <ele>149.62231445312</ele>
        <time>2013-06-27T06:54:21Z</time>
      </trkpt>
      <trkpt lat="47.29155" lon="2.9137">
        <ele>150.10302734375</ele>
        <time>2013-06-27T06:54:40Z</time>
      </trkpt>
      <trkpt lat="47.29146" lon="2.91344">
        <ele>150.10302734375</ele>
        <time>2013-06-27T06:54:43Z</time>
      </trkpt>
      <trkpt lat="47.29153" lon="2.91264">
        <ele>150.58361816406</ele>
        <time>2013-06-27T06:54:51Z</time>
      </trkpt>
      <trkpt lat="47.29231" lon="2.91183">
        <ele>150.10302734375</ele>
        <time>2013-06-27T06:55:05Z</time>
      </trkpt>
      <trkpt lat="47.29374" lon="2.91054">
        <ele>151.544921875</ele>
        <time>2013-06-27T06:55:29Z</time>
      </trkpt>
      <trkpt lat="47.29482" lon="2.90937">
        <ele>152.98693847656</ele>
        <time>2013-06-27T06:55:49Z</time>
      </trkpt>
      <trkpt lat="47.29573" lon="2.90859">
        <ele>151.544921875</ele>
        <time>2013-06-27T06:56:03Z</time>
      </trkpt>
      <trkpt lat="47.2961" lon="2.90832">
        <ele>151.544921875</ele>
        <time>2013-06-27T06:56:09Z</time>
      </trkpt>
      <trkpt lat="47.29683" lon="2.90707">
        <ele>152.02575683594</ele>
        <time>2013-06-27T06:56:25Z</time>
      </trkpt>
      <trkpt lat="47.29771" lon="2.90541">
        <ele>151.544921875</ele>
        <time>2013-06-27T06:56:45Z</time>
      </trkpt>
      <trkpt lat="47.2988" lon="2.90361">
        <ele>150.58361816406</ele>
        <time>2013-06-27T06:57:08Z</time>
      </trkpt>
      <trkpt lat="47.2996" lon="2.90213">
        <ele>151.06420898438</ele>
        <time>2013-06-27T06:57:26Z</time>
      </trkpt>
      <trkpt lat="47.30033" lon="2.9004">
        <ele>151.06420898438</ele>
        <time>2013-06-27T06:57:45Z</time>
      </trkpt>
      <trkpt lat="47.30077" lon="2.89865">
        <ele>152.50634765625</ele>
        <time>2013-06-27T06:58:03Z</time>
      </trkpt>
      <trkpt lat="47.30152" lon="2.89695">
        <ele>152.02575683594</ele>
        <time>2013-06-27T06:58:22Z</time>
      </trkpt>
      <trkpt lat="47.30237" lon="2.89472">
        <ele>152.02575683594</ele>
        <time>2013-06-27T06:58:46Z</time>
      </trkpt>
      <trkpt lat="47.30325" lon="2.89285">
        <ele>151.06420898438</ele>
        <time>2013-06-27T06:59:07Z</time>
      </trkpt>
      <trkpt lat="47.30375" lon="2.89168">
        <ele>150.58361816406</ele>
        <time>2013-06-27T06:59:21Z</time>
      </trkpt>
      <trkpt lat="47.3039" lon="2.89143">
        <ele>150.58361816406</ele>
        <time>2013-06-27T06:59:25Z</time>
      </trkpt>
      <trkpt lat="47.30405" lon="2.89126">
        <ele>151.06420898438</ele>
        <time>2013-06-27T06:59:28Z</time>
      </trkpt>
      <trkpt lat="47.30433" lon="2.89106">
        <ele>150.58361816406</ele>
        <time>2013-06-27T06:59:33Z</time>
      </trkpt>
      <trkpt lat="47.30463" lon="2.89096">
        <ele>150.58361816406</ele>
        <time>2013-06-27T06:59:38Z</time>
      </trkpt>
      <trkpt lat="47.30529" lon="2.89028">
        <ele>150.10302734375</ele>
        <time>2013-06-27T06:59:51Z</time>
      </trkpt>
      <trkpt lat="47.3065" lon="2.88976">
        <ele>150.10302734375</ele>
        <time>2013-06-27T07:00:10Z</time>
      </trkpt>
      <trkpt lat="47.30797" lon="2.88917">
        <ele>149.1416015625</ele>
        <time>2013-06-27T07:00:32Z</time>
      </trkpt>
      <trkpt lat="47.30817" lon="2.88908">
        <ele>148.66101074219</ele>
        <time>2013-06-27T07:00:35Z</time>
      </trkpt>
      <trkpt lat="47.30919" lon="2.88899">
        <ele>149.1416015625</ele>
        <time>2013-06-27T07:00:50Z</time>
      </trkpt>
      <trkpt lat="47.30952" lon="2.88909">
        <ele>148.66101074219</ele>
        <time>2013-06-27T07:00:55Z</time>
      </trkpt>
      <trkpt lat="47.31057" lon="2.88991">
        <ele>148.66101074219</ele>
        <time>2013-06-27T07:01:14Z</time>
      </trkpt>
      <trkpt lat="47.31071" lon="2.88994">
        <ele>148.18041992188</ele>
        <time>2013-06-27T07:01:19Z</time>
      </trkpt>
      <trkpt lat="47.31076" lon="2.88981">
        <ele>147.69970703125</ele>
        <time>2013-06-27T07:01:22Z</time>
      </trkpt>
      <trkpt lat="47.31097" lon="2.88865">
        <ele>149.62231445312</ele>
        <time>2013-06-27T07:01:38Z</time>
      </trkpt>
      <trkpt lat="47.31098" lon="2.88857">
        <ele>150.10302734375</ele>
        <time>2013-06-27T07:01:39Z</time>
      </trkpt>
      <trkpt lat="47.31114" lon="2.88731">
        <ele>152.02575683594</ele>
        <time>2013-06-27T07:01:54Z</time>
      </trkpt>
      <trkpt lat="47.31132" lon="2.88486">
        <ele>151.544921875</ele>
        <time>2013-06-27T07:02:20Z</time>
      </trkpt>
      <trkpt lat="47.31141" lon="2.88363">
        <ele>151.544921875</ele>
        <time>2013-06-27T07:02:36Z</time>
      </trkpt>
      <trkpt lat="47.3115" lon="2.88266">
        <ele>151.06420898438</ele>
        <time>2013-06-27T07:02:52Z</time>
      </trkpt>
      <trkpt lat="47.31159" lon="2.88154">
        <ele>151.06420898438</ele>
        <time>2013-06-27T07:03:07Z</time>
      </trkpt>
      <trkpt lat="47.31173" lon="2.8798">
        <ele>151.544921875</ele>
        <time>2013-06-27T07:03:28Z</time>
      </trkpt>
      <trkpt lat="47.31178" lon="2.87925">
        <ele>151.544921875</ele>
        <time>2013-06-27T07:03:35Z</time>
      </trkpt>
      <trkpt lat="47.3118" lon="2.87901">
        <ele>151.544921875</ele>
        <time>2013-06-27T07:03:38Z</time>
      </trkpt>
      <trkpt lat="47.3122" lon="2.87685">
        <ele>152.02575683594</ele>
        <time>2013-06-27T07:04:04Z</time>
      </trkpt>
      <trkpt lat="47.31265" lon="2.87487">
        <ele>150.58361816406</ele>
        <time>2013-06-27T07:04:27Z</time>
      </trkpt>
      <trkpt lat="47.31305" lon="2.87282">
        <ele>149.62231445312</ele>
        <time>2013-06-27T07:04:51Z</time>
      </trkpt>
      <trkpt lat="47.31338" lon="2.87113">
        <ele>149.1416015625</ele>
        <time>2013-06-27T07:05:10Z</time>
      </trkpt>
      <trkpt lat="47.31362" lon="2.87036">
        <ele>149.1416015625</ele>
        <time>2013-06-27T07:05:19Z</time>
      </trkpt>
      <trkpt lat="47.31379" lon="2.86888">
        <ele>149.62231445312</ele>
        <time>2013-06-27T07:05:35Z</time>
      </trkpt>
      <trkpt lat="47.31393" lon="2.86692">
        <ele>149.62231445312</ele>
        <time>2013-06-27T07:05:56Z</time>
      </trkpt>
      <trkpt lat="47.31418" lon="2.86585">
        <ele>149.62231445312</ele>
        <time>2013-06-27T07:06:08Z</time>
      </trkpt>
      <trkpt lat="47.3149" lon="2.86446">
        <ele>149.1416015625</ele>
        <time>2013-06-27T07:06:26Z</time>
      </trkpt>
      <trkpt lat="47.3159" lon="2.86302">
        <ele>148.66101074219</ele>
        <time>2013-06-27T07:06:47Z</time>
      </trkpt>
      <trkpt lat="47.31691" lon="2.86182">
        <ele>147.69970703125</ele>
        <time>2013-06-27T07:07:06Z</time>
      </trkpt>
      <trkpt lat="47.31789" lon="2.86124">
        <ele>146.73840332031</ele>
        <time>2013-06-27T07:07:22Z</time>
      </trkpt>
      <trkpt lat="47.31805" lon="2.86082">
        <ele>146.2578125</ele>
        <time>2013-06-27T07:07:28Z</time>
      </trkpt>
      <trkpt lat="47.31796" lon="2.85998">
        <ele>147.69970703125</ele>
        <time>2013-06-27T07:07:38Z</time>
      </trkpt>
      <trkpt lat="47.31793" lon="2.85965">
        <ele>149.1416015625</ele>
        <time>2013-06-27T07:07:42Z</time>
      </trkpt>
      <trkpt lat="47.31778" lon="2.85849">
        <ele>154.90954589844</ele>
        <time>2013-06-27T07:07:55Z</time>
      </trkpt>
      <trkpt lat="47.31769" lon="2.85762">
        <ele>156.3515625</ele>
        <time>2013-06-27T07:08:07Z</time>
      </trkpt>
      <trkpt lat="47.31769" lon="2.85758">
        <ele>157.31286621094</ele>
        <time>2013-06-27T07:08:19Z</time>
      </trkpt>
      <trkpt lat="47.3177" lon="2.85758">
        <ele>157.31286621094</ele>
        <time>2013-06-27T07:08:44Z</time>
      </trkpt>
      <trkpt lat="47.3177" lon="2.85755">
        <ele>156.3515625</ele>
        <time>2013-06-27T07:10:46Z</time>
      </trkpt>
      <trkpt lat="47.31769" lon="2.8574">
        <ele>155.39025878906</ele>
        <time>2013-06-27T07:11:04Z</time>
      </trkpt>
      <trkpt lat="47.31784" lon="2.85722">
        <ele>153.46765136719</ele>
        <time>2013-06-27T07:11:09Z</time>
      </trkpt>
      <trkpt lat="47.31864" lon="2.85721">
        <ele>151.06420898438</ele>
        <time>2013-06-27T07:11:23Z</time>
      </trkpt>
      <trkpt lat="47.31888" lon="2.85729">
        <ele>150.10302734375</ele>
        <time>2013-06-27T07:11:27Z</time>
      </trkpt>
      <trkpt lat="47.31995" lon="2.85724">
        <ele>150.10302734375</ele>
        <time>2013-06-27T07:11:45Z</time>
      </trkpt>
      <trkpt lat="47.3208" lon="2.85667">
        <ele>149.1416015625</ele>
        <time>2013-06-27T07:12:00Z</time>
      </trkpt>
      <trkpt lat="47.32201" lon="2.85586">
        <ele>149.62231445312</ele>
        <time>2013-06-27T07:12:21Z</time>
      </trkpt>
      <trkpt lat="47.3229" lon="2.85548">
        <ele>149.1416015625</ele>
        <time>2013-06-27T07:12:36Z</time>
      </trkpt>
      <trkpt lat="47.32432" lon="2.85527">
        <ele>149.1416015625</ele>
        <time>2013-06-27T07:12:58Z</time>
      </trkpt>
      <trkpt lat="47.32635" lon="2.85504">
        <ele>149.1416015625</ele>
        <time>2013-06-27T07:13:28Z</time>
      </trkpt>
      <trkpt lat="47.32874" lon="2.85478">
        <ele>148.18041992188</ele>
        <time>2013-06-27T07:14:03Z</time>
      </trkpt>
      <trkpt lat="47.33017" lon="2.85463">
        <ele>147.69970703125</ele>
        <time>2013-06-27T07:14:24Z</time>
      </trkpt>
      <trkpt lat="47.3319" lon="2.85467">
        <ele>146.73840332031</ele>
        <time>2013-06-27T07:14:49Z</time>
      </trkpt>
      <trkpt lat="47.33295" lon="2.85533">
        <ele>145.77709960938</ele>
        <time>2013-06-27T07:15:06Z</time>
      </trkpt>
      <trkpt lat="47.33393" lon="2.85648">
        <ele>146.2578125</ele>
        <time>2013-06-27T07:15:24Z</time>
      </trkpt>
      <trkpt lat="47.3351" lon="2.85787">
        <ele>146.2578125</ele>
        <time>2013-06-27T07:15:46Z</time>
      </trkpt>
      <trkpt lat="47.33597" lon="2.85833">
        <ele>146.2578125</ele>
        <time>2013-06-27T07:16:00Z</time>
      </trkpt>
      <trkpt lat="47.33617" lon="2.85836">
        <ele>146.2578125</ele>
        <time>2013-06-27T07:16:03Z</time>
      </trkpt>
      <trkpt lat="47.33687" lon="2.85806">
        <ele>146.2578125</ele>
        <time>2013-06-27T07:16:14Z</time>
      </trkpt>
      <trkpt lat="47.3379" lon="2.85812">
        <ele>147.69970703125</ele>
        <time>2013-06-27T07:16:29Z</time>
      </trkpt>
      <trkpt lat="47.33857" lon="2.85819">
        <ele>148.66101074219</ele>
        <time>2013-06-27T07:16:42Z</time>
      </trkpt>
      <trkpt lat="47.33866" lon="2.85815">
        <ele>149.1416015625</ele>
        <time>2013-06-27T07:16:52Z</time>
      </trkpt>
      <trkpt lat="47.33874" lon="2.85769">
        <ele>148.66101074219</ele>
        <time>2013-06-27T07:17:01Z</time>
      </trkpt>
      <trkpt lat="47.33875" lon="2.85755">
        <ele>148.66101074219</ele>
        <time>2013-06-27T07:17:03Z</time>
      </trkpt>
      <trkpt lat="47.33887" lon="2.85716">
        <ele>148.66101074219</ele>
        <time>2013-06-27T07:17:08Z</time>
      </trkpt>
      <trkpt lat="47.33894" lon="2.85702">
        <ele>148.18041992188</ele>
        <time>2013-06-27T07:17:10Z</time>
      </trkpt>
      <trkpt lat="47.33979" lon="2.85686">
        <ele>149.1416015625</ele>
        <time>2013-06-27T07:17:25Z</time>
      </trkpt>
      <trkpt lat="47.34025" lon="2.85686">
        <ele>149.1416015625</ele>
        <time>2013-06-27T07:17:33Z</time>
      </trkpt>
      <trkpt lat="47.34035" lon="2.8569">
        <ele>149.1416015625</ele>
        <time>2013-06-27T07:17:35Z</time>
      </trkpt>
      <trkpt lat="47.34111" lon="2.85716">
        <ele>147.21899414062</ele>
        <time>2013-06-27T07:17:49Z</time>
      </trkpt>
      <trkpt lat="47.3422" lon="2.85762">
        <ele>146.2578125</ele>
        <time>2013-06-27T07:18:08Z</time>
      </trkpt>
      <trkpt lat="47.3427" lon="2.85778">
        <ele>147.21899414062</ele>
        <time>2013-06-27T07:18:16Z</time>
      </trkpt>
      <trkpt lat="47.34419" lon="2.85868">
        <ele>148.18041992188</ele>
        <time>2013-06-27T07:18:42Z</time>
      </trkpt>
      <trkpt lat="47.34495" lon="2.85901">
        <ele>149.1416015625</ele>
        <time>2013-06-27T07:18:57Z</time>
      </trkpt>
      <trkpt lat="47.346" lon="2.8595">
        <ele>147.21899414062</ele>
        <time>2013-06-27T07:19:13Z</time>
      </trkpt>
      <trkpt lat="47.3473" lon="2.86033">
        <ele>146.2578125</ele>
        <time>2013-06-27T07:19:34Z</time>
      </trkpt>
      <trkpt lat="47.34896" lon="2.86137">
        <ele>146.73840332031</ele>
        <time>2013-06-27T07:20:00Z</time>
      </trkpt>
      <trkpt lat="47.35057" lon="2.86226">
        <ele>145.77709960938</ele>
        <time>2013-06-27T07:20:24Z</time>
      </trkpt>
      <trkpt lat="47.35168" lon="2.86304">
        <ele>147.21899414062</ele>
        <time>2013-06-27T07:20:43Z</time>
      </trkpt>
      <trkpt lat="47.35274" lon="2.86417">
        <ele>147.21899414062</ele>
        <time>2013-06-27T07:21:05Z</time>
      </trkpt>
      <trkpt lat="47.35387" lon="2.86583">
        <ele>149.1416015625</ele>
        <time>2013-06-27T07:21:31Z</time>
      </trkpt>
      <trkpt lat="47.35475" lon="2.86686">
        <ele>152.02575683594</ele>
        <time>2013-06-27T07:21:51Z</time>
      </trkpt>
      <trkpt lat="47.3553" lon="2.86719">
        <ele>151.544921875</ele>
        <time>2013-06-27T07:22:04Z</time>
      </trkpt>
      <trkpt lat="47.35541" lon="2.86728">
        <ele>152.02575683594</ele>
        <time>2013-06-27T07:22:13Z</time>
      </trkpt>
      <trkpt lat="47.35566" lon="2.86743">
        <ele>152.98693847656</ele>
        <time>2013-06-27T07:22:34Z</time>
      </trkpt>
      <trkpt lat="47.35604" lon="2.86766">
        <ele>153.46765136719</ele>
        <time>2013-06-27T07:22:52Z</time>
      </trkpt>
      <trkpt lat="47.35652" lon="2.868">
        <ele>155.39025878906</ele>
        <time>2013-06-27T07:23:04Z</time>
      </trkpt>
      <trkpt lat="47.35796" lon="2.86933">
        <ele>155.87097167969</ele>
        <time>2013-06-27T07:23:33Z</time>
      </trkpt>
      <trkpt lat="47.35923" lon="2.87035">
        <ele>152.98693847656</ele>
        <time>2013-06-27T07:23:56Z</time>
      </trkpt>
      <trkpt lat="47.36055" lon="2.87109">
        <ele>151.544921875</ele>
        <time>2013-06-27T07:24:16Z</time>
      </trkpt>
      <trkpt lat="47.36219" lon="2.872">
        <ele>151.06420898438</ele>
        <time>2013-06-27T07:24:43Z</time>
      </trkpt>
      <trkpt lat="47.36371" lon="2.87309">
        <ele>151.06420898438</ele>
        <time>2013-06-27T07:25:11Z</time>
      </trkpt>
      <trkpt lat="47.36489" lon="2.87379">
        <ele>150.58361816406</ele>
        <time>2013-06-27T07:25:35Z</time>
      </trkpt>
      <trkpt lat="47.36621" lon="2.87459">
        <ele>148.18041992188</ele>
        <time>2013-06-27T07:25:59Z</time>
      </trkpt>
      <trkpt lat="47.36722" lon="2.87542">
        <ele>149.1416015625</ele>
        <time>2013-06-27T07:26:19Z</time>
      </trkpt>
      <trkpt lat="47.3685" lon="2.87622">
        <ele>150.58361816406</ele>
        <time>2013-06-27T07:26:43Z</time>
      </trkpt>
      <trkpt lat="47.36989" lon="2.87684">
        <ele>148.66101074219</ele>
        <time>2013-06-27T07:27:05Z</time>
      </trkpt>
      <trkpt lat="47.37133" lon="2.87714">
        <ele>147.69970703125</ele>
        <time>2013-06-27T07:27:26Z</time>
      </trkpt>
      <trkpt lat="47.37221" lon="2.87738">
        <ele>147.69970703125</ele>
        <time>2013-06-27T07:27:41Z</time>
      </trkpt>
      <trkpt lat="47.37321" lon="2.8777">
        <ele>147.69970703125</ele>
        <time>2013-06-27T07:27:56Z</time>
      </trkpt>
      <trkpt lat="47.37446" lon="2.87809">
        <ele>147.21899414062</ele>
        <time>2013-06-27T07:28:15Z</time>
      </trkpt>
      <trkpt lat="47.37563" lon="2.87867">
        <ele>146.2578125</ele>
        <time>2013-06-27T07:28:35Z</time>
      </trkpt>
      <trkpt lat="47.377" lon="2.87955">
        <ele>148.66101074219</ele>
        <time>2013-06-27T07:28:58Z</time>
      </trkpt>
      <trkpt lat="47.37851" lon="2.88049">
        <ele>146.73840332031</ele>
        <time>2013-06-27T07:29:23Z</time>
      </trkpt>
      <trkpt lat="47.37979" lon="2.88129">
        <ele>147.69970703125</ele>
        <time>2013-06-27T07:29:44Z</time>
      </trkpt>
      <trkpt lat="47.38138" lon="2.8823">
        <ele>149.1416015625</ele>
        <time>2013-06-27T07:30:10Z</time>
      </trkpt>
      <trkpt lat="47.3828" lon="2.88325">
        <ele>145.77709960938</ele>
        <time>2013-06-27T07:30:31Z</time>
      </trkpt>
      <trkpt lat="47.3841" lon="2.88429">
        <ele>145.29638671875</ele>
        <time>2013-06-27T07:30:51Z</time>
      </trkpt>
      <trkpt lat="47.38561" lon="2.88549">
        <ele>146.2578125</ele>
        <time>2013-06-27T07:31:17Z</time>
      </trkpt>
      <trkpt lat="47.38667" lon="2.88575">
        <ele>149.62231445312</ele>
        <time>2013-06-27T07:31:33Z</time>
      </trkpt>
      <trkpt lat="47.38786" lon="2.88601">
        <ele>150.58361816406</ele>
        <time>2013-06-27T07:31:52Z</time>
      </trkpt>
      <trkpt lat="47.38926" lon="2.88671">
        <ele>150.58361816406</ele>
        <time>2013-06-27T07:32:15Z</time>
      </trkpt>
      <trkpt lat="47.39021" lon="2.88759">
        <ele>146.73840332031</ele>
        <time>2013-06-27T07:32:31Z</time>
      </trkpt>
      <trkpt lat="47.39051" lon="2.88784">
        <ele>146.73840332031</ele>
        <time>2013-06-27T07:32:38Z</time>
      </trkpt>
      <trkpt lat="47.39051" lon="2.88793">
        <ele>146.73840332031</ele>
        <time>2013-06-27T07:32:52Z</time>
      </trkpt>
      <trkpt lat="47.39052" lon="2.88794">
        <ele>146.2578125</ele>
        <time>2013-06-27T07:33:24Z</time>
      </trkpt>
      <trkpt lat="47.39057" lon="2.88787">
        <ele>145.29638671875</ele>
        <time>2013-06-27T07:33:40Z</time>
      </trkpt>
      <trkpt lat="47.39057" lon="2.88787">
        <ele>144.81579589844</ele>
        <time>2013-06-27T07:33:43Z</time>
      </trkpt>
      <trkpt lat="47.39089" lon="2.88805">
        <ele>144.81579589844</ele>
        <time>2013-06-27T07:33:56Z</time>
      </trkpt>
      <trkpt lat="47.39187" lon="2.88844">
        <ele>143.37365722656</ele>
        <time>2013-06-27T07:34:12Z</time>
      </trkpt>
      <trkpt lat="47.39238" lon="2.88867">
        <ele>146.2578125</ele>
        <time>2013-06-27T07:34:21Z</time>
      </trkpt>
      <trkpt lat="47.39357" lon="2.8891">
        <ele>145.29638671875</ele>
        <time>2013-06-27T07:34:40Z</time>
      </trkpt>
      <trkpt lat="47.39471" lon="2.88957">
        <ele>143.85437011719</ele>
        <time>2013-06-27T07:35:00Z</time>
      </trkpt>
      <trkpt lat="47.39626" lon="2.89019">
        <ele>144.81579589844</ele>
        <time>2013-06-27T07:35:27Z</time>
      </trkpt>
      <trkpt lat="47.39693" lon="2.89041">
        <ele>144.81579589844</ele>
        <time>2013-06-27T07:35:41Z</time>
      </trkpt>
      <trkpt lat="47.3974" lon="2.89062">
        <ele>146.2578125</ele>
        <time>2013-06-27T07:35:51Z</time>
      </trkpt>
      <trkpt lat="47.39831" lon="2.89098">
        <ele>143.85437011719</ele>
        <time>2013-06-27T07:36:07Z</time>
      </trkpt>
      <trkpt lat="47.39982" lon="2.89149">
        <ele>143.37365722656</ele>
        <time>2013-06-27T07:36:30Z</time>
      </trkpt>
      <trkpt lat="47.40171" lon="2.89192">
        <ele>144.33520507812</ele>
        <time>2013-06-27T07:36:58Z</time>
      </trkpt>
      <trkpt lat="47.40372" lon="2.89239">
        <ele>144.81579589844</ele>
        <time>2013-06-27T07:37:27Z</time>
      </trkpt>
      <trkpt lat="47.40493" lon="2.89298">
        <ele>144.33520507812</ele>
        <time>2013-06-27T07:37:45Z</time>
      </trkpt>
      <trkpt lat="47.40693" lon="2.89411">
        <ele>144.33520507812</ele>
        <time>2013-06-27T07:38:15Z</time>
      </trkpt>
      <trkpt lat="47.40777" lon="2.89446">
        <ele>149.1416015625</ele>
        <time>2013-06-27T07:38:29Z</time>
      </trkpt>
      <trkpt lat="47.40833" lon="2.89473">
        <ele>152.50634765625</ele>
        <time>2013-06-27T07:38:39Z</time>
      </trkpt>
      <trkpt lat="47.40949" lon="2.89521">
        <ele>149.62231445312</ele>
        <time>2013-06-27T07:38:56Z</time>
      </trkpt>
      <trkpt lat="47.40958" lon="2.89523">
        <ele>148.66101074219</ele>
        <time>2013-06-27T07:38:57Z</time>
      </trkpt>
      <trkpt lat="47.41078" lon="2.89533">
        <ele>145.29638671875</ele>
        <time>2013-06-27T07:39:12Z</time>
      </trkpt>
      <trkpt lat="47.41093" lon="2.89539">
        <ele>146.2578125</ele>
        <time>2013-06-27T07:39:15Z</time>
      </trkpt>
      <trkpt lat="47.41114" lon="2.89528">
        <ele>145.29638671875</ele>
        <time>2013-06-27T07:39:19Z</time>
      </trkpt>
      <trkpt lat="47.41228" lon="2.89511">
        <ele>143.85437011719</ele>
        <time>2013-06-27T07:39:35Z</time>
      </trkpt>
      <trkpt lat="47.41242" lon="2.89511">
        <ele>143.85437011719</ele>
        <time>2013-06-27T07:39:37Z</time>
      </trkpt>
      <trkpt lat="47.41377" lon="2.89545">
        <ele>142.89306640625</ele>
        <time>2013-06-27T07:39:56Z</time>
      </trkpt>
      <trkpt lat="47.4151" lon="2.89566">
        <ele>142.89306640625</ele>
        <time>2013-06-27T07:40:15Z</time>
      </trkpt>
      <trkpt lat="47.41684" lon="2.89531">
        <ele>143.37365722656</ele>
        <time>2013-06-27T07:40:40Z</time>
      </trkpt>
      <trkpt lat="47.41792" lon="2.89526">
        <ele>145.29638671875</ele>
        <time>2013-06-27T07:40:58Z</time>
      </trkpt>
      <trkpt lat="47.41811" lon="2.89523">
        <ele>144.33520507812</ele>
        <time>2013-06-27T07:41:02Z</time>
      </trkpt>
      <trkpt lat="47.41836" lon="2.89513">
        <ele>143.37365722656</ele>
        <time>2013-06-27T07:41:08Z</time>
      </trkpt>
      <trkpt lat="47.41945" lon="2.89511">
        <ele>147.21899414062</ele>
        <time>2013-06-27T07:41:24Z</time>
      </trkpt>
      <trkpt lat="47.42049" lon="2.89585">
        <ele>143.85437011719</ele>
        <time>2013-06-27T07:41:39Z</time>
      </trkpt>
      <trkpt lat="47.42128" lon="2.89594">
        <ele>141.45104980469</ele>
        <time>2013-06-27T07:41:48Z</time>
      </trkpt>
      <trkpt lat="47.42171" lon="2.89568">
        <ele>141.93176269531</ele>
        <time>2013-06-27T07:41:53Z</time>
      </trkpt>
      <trkpt lat="47.42261" lon="2.89426">
        <ele>141.93176269531</ele>
        <time>2013-06-27T07:42:09Z</time>
      </trkpt>
      <trkpt lat="47.42347" lon="2.89338">
        <ele>141.93176269531</ele>
        <time>2013-06-27T07:42:23Z</time>
      </trkpt>
      <trkpt lat="47.42511" lon="2.89265">
        <ele>140.97045898438</ele>
        <time>2013-06-27T07:42:45Z</time>
      </trkpt>
      <trkpt lat="47.42673" lon="2.89224">
        <ele>140.97045898438</ele>
        <time>2013-06-27T07:43:07Z</time>
      </trkpt>
      <trkpt lat="47.428" lon="2.89166">
        <ele>140.48986816406</ele>
        <time>2013-06-27T07:43:25Z</time>
      </trkpt>
      <trkpt lat="47.43016" lon="2.89035">
        <ele>141.93176269531</ele>
        <time>2013-06-27T07:43:56Z</time>
      </trkpt>
      <trkpt lat="47.43152" lon="2.88927">
        <ele>142.41247558594</ele>
        <time>2013-06-27T07:44:17Z</time>
      </trkpt>
      <trkpt lat="47.43299" lon="2.88793">
        <ele>141.45104980469</ele>
        <time>2013-06-27T07:44:40Z</time>
      </trkpt>
      <trkpt lat="47.43478" lon="2.88681">
        <ele>141.93176269531</ele>
        <time>2013-06-27T07:45:06Z</time>
      </trkpt>
      <trkpt lat="47.43633" lon="2.88612">
        <ele>140.48986816406</ele>
        <time>2013-06-27T07:45:27Z</time>
      </trkpt>
      <trkpt lat="47.43846" lon="2.8855">
        <ele>140.48986816406</ele>
        <time>2013-06-27T07:45:55Z</time>
      </trkpt>
      <trkpt lat="47.44048" lon="2.88469">
        <ele>142.89306640625</ele>
        <time>2013-06-27T07:46:23Z</time>
      </trkpt>
      <trkpt lat="47.44139" lon="2.88382">
        <ele>140.97045898438</ele>
        <time>2013-06-27T07:46:37Z</time>
      </trkpt>
      <trkpt lat="47.4424" lon="2.88316">
        <ele>140.48986816406</ele>
        <time>2013-06-27T07:46:52Z</time>
      </trkpt>
      <trkpt lat="47.44474" lon="2.88272">
        <ele>140.00915527344</ele>
        <time>2013-06-27T07:47:24Z</time>
      </trkpt>
      <trkpt lat="47.44631" lon="2.88219">
        <ele>139.0478515625</ele>
        <time>2013-06-27T07:47:46Z</time>
      </trkpt>
      <trkpt lat="47.44847" lon="2.88127">
        <ele>139.0478515625</ele>
        <time>2013-06-27T07:48:18Z</time>
      </trkpt>
      <trkpt lat="47.44967" lon="2.88068">
        <ele>140.48986816406</ele>
        <time>2013-06-27T07:48:37Z</time>
      </trkpt>
      <trkpt lat="47.45121" lon="2.87977">
        <ele>140.48986816406</ele>
        <time>2013-06-27T07:49:02Z</time>
      </trkpt>
      <trkpt lat="47.45249" lon="2.87924">
        <ele>141.45104980469</ele>
        <time>2013-06-27T07:49:23Z</time>
      </trkpt>
      <trkpt lat="47.45378" lon="2.87913">
        <ele>141.93176269531</ele>
        <time>2013-06-27T07:49:42Z</time>
      </trkpt>
      <trkpt lat="47.45521" lon="2.87929">
        <ele>141.93176269531</ele>
        <time>2013-06-27T07:50:04Z</time>
      </trkpt>
      <trkpt lat="47.4565" lon="2.87963">
        <ele>144.33520507812</ele>
        <time>2013-06-27T07:50:26Z</time>
      </trkpt>
      <trkpt lat="47.45779" lon="2.87976">
        <ele>146.2578125</ele>
        <time>2013-06-27T07:50:47Z</time>
      </trkpt>
      <trkpt lat="47.45861" lon="2.87914">
        <ele>146.73840332031</ele>
        <time>2013-06-27T07:51:01Z</time>
      </trkpt>
      <trkpt lat="47.45964" lon="2.87798">
        <ele>142.41247558594</ele>
        <time>2013-06-27T07:51:18Z</time>
      </trkpt>
      <trkpt lat="47.46061" lon="2.8774">
        <ele>140.97045898438</ele>
        <time>2013-06-27T07:51:33Z</time>
      </trkpt>
      <trkpt lat="47.46172" lon="2.87678">
        <ele>141.45104980469</ele>
        <time>2013-06-27T07:51:54Z</time>
      </trkpt>
      <trkpt lat="47.46367" lon="2.87568">
        <ele>142.89306640625</ele>
        <time>2013-06-27T07:52:28Z</time>
      </trkpt>
      <trkpt lat="47.46505" lon="2.87471">
        <ele>143.37365722656</ele>
        <time>2013-06-27T07:52:52Z</time>
      </trkpt>
      <trkpt lat="47.46605" lon="2.87439">
        <ele>142.41247558594</ele>
        <time>2013-06-27T07:53:08Z</time>
      </trkpt>
      <trkpt lat="47.46781" lon="2.87398">
        <ele>140.97045898438</ele>
        <time>2013-06-27T07:53:36Z</time>
      </trkpt>
      <trkpt lat="47.46881" lon="2.87376">
        <ele>142.41247558594</ele>
        <time>2013-06-27T07:53:52Z</time>
      </trkpt>
      <trkpt lat="47.47025" lon="2.87395">
        <ele>142.41247558594</ele>
        <time>2013-06-27T07:54:15Z</time>
      </trkpt>
      <trkpt lat="47.47077" lon="2.87387">
        <ele>143.37365722656</ele>
        <time>2013-06-27T07:54:24Z</time>
      </trkpt>
      <trkpt lat="47.4709" lon="2.87385">
        <ele>143.37365722656</ele>
        <time>2013-06-27T07:54:26Z</time>
      </trkpt>
      <trkpt lat="47.47143" lon="2.87363">
        <ele>142.89306640625</ele>
        <time>2013-06-27T07:54:35Z</time>
      </trkpt>
      <trkpt lat="47.47188" lon="2.87357">
        <ele>143.37365722656</ele>
        <time>2013-06-27T07:54:43Z</time>
      </trkpt>
      <trkpt lat="47.47216" lon="2.87351">
        <ele>143.85437011719</ele>
        <time>2013-06-27T07:54:48Z</time>
      </trkpt>
      <trkpt lat="47.47249" lon="2.87335">
        <ele>143.85437011719</ele>
        <time>2013-06-27T07:54:59Z</time>
      </trkpt>
      <trkpt lat="47.47257" lon="2.87332">
        <ele>143.85437011719</ele>
        <time>2013-06-27T07:55:14Z</time>
      </trkpt>
      <trkpt lat="47.47257" lon="2.87331">
        <ele>143.85437011719</ele>
        <time>2013-06-27T07:55:32Z</time>
      </trkpt>
      <trkpt lat="47.47296" lon="2.87313">
        <ele>145.29638671875</ele>
        <time>2013-06-27T07:55:46Z</time>
      </trkpt>
      <trkpt lat="47.47323" lon="2.87302">
        <ele>144.81579589844</ele>
        <time>2013-06-27T07:55:52Z</time>
      </trkpt>
      <trkpt lat="47.4735" lon="2.8728">
        <ele>144.33520507812</ele>
        <time>2013-06-27T07:55:58Z</time>
      </trkpt>
      <trkpt lat="47.47419" lon="2.87226">
        <ele>142.41247558594</ele>
        <time>2013-06-27T07:56:13Z</time>
      </trkpt>
      <trkpt lat="47.47442" lon="2.8722">
        <ele>142.41247558594</ele>
        <time>2013-06-27T07:56:18Z</time>
      </trkpt>
      <trkpt lat="47.47475" lon="2.87216">
        <ele>142.41247558594</ele>
        <time>2013-06-27T07:56:24Z</time>
      </trkpt>
      <trkpt lat="47.47542" lon="2.87223">
        <ele>141.93176269531</ele>
        <time>2013-06-27T07:56:37Z</time>
      </trkpt>
      <trkpt lat="47.47602" lon="2.87232">
        <ele>142.89306640625</ele>
        <time>2013-06-27T07:56:48Z</time>
      </trkpt>
      <trkpt lat="47.47701" lon="2.8723">
        <ele>144.33520507812</ele>
        <time>2013-06-27T07:57:05Z</time>
      </trkpt>
      <trkpt lat="47.47842" lon="2.87162">
        <ele>146.73840332031</ele>
        <time>2013-06-27T07:57:30Z</time>
      </trkpt>
      <trkpt lat="47.47973" lon="2.871">
        <ele>143.85437011719</ele>
        <time>2013-06-27T07:57:51Z</time>
      </trkpt>
      <trkpt lat="47.48133" lon="2.87023">
        <ele>144.81579589844</ele>
        <time>2013-06-27T07:58:15Z</time>
      </trkpt>
      <trkpt lat="47.48235" lon="2.86947">
        <ele>143.85437011719</ele>
        <time>2013-06-27T07:58:31Z</time>
      </trkpt>
      <trkpt lat="47.48408" lon="2.86806">
        <ele>143.85437011719</ele>
        <time>2013-06-27T07:59:00Z</time>
      </trkpt>
      <trkpt lat="47.48487" lon="2.86715">
        <ele>142.89306640625</ele>
        <time>2013-06-27T07:59:15Z</time>
      </trkpt>
      <trkpt lat="47.48592" lon="2.8659">
        <ele>141.93176269531</ele>
        <time>2013-06-27T07:59:34Z</time>
      </trkpt>
      <trkpt lat="47.48681" lon="2.8653">
        <ele>143.37365722656</ele>
        <time>2013-06-27T07:59:49Z</time>
      </trkpt>
      <trkpt lat="47.48812" lon="2.86459">
        <ele>145.77709960938</ele>
        <time>2013-06-27T08:00:11Z</time>
      </trkpt>
      <trkpt lat="47.48949" lon="2.86383">
        <ele>142.89306640625</ele>
        <time>2013-06-27T08:00:32Z</time>
      </trkpt>
      <trkpt lat="47.49078" lon="2.86315">
        <ele>143.37365722656</ele>
        <time>2013-06-27T08:00:51Z</time>
      </trkpt>
      <trkpt lat="47.49207" lon="2.86242">
        <ele>142.41247558594</ele>
        <time>2013-06-27T08:01:10Z</time>
      </trkpt>
      <trkpt lat="47.4934" lon="2.86145">
        <ele>141.45104980469</ele>
        <time>2013-06-27T08:01:30Z</time>
      </trkpt>
      <trkpt lat="47.49486" lon="2.86026">
        <ele>143.37365722656</ele>
        <time>2013-06-27T08:01:52Z</time>
      </trkpt>
      <trkpt lat="47.49634" lon="2.85908">
        <ele>142.41247558594</ele>
        <time>2013-06-27T08:02:15Z</time>
      </trkpt>
      <trkpt lat="47.49784" lon="2.85789">
        <ele>142.41247558594</ele>
        <time>2013-06-27T08:02:38Z</time>
      </trkpt>
      <trkpt lat="47.49908" lon="2.85687">
        <ele>143.85437011719</ele>
        <time>2013-06-27T08:02:57Z</time>
      </trkpt>
      <trkpt lat="47.5002" lon="2.85616">
        <ele>145.29638671875</ele>
        <time>2013-06-27T08:03:14Z</time>
      </trkpt>
      <trkpt lat="47.50117" lon="2.85575">
        <ele>143.85437011719</ele>
        <time>2013-06-27T08:03:28Z</time>
      </trkpt>
      <trkpt lat="47.50252" lon="2.85519">
        <ele>140.48986816406</ele>
        <time>2013-06-27T08:03:47Z</time>
      </trkpt>
      <trkpt lat="47.50381" lon="2.85447">
        <ele>140.48986816406</ele>
        <time>2013-06-27T08:04:07Z</time>
      </trkpt>
      <trkpt lat="47.50392" lon="2.85439">
        <ele>140.97045898438</ele>
        <time>2013-06-27T08:04:11Z</time>
      </trkpt>
      <trkpt lat="47.50397" lon="2.85437">
        <ele>140.48986816406</ele>
        <time>2013-06-27T08:04:14Z</time>
      </trkpt>
      <trkpt lat="47.50406" lon="2.85434">
        <ele>140.48986816406</ele>
        <time>2013-06-27T08:04:22Z</time>
      </trkpt>
      <trkpt lat="47.50405" lon="2.85441">
        <ele>140.48986816406</ele>
        <time>2013-06-27T08:04:26Z</time>
      </trkpt>
      <trkpt lat="47.50402" lon="2.85448">
        <ele>139.52844238281</ele>
        <time>2013-06-27T08:04:47Z</time>
      </trkpt>
      <trkpt lat="47.50404" lon="2.85448">
        <ele>140.97045898438</ele>
        <time>2013-06-27T08:07:46Z</time>
      </trkpt>
      <trkpt lat="47.5041" lon="2.85446">
        <ele>141.45104980469</ele>
        <time>2013-06-27T08:08:10Z</time>
      </trkpt>
      <trkpt lat="47.50414" lon="2.85443">
        <ele>140.97045898438</ele>
        <time>2013-06-27T08:08:17Z</time>
      </trkpt>
      <trkpt lat="47.50423" lon="2.85421">
        <ele>140.48986816406</ele>
        <time>2013-06-27T08:08:28Z</time>
      </trkpt>
      <trkpt lat="47.50423" lon="2.8542">
        <ele>140.48986816406</ele>
        <time>2013-06-27T08:08:29Z</time>
      </trkpt>
      <trkpt lat="47.50457" lon="2.85398">
        <ele>140.48986816406</ele>
        <time>2013-06-27T08:08:41Z</time>
      </trkpt>
      <trkpt lat="47.50483" lon="2.85378">
        <ele>140.48986816406</ele>
        <time>2013-06-27T08:08:49Z</time>
      </trkpt>
      <trkpt lat="47.50489" lon="2.85382">
        <ele>140.00915527344</ele>
        <time>2013-06-27T08:08:53Z</time>
      </trkpt>
      <trkpt lat="47.50494" lon="2.85386">
        <ele>140.48986816406</ele>
        <time>2013-06-27T08:08:55Z</time>
      </trkpt>
      <trkpt lat="47.50511" lon="2.85384">
        <ele>140.97045898438</ele>
        <time>2013-06-27T08:09:11Z</time>
      </trkpt>
      <trkpt lat="47.50507" lon="2.85384">
        <ele>141.45104980469</ele>
        <time>2013-06-27T08:09:32Z</time>
      </trkpt>
      <trkpt lat="47.50508" lon="2.85385">
        <ele>142.89306640625</ele>
        <time>2013-06-27T08:09:51Z</time>
      </trkpt>
      <trkpt lat="47.5051" lon="2.85384">
        <ele>142.89306640625</ele>
        <time>2013-06-27T08:11:18Z</time>
      </trkpt>
      <trkpt lat="47.5051" lon="2.85383">
        <ele>143.37365722656</ele>
        <time>2013-06-27T08:11:43Z</time>
      </trkpt>
      <trkpt lat="47.50509" lon="2.85382">
        <ele>143.37365722656</ele>
        <time>2013-06-27T08:12:12Z</time>
      </trkpt>
      <trkpt lat="47.50509" lon="2.85382">
        <ele>143.37365722656</ele>
        <time>2013-06-27T08:13:27Z</time>
      </trkpt>
      <trkpt lat="47.50508" lon="2.85383">
        <ele>143.37365722656</ele>
        <time>2013-06-27T08:13:58Z</time>
      </trkpt>
      <trkpt lat="47.50507" lon="2.85383">
        <ele>143.37365722656</ele>
        <time>2013-06-27T08:14:06Z</time>
      </trkpt>
      <trkpt lat="47.50489" lon="2.85382">
        <ele>141.93176269531</ele>
        <time>2013-06-27T08:14:16Z</time>
      </trkpt>
      <trkpt lat="47.50493" lon="2.85371">
        <ele>141.45104980469</ele>
        <time>2013-06-27T08:14:21Z</time>
      </trkpt>
      <trkpt lat="47.50556" lon="2.85329">
        <ele>141.45104980469</ele>
        <time>2013-06-27T08:14:37Z</time>
      </trkpt>
      <trkpt lat="47.5057" lon="2.8532">
        <ele>141.45104980469</ele>
        <time>2013-06-27T08:14:40Z</time>
      </trkpt>
      <trkpt lat="47.50647" lon="2.85268">
        <ele>141.93176269531</ele>
        <time>2013-06-27T08:14:56Z</time>
      </trkpt>
      <trkpt lat="47.50714" lon="2.85222">
        <ele>144.81579589844</ele>
        <time>2013-06-27T08:15:10Z</time>
      </trkpt>
      <trkpt lat="47.50787" lon="2.8513">
        <ele>141.93176269531</ele>
        <time>2013-06-27T08:15:26Z</time>
      </trkpt>
      <trkpt lat="47.5088" lon="2.85007">
        <ele>141.45104980469</ele>
        <time>2013-06-27T08:15:46Z</time>
      </trkpt>
      <trkpt lat="47.5099" lon="2.84891">
        <ele>143.37365722656</ele>
        <time>2013-06-27T08:16:07Z</time>
      </trkpt>
      <trkpt lat="47.51098" lon="2.84806">
        <ele>144.33520507812</ele>
        <time>2013-06-27T08:16:25Z</time>
      </trkpt>
      <trkpt lat="47.51237" lon="2.84701">
        <ele>143.85437011719</ele>
        <time>2013-06-27T08:16:46Z</time>
      </trkpt>
      <trkpt lat="47.51427" lon="2.84558">
        <ele>143.37365722656</ele>
        <time>2013-06-27T08:17:13Z</time>
      </trkpt>
      <trkpt lat="47.51551" lon="2.84471">
        <ele>143.85437011719</ele>
        <time>2013-06-27T08:17:31Z</time>
      </trkpt>
      <trkpt lat="47.51722" lon="2.84351">
        <ele>144.33520507812</ele>
        <time>2013-06-27T08:17:56Z</time>
      </trkpt>
      <trkpt lat="47.5187" lon="2.84248">
        <ele>147.69970703125</ele>
        <time>2013-06-27T08:18:19Z</time>
      </trkpt>
      <trkpt lat="47.52032" lon="2.84135">
        <ele>152.02575683594</ele>
        <time>2013-06-27T08:18:45Z</time>
      </trkpt>
      <trkpt lat="47.52182" lon="2.8403">
        <ele>152.98693847656</ele>
        <time>2013-06-27T08:19:09Z</time>
      </trkpt>
      <trkpt lat="47.52354" lon="2.83909">
        <ele>155.39025878906</ele>
        <time>2013-06-27T08:19:35Z</time>
      </trkpt>
      <trkpt lat="47.52516" lon="2.83795">
        <ele>154.42895507812</ele>
        <time>2013-06-27T08:19:59Z</time>
      </trkpt>
      <trkpt lat="47.52661" lon="2.83694">
        <ele>149.1416015625</ele>
        <time>2013-06-27T08:20:17Z</time>
      </trkpt>
      <trkpt lat="47.52762" lon="2.83586">
        <ele>145.77709960938</ele>
        <time>2013-06-27T08:20:30Z</time>
      </trkpt>
      <trkpt lat="47.52872" lon="2.83441">
        <ele>147.21899414062</ele>
        <time>2013-06-27T08:20:47Z</time>
      </trkpt>
      <trkpt lat="47.5295" lon="2.83339">
        <ele>149.1416015625</ele>
        <time>2013-06-27T08:21:03Z</time>
      </trkpt>
      <trkpt lat="47.53087" lon="2.83166">
        <ele>152.02575683594</ele>
        <time>2013-06-27T08:21:32Z</time>
      </trkpt>
      <trkpt lat="47.53197" lon="2.83023">
        <ele>152.50634765625</ele>
        <time>2013-06-27T08:21:53Z</time>
      </trkpt>
      <trkpt lat="47.53341" lon="2.82836">
        <ele>152.02575683594</ele>
        <time>2013-06-27T08:22:20Z</time>
      </trkpt>
      <trkpt lat="47.53473" lon="2.82665">
        <ele>155.87097167969</ele>
        <time>2013-06-27T08:22:46Z</time>
      </trkpt>
      <trkpt lat="47.5365" lon="2.82437">
        <ele>159.71618652344</ele>
        <time>2013-06-27T08:23:21Z</time>
      </trkpt>
      <trkpt lat="47.53766" lon="2.82288">
        <ele>163.5615234375</ele>
        <time>2013-06-27T08:23:46Z</time>
      </trkpt>
      <trkpt lat="47.53911" lon="2.82101">
        <ele>164.52270507812</ele>
        <time>2013-06-27T08:24:16Z</time>
      </trkpt>
      <trkpt lat="47.54032" lon="2.81942">
        <ele>166.4453125</ele>
        <time>2013-06-27T08:24:40Z</time>
      </trkpt>
      <trkpt lat="47.54145" lon="2.81797">
        <ele>166.4453125</ele>
        <time>2013-06-27T08:25:03Z</time>
      </trkpt>
      <trkpt lat="47.54268" lon="2.81652">
        <ele>165.00341796875</ele>
        <time>2013-06-27T08:25:25Z</time>
      </trkpt>
      <trkpt lat="47.54274" lon="2.81645">
        <ele>165.00341796875</ele>
        <time>2013-06-27T08:25:26Z</time>
      </trkpt>
      <trkpt lat="47.54308" lon="2.81586">
        <ele>165.96472167969</ele>
        <time>2013-06-27T08:25:33Z</time>
      </trkpt>
      <trkpt lat="47.54388" lon="2.81449">
        <ele>163.08081054688</ele>
        <time>2013-06-27T08:25:49Z</time>
      </trkpt>
      <trkpt lat="47.54484" lon="2.81267">
        <ele>166.4453125</ele>
        <time>2013-06-27T08:26:12Z</time>
      </trkpt>
      <trkpt lat="47.54528" lon="2.81095">
        <ele>164.04211425781</ele>
        <time>2013-06-27T08:26:30Z</time>
      </trkpt>
      <trkpt lat="47.54579" lon="2.80898">
        <ele>157.31286621094</ele>
        <time>2013-06-27T08:26:47Z</time>
      </trkpt>
      <trkpt lat="47.54633" lon="2.80801">
        <ele>158.75476074219</ele>
        <time>2013-06-27T08:26:57Z</time>
      </trkpt>
      <trkpt lat="47.54714" lon="2.80693">
        <ele>164.04211425781</ele>
        <time>2013-06-27T08:27:12Z</time>
      </trkpt>
      <trkpt lat="47.54791" lon="2.8059">
        <ele>168.84875488281</ele>
        <time>2013-06-27T08:27:27Z</time>
      </trkpt>
      <trkpt lat="47.54933" lon="2.80397">
        <ele>174.13586425781</ele>
        <time>2013-06-27T08:27:57Z</time>
      </trkpt>
      <trkpt lat="47.5506" lon="2.80224">
        <ele>173.6552734375</ele>
        <time>2013-06-27T08:28:24Z</time>
      </trkpt>
      <trkpt lat="47.55205" lon="2.80027">
        <ele>169.32946777344</ele>
        <time>2013-06-27T08:28:49Z</time>
      </trkpt>
      <trkpt lat="47.55338" lon="2.79847">
        <ele>169.81005859375</ele>
        <time>2013-06-27T08:29:10Z</time>
      </trkpt>
      <trkpt lat="47.55441" lon="2.79697">
        <ele>174.61657714844</ele>
        <time>2013-06-27T08:29:30Z</time>
      </trkpt>
      <trkpt lat="47.55445" lon="2.79688">
        <ele>174.61657714844</ele>
        <time>2013-06-27T08:29:31Z</time>
      </trkpt>
      <trkpt lat="47.55499" lon="2.79511">
        <ele>172.21325683594</ele>
        <time>2013-06-27T08:29:48Z</time>
      </trkpt>
      <trkpt lat="47.55575" lon="2.79276">
        <ele>166.92602539062</ele>
        <time>2013-06-27T08:30:10Z</time>
      </trkpt>
      <trkpt lat="47.55645" lon="2.79215">
        <ele>165.48413085938</ele>
        <time>2013-06-27T08:30:20Z</time>
      </trkpt>
      <trkpt lat="47.55763" lon="2.79163">
        <ele>166.92602539062</ele>
        <time>2013-06-27T08:30:36Z</time>
      </trkpt>
      <trkpt lat="47.55812" lon="2.79078">
        <ele>169.32946777344</ele>
        <time>2013-06-27T08:30:49Z</time>
      </trkpt>
      <trkpt lat="47.55878" lon="2.78894">
        <ele>172.69396972656</ele>
        <time>2013-06-27T08:31:14Z</time>
      </trkpt>
      <trkpt lat="47.55944" lon="2.78715">
        <ele>176.53930664062</ele>
        <time>2013-06-27T08:31:40Z</time>
      </trkpt>
      <trkpt lat="47.56028" lon="2.7855">
        <ele>179.42321777344</ele>
        <time>2013-06-27T08:32:05Z</time>
      </trkpt>
      <trkpt lat="47.56125" lon="2.78365">
        <ele>182.30712890625</ele>
        <time>2013-06-27T08:32:32Z</time>
      </trkpt>
      <trkpt lat="47.56241" lon="2.78148">
        <ele>180.38452148438</ele>
        <time>2013-06-27T08:33:00Z</time>
      </trkpt>
      <trkpt lat="47.56366" lon="2.77914">
        <ele>179.42321777344</ele>
        <time>2013-06-27T08:33:28Z</time>
      </trkpt>
      <trkpt lat="47.56455" lon="2.77748">
        <ele>183.26843261719</ele>
        <time>2013-06-27T08:33:51Z</time>
      </trkpt>
      <trkpt lat="47.56551" lon="2.7757">
        <ele>183.26843261719</ele>
        <time>2013-06-27T08:34:15Z</time>
      </trkpt>
      <trkpt lat="47.56643" lon="2.77423">
        <ele>182.30712890625</ele>
        <time>2013-06-27T08:34:33Z</time>
      </trkpt>
      <trkpt lat="47.56785" lon="2.77198">
        <ele>184.22985839844</ele>
        <time>2013-06-27T08:34:59Z</time>
      </trkpt>
      <trkpt lat="47.56868" lon="2.77015">
        <ele>184.71057128906</ele>
        <time>2013-06-27T08:35:18Z</time>
      </trkpt>
      <trkpt lat="47.56947" lon="2.7688">
        <ele>185.19116210938</ele>
        <time>2013-06-27T08:35:34Z</time>
      </trkpt>
      <trkpt lat="47.57085" lon="2.76751">
        <ele>181.34582519531</ele>
        <time>2013-06-27T08:35:53Z</time>
      </trkpt>
      <trkpt lat="47.57238" lon="2.76633">
        <ele>181.34582519531</ele>
        <time>2013-06-27T08:36:13Z</time>
      </trkpt>
      <trkpt lat="47.57393" lon="2.76604">
        <ele>183.7490234375</ele>
        <time>2013-06-27T08:36:32Z</time>
      </trkpt>
      <trkpt lat="47.57575" lon="2.76568">
        <ele>184.71057128906</ele>
        <time>2013-06-27T08:36:56Z</time>
      </trkpt>
      <trkpt lat="47.57796" lon="2.76524">
        <ele>179.90380859375</ele>
        <time>2013-06-27T08:37:23Z</time>
      </trkpt>
      <trkpt lat="47.57936" lon="2.76497">
        <ele>178.94262695312</ele>
        <time>2013-06-27T08:37:40Z</time>
      </trkpt>
      <trkpt lat="47.58057" lon="2.7647">
        <ele>182.30712890625</ele>
        <time>2013-06-27T08:37:57Z</time>
      </trkpt>
      <trkpt lat="47.58138" lon="2.76387">
        <ele>182.30712890625</ele>
        <time>2013-06-27T08:38:11Z</time>
      </trkpt>
      <trkpt lat="47.58271" lon="2.76202">
        <ele>179.90380859375</ele>
        <time>2013-06-27T08:38:35Z</time>
      </trkpt>
      <trkpt lat="47.58383" lon="2.76098">
        <ele>179.42321777344</ele>
        <time>2013-06-27T08:38:52Z</time>
      </trkpt>
      <trkpt lat="47.58538" lon="2.7598">
        <ele>177.98120117188</ele>
        <time>2013-06-27T08:39:15Z</time>
      </trkpt>
      <trkpt lat="47.58573" lon="2.75952">
        <ele>177.02001953125</ele>
        <time>2013-06-27T08:39:22Z</time>
      </trkpt>
      <trkpt lat="47.58592" lon="2.75928">
        <ele>177.02001953125</ele>
        <time>2013-06-27T08:39:27Z</time>
      </trkpt>
      <trkpt lat="47.58607" lon="2.75904">
        <ele>177.02001953125</ele>
        <time>2013-06-27T08:39:37Z</time>
      </trkpt>
      <trkpt lat="47.58607" lon="2.75905">
        <ele>177.02001953125</ele>
        <time>2013-06-27T08:40:50Z</time>
      </trkpt>
      <trkpt lat="47.58606" lon="2.75908">
        <ele>176.53930664062</ele>
        <time>2013-06-27T08:41:12Z</time>
      </trkpt>
      <trkpt lat="47.58603" lon="2.75912">
        <ele>174.61657714844</ele>
        <time>2013-06-27T09:24:41Z</time>
      </trkpt>
      <trkpt lat="47.58598" lon="2.75916">
        <ele>174.61657714844</ele>
        <time>2013-06-27T09:24:46Z</time>
      </trkpt>
      <trkpt lat="47.58596" lon="2.7592">
        <ele>174.13586425781</ele>
        <time>2013-06-27T09:24:49Z</time>
      </trkpt>
      <trkpt lat="47.58595" lon="2.75924">
        <ele>174.13586425781</ele>
        <time>2013-06-27T09:25:02Z</time>
      </trkpt>
      <trkpt lat="47.58596" lon="2.75927">
        <ele>174.61657714844</ele>
        <time>2013-06-27T09:25:18Z</time>
      </trkpt>
      <trkpt lat="47.58609" lon="2.7593">
        <ele>174.13586425781</ele>
        <time>2013-06-27T09:25:26Z</time>
      </trkpt>
      <trkpt lat="47.58681" lon="2.75879">
        <ele>173.17468261719</ele>
        <time>2013-06-27T09:25:45Z</time>
      </trkpt>
      <trkpt lat="47.58795" lon="2.75797">
        <ele>170.29064941406</ele>
        <time>2013-06-27T09:26:09Z</time>
      </trkpt>
      <trkpt lat="47.58897" lon="2.75722">
        <ele>163.5615234375</ele>
        <time>2013-06-27T09:26:24Z</time>
      </trkpt>
      <trkpt lat="47.59016" lon="2.75636">
        <ele>156.83215332031</ele>
        <time>2013-06-27T09:26:38Z</time>
      </trkpt>
      <trkpt lat="47.5903" lon="2.75616">
        <ele>155.87097167969</ele>
        <time>2013-06-27T09:26:41Z</time>
      </trkpt>
      <trkpt lat="47.59038" lon="2.75594">
        <ele>154.90954589844</ele>
        <time>2013-06-27T09:26:51Z</time>
      </trkpt>
      <trkpt lat="47.59039" lon="2.75585">
        <ele>154.90954589844</ele>
        <time>2013-06-27T09:27:27Z</time>
      </trkpt>
      <trkpt lat="47.59038" lon="2.75551">
        <ele>155.39025878906</ele>
        <time>2013-06-27T09:27:32Z</time>
      </trkpt>
      <trkpt lat="47.59024" lon="2.75478">
        <ele>152.50634765625</ele>
        <time>2013-06-27T09:27:39Z</time>
      </trkpt>
      <trkpt lat="47.59042" lon="2.75423">
        <ele>149.1416015625</ele>
        <time>2013-06-27T09:27:45Z</time>
      </trkpt>
      <trkpt lat="47.59058" lon="2.75423">
        <ele>147.69970703125</ele>
        <time>2013-06-27T09:27:47Z</time>
      </trkpt>
      <trkpt lat="47.59146" lon="2.75446">
        <ele>140.97045898438</ele>
        <time>2013-06-27T09:27:57Z</time>
      </trkpt>
      <trkpt lat="47.59185" lon="2.75429">
        <ele>138.56726074219</ele>
        <time>2013-06-27T09:28:02Z</time>
      </trkpt>
      <trkpt lat="47.59224" lon="2.75375">
        <ele>134.72192382812</ele>
        <time>2013-06-27T09:28:12Z</time>
      </trkpt>
      <trkpt lat="47.59227" lon="2.7537">
        <ele>134.72192382812</ele>
        <time>2013-06-27T09:28:25Z</time>
      </trkpt>
      <trkpt lat="47.59243" lon="2.75348">
        <ele>134.72192382812</ele>
        <time>2013-06-27T09:28:34Z</time>
      </trkpt>
      <trkpt lat="47.59252" lon="2.75335">
        <ele>134.72192382812</ele>
        <time>2013-06-27T09:28:44Z</time>
      </trkpt>
      <trkpt lat="47.59265" lon="2.75312">
        <ele>133.76049804688</ele>
        <time>2013-06-27T09:28:54Z</time>
      </trkpt>
      <trkpt lat="47.59281" lon="2.75291">
        <ele>134.72192382812</ele>
        <time>2013-06-27T09:28:59Z</time>
      </trkpt>
      <trkpt lat="47.59297" lon="2.75272">
        <ele>136.16394042969</ele>
        <time>2013-06-27T09:29:04Z</time>
      </trkpt>
      <trkpt lat="47.59318" lon="2.75273">
        <ele>137.12524414062</ele>
        <time>2013-06-27T09:29:10Z</time>
      </trkpt>
      <trkpt lat="47.59357" lon="2.75335">
        <ele>139.0478515625</ele>
        <time>2013-06-27T09:29:22Z</time>
      </trkpt>
      <trkpt lat="47.59368" lon="2.75349">
        <ele>139.52844238281</ele>
        <time>2013-06-27T09:29:25Z</time>
      </trkpt>
      <trkpt lat="47.59436" lon="2.75455">
        <ele>136.16394042969</ele>
        <time>2013-06-27T09:29:42Z</time>
      </trkpt>
      <trkpt lat="47.59475" lon="2.75519">
        <ele>135.68310546875</ele>
        <time>2013-06-27T09:29:50Z</time>
      </trkpt>
      <trkpt lat="47.59534" lon="2.75576">
        <ele>134.72192382812</ele>
        <time>2013-06-27T09:30:01Z</time>
      </trkpt>
      <trkpt lat="47.59596" lon="2.7557">
        <ele>133.76049804688</ele>
        <time>2013-06-27T09:30:12Z</time>
      </trkpt>
      <trkpt lat="47.59649" lon="2.75517">
        <ele>134.72192382812</ele>
        <time>2013-06-27T09:30:25Z</time>
      </trkpt>
      <trkpt lat="47.59709" lon="2.75409">
        <ele>139.0478515625</ele>
        <time>2013-06-27T09:30:47Z</time>
      </trkpt>
      <trkpt lat="47.598" lon="2.75291">
        <ele>144.81579589844</ele>
        <time>2013-06-27T09:31:18Z</time>
      </trkpt>
      <trkpt lat="47.5986" lon="2.75281">
        <ele>144.33520507812</ele>
        <time>2013-06-27T09:31:33Z</time>
      </trkpt>
      <trkpt lat="47.59888" lon="2.75252">
        <ele>141.93176269531</ele>
        <time>2013-06-27T09:31:40Z</time>
      </trkpt>
      <trkpt lat="47.59957" lon="2.75114">
        <ele>137.12524414062</ele>
        <time>2013-06-27T09:31:57Z</time>
      </trkpt>
      <trkpt lat="47.60048" lon="2.74928">
        <ele>133.76049804688</ele>
        <time>2013-06-27T09:32:19Z</time>
      </trkpt>
      <trkpt lat="47.60096" lon="2.74842">
        <ele>133.76049804688</ele>
        <time>2013-06-27T09:32:32Z</time>
      </trkpt>
      <trkpt lat="47.60106" lon="2.74822">
        <ele>133.76049804688</ele>
        <time>2013-06-27T09:32:35Z</time>
      </trkpt>
      <trkpt lat="47.60199" lon="2.74707">
        <ele>131.837890625</ele>
        <time>2013-06-27T09:32:56Z</time>
      </trkpt>
      <trkpt lat="47.60344" lon="2.74543">
        <ele>129.43469238281</ele>
        <time>2013-06-27T09:33:26Z</time>
      </trkpt>
      <trkpt lat="47.60443" lon="2.74415">
        <ele>128.9541015625</ele>
        <time>2013-06-27T09:33:49Z</time>
      </trkpt>
      <trkpt lat="47.60452" lon="2.74402">
        <ele>128.9541015625</ele>
        <time>2013-06-27T09:33:51Z</time>
      </trkpt>
      <trkpt lat="47.60539" lon="2.74323">
        <ele>127.99255371094</ele>
        <time>2013-06-27T09:34:08Z</time>
      </trkpt>
      <trkpt lat="47.60621" lon="2.74231">
        <ele>126.55065917969</ele>
        <time>2013-06-27T09:34:25Z</time>
      </trkpt>
      <trkpt lat="47.60707" lon="2.74169">
        <ele>126.06994628906</ele>
        <time>2013-06-27T09:34:41Z</time>
      </trkpt>
      <trkpt lat="47.6074" lon="2.74145">
        <ele>126.55065917969</ele>
        <time>2013-06-27T09:34:47Z</time>
      </trkpt>
      <trkpt lat="47.60872" lon="2.74065">
        <ele>127.51196289062</ele>
        <time>2013-06-27T09:35:11Z</time>
      </trkpt>
      <trkpt lat="47.60966" lon="2.74019">
        <ele>127.99255371094</ele>
        <time>2013-06-27T09:35:28Z</time>
      </trkpt>
      <trkpt lat="47.61109" lon="2.73939">
        <ele>129.43469238281</ele>
        <time>2013-06-27T09:35:54Z</time>
      </trkpt>
      <trkpt lat="47.6128" lon="2.73827">
        <ele>128.47338867188</ele>
        <time>2013-06-27T09:36:26Z</time>
      </trkpt>
      <trkpt lat="47.61367" lon="2.73779">
        <ele>129.43469238281</ele>
        <time>2013-06-27T09:36:43Z</time>
      </trkpt>
      <trkpt lat="47.61411" lon="2.73767">
        <ele>129.43469238281</ele>
        <time>2013-06-27T09:36:56Z</time>
      </trkpt>
      <trkpt lat="47.61425" lon="2.7376">
        <ele>128.47338867188</ele>
        <time>2013-06-27T09:38:01Z</time>
      </trkpt>
      <trkpt lat="47.61465" lon="2.73747">
        <ele>127.03137207031</ele>
        <time>2013-06-27T09:38:15Z</time>
      </trkpt>
      <trkpt lat="47.61556" lon="2.7374">
        <ele>127.03137207031</ele>
        <time>2013-06-27T09:38:33Z</time>
      </trkpt>
      <trkpt lat="47.61666" lon="2.73759">
        <ele>127.03137207031</ele>
        <time>2013-06-27T09:38:53Z</time>
      </trkpt>
      <trkpt lat="47.61741" lon="2.7373">
        <ele>127.51196289062</ele>
        <time>2013-06-27T09:39:07Z</time>
      </trkpt>
      <trkpt lat="47.61814" lon="2.73688">
        <ele>129.43469238281</ele>
        <time>2013-06-27T09:39:21Z</time>
      </trkpt>
      <trkpt lat="47.62002" lon="2.73531">
        <ele>126.55065917969</ele>
        <time>2013-06-27T09:39:59Z</time>
      </trkpt>
      <trkpt lat="47.62141" lon="2.7344">
        <ele>125.58935546875</ele>
        <time>2013-06-27T09:40:26Z</time>
      </trkpt>
      <trkpt lat="47.62295" lon="2.73373">
        <ele>125.10876464844</ele>
        <time>2013-06-27T09:40:54Z</time>
      </trkpt>
      <trkpt lat="47.62403" lon="2.73325">
        <ele>126.06994628906</ele>
        <time>2013-06-27T09:41:15Z</time>
      </trkpt>
      <trkpt lat="47.62541" lon="2.73263">
        <ele>125.58935546875</ele>
        <time>2013-06-27T09:41:37Z</time>
      </trkpt>
      <trkpt lat="47.62622" lon="2.732">
        <ele>124.14733886719</ele>
        <time>2013-06-27T09:41:52Z</time>
      </trkpt>
      <trkpt lat="47.62715" lon="2.73121">
        <ele>124.14733886719</ele>
        <time>2013-06-27T09:42:10Z</time>
      </trkpt>
      <trkpt lat="47.62832" lon="2.72993">
        <ele>123.18615722656</ele>
        <time>2013-06-27T09:42:35Z</time>
      </trkpt>
      <trkpt lat="47.62907" lon="2.72889">
        <ele>122.70544433594</ele>
        <time>2013-06-27T09:42:52Z</time>
      </trkpt>
      <trkpt lat="47.62932" lon="2.72874">
        <ele>122.22473144531</ele>
        <time>2013-06-27T09:42:56Z</time>
      </trkpt>
      <trkpt lat="47.6295" lon="2.72834">
        <ele>122.70544433594</ele>
        <time>2013-06-27T09:43:06Z</time>
      </trkpt>
      <trkpt lat="47.6295" lon="2.72834">
        <ele>122.70544433594</ele>
        <time>2013-06-27T09:44:03Z</time>
      </trkpt>
      <trkpt lat="47.62963" lon="2.72814">
        <ele>122.22473144531</ele>
        <time>2013-06-27T09:44:12Z</time>
      </trkpt>
      <trkpt lat="47.63004" lon="2.72753">
        <ele>122.70544433594</ele>
        <time>2013-06-27T09:44:24Z</time>
      </trkpt>
      <trkpt lat="47.63037" lon="2.72691">
        <ele>122.22473144531</ele>
        <time>2013-06-27T09:44:34Z</time>
      </trkpt>
      <trkpt lat="47.63107" lon="2.72568">
        <ele>121.744140625</ele>
        <time>2013-06-27T09:44:53Z</time>
      </trkpt>
      <trkpt lat="47.63194" lon="2.72407">
        <ele>120.78283691406</ele>
        <time>2013-06-27T09:45:17Z</time>
      </trkpt>
      <trkpt lat="47.63284" lon="2.72256">
        <ele>120.78283691406</ele>
        <time>2013-06-27T09:45:40Z</time>
      </trkpt>
      <trkpt lat="47.63423" lon="2.72085">
        <ele>121.744140625</ele>
        <time>2013-06-27T09:46:11Z</time>
      </trkpt>
      <trkpt lat="47.63543" lon="2.7194">
        <ele>123.18615722656</ele>
        <time>2013-06-27T09:46:37Z</time>
      </trkpt>
      <trkpt lat="47.63666" lon="2.7179">
        <ele>122.70544433594</ele>
        <time>2013-06-27T09:47:04Z</time>
      </trkpt>
      <trkpt lat="47.63834" lon="2.71586">
        <ele>122.70544433594</ele>
        <time>2013-06-27T09:47:40Z</time>
      </trkpt>
      <trkpt lat="47.63986" lon="2.71402">
        <ele>123.18615722656</ele>
        <time>2013-06-27T09:48:12Z</time>
      </trkpt>
      <trkpt lat="47.64089" lon="2.71246">
        <ele>120.78283691406</ele>
        <time>2013-06-27T09:48:36Z</time>
      </trkpt>
      <trkpt lat="47.64207" lon="2.71062">
        <ele>120.78283691406</ele>
        <time>2013-06-27T09:49:05Z</time>
      </trkpt>
      <trkpt lat="47.64344" lon="2.70848">
        <ele>121.26354980469</ele>
        <time>2013-06-27T09:49:40Z</time>
      </trkpt>
      <trkpt lat="47.6446" lon="2.70666">
        <ele>121.26354980469</ele>
        <time>2013-06-27T09:50:08Z</time>
      </trkpt>
      <trkpt lat="47.64592" lon="2.70463">
        <ele>120.30212402344</ele>
        <time>2013-06-27T09:50:38Z</time>
      </trkpt>
      <trkpt lat="47.64683" lon="2.7032">
        <ele>120.78283691406</ele>
        <time>2013-06-27T09:51:00Z</time>
      </trkpt>
      <trkpt lat="47.64805" lon="2.70129">
        <ele>119.82141113281</ele>
        <time>2013-06-27T09:51:29Z</time>
      </trkpt>
      <trkpt lat="47.64961" lon="2.69887">
        <ele>120.78283691406</ele>
        <time>2013-06-27T09:52:05Z</time>
      </trkpt>
      <trkpt lat="47.65062" lon="2.69732">
        <ele>120.78283691406</ele>
        <time>2013-06-27T09:52:28Z</time>
      </trkpt>
      <trkpt lat="47.65136" lon="2.69614">
        <ele>120.30212402344</ele>
        <time>2013-06-27T09:52:45Z</time>
      </trkpt>
      <trkpt lat="47.65268" lon="2.69407">
        <ele>118.86010742188</ele>
        <time>2013-06-27T09:53:15Z</time>
      </trkpt>
      <trkpt lat="47.65281" lon="2.69386">
        <ele>119.3408203125</ele>
        <time>2013-06-27T09:53:18Z</time>
      </trkpt>
      <trkpt lat="47.65338" lon="2.69305">
        <ele>120.30212402344</ele>
        <time>2013-06-27T09:53:30Z</time>
      </trkpt>
      <trkpt lat="47.6536" lon="2.69268">
        <ele>120.78283691406</ele>
        <time>2013-06-27T09:53:35Z</time>
      </trkpt>
      <trkpt lat="47.65431" lon="2.69127">
        <ele>120.78283691406</ele>
        <time>2013-06-27T09:53:53Z</time>
      </trkpt>
      <trkpt lat="47.65516" lon="2.68921">
        <ele>119.82141113281</ele>
        <time>2013-06-27T09:54:19Z</time>
      </trkpt>
      <trkpt lat="47.65569" lon="2.68792">
        <ele>120.30212402344</ele>
        <time>2013-06-27T09:54:35Z</time>
      </trkpt>
      <trkpt lat="47.65586" lon="2.68752">
        <ele>119.82141113281</ele>
        <time>2013-06-27T09:54:40Z</time>
      </trkpt>
      <trkpt lat="47.656" lon="2.68721">
        <ele>119.3408203125</ele>
        <time>2013-06-27T09:54:44Z</time>
      </trkpt>
      <trkpt lat="47.65675" lon="2.68547">
        <ele>119.3408203125</ele>
        <time>2013-06-27T09:55:07Z</time>
      </trkpt>
      <trkpt lat="47.65776" lon="2.68296">
        <ele>118.37939453125</ele>
        <time>2013-06-27T09:55:39Z</time>
      </trkpt>
      <trkpt lat="47.6589" lon="2.68019">
        <ele>118.86010742188</ele>
        <time>2013-06-27T09:56:16Z</time>
      </trkpt>
      <trkpt lat="47.65973" lon="2.67817">
        <ele>118.86010742188</ele>
        <time>2013-06-27T09:56:43Z</time>
      </trkpt>
      <trkpt lat="47.66086" lon="2.67539">
        <ele>119.3408203125</ele>
        <time>2013-06-27T09:57:20Z</time>
      </trkpt>
      <trkpt lat="47.66201" lon="2.67264">
        <ele>118.37939453125</ele>
        <time>2013-06-27T09:57:57Z</time>
      </trkpt>
      <trkpt lat="47.66279" lon="2.67076">
        <ele>118.37939453125</ele>
        <time>2013-06-27T09:58:22Z</time>
      </trkpt>
      <trkpt lat="47.66356" lon="2.66885">
        <ele>117.89880371094</ele>
        <time>2013-06-27T09:58:48Z</time>
      </trkpt>
      <trkpt lat="47.66398" lon="2.66762">
        <ele>117.89880371094</ele>
        <time>2013-06-27T09:59:04Z</time>
      </trkpt>
      <trkpt lat="47.66492" lon="2.66424">
        <ele>116.9375</ele>
        <time>2013-06-27T09:59:46Z</time>
      </trkpt>
      <trkpt lat="47.66553" lon="2.66211">
        <ele>116.45678710938</ele>
        <time>2013-06-27T10:00:11Z</time>
      </trkpt>
      <trkpt lat="47.66609" lon="2.66">
        <ele>116.45678710938</ele>
        <time>2013-06-27T10:00:37Z</time>
      </trkpt>
      <trkpt lat="47.66663" lon="2.65743">
        <ele>116.45678710938</ele>
        <time>2013-06-27T10:01:07Z</time>
      </trkpt>
      <trkpt lat="47.6672" lon="2.65475">
        <ele>118.37939453125</ele>
        <time>2013-06-27T10:01:39Z</time>
      </trkpt>
      <trkpt lat="47.66771" lon="2.65344">
        <ele>119.3408203125</ele>
        <time>2013-06-27T10:01:58Z</time>
      </trkpt>
      <trkpt lat="47.66887" lon="2.65151">
        <ele>118.37939453125</ele>
        <time>2013-06-27T10:02:27Z</time>
      </trkpt>
      <trkpt lat="47.66972" lon="2.6501">
        <ele>117.89880371094</ele>
        <time>2013-06-27T10:02:48Z</time>
      </trkpt>
      <trkpt lat="47.67092" lon="2.6481">
        <ele>118.86010742188</ele>
        <time>2013-06-27T10:03:18Z</time>
      </trkpt>
      <trkpt lat="47.67202" lon="2.64649">
        <ele>119.3408203125</ele>
        <time>2013-06-27T10:03:43Z</time>
      </trkpt>
      <trkpt lat="47.67236" lon="2.64612">
        <ele>118.37939453125</ele>
        <time>2013-06-27T10:03:55Z</time>
      </trkpt>
      <trkpt lat="47.67238" lon="2.64609">
        <ele>118.37939453125</ele>
        <time>2013-06-27T10:05:39Z</time>
      </trkpt>
      <trkpt lat="47.67261" lon="2.64579">
        <ele>117.89880371094</ele>
        <time>2013-06-27T10:05:50Z</time>
      </trkpt>
      <trkpt lat="47.67338" lon="2.64489">
        <ele>117.89880371094</ele>
        <time>2013-06-27T10:06:11Z</time>
      </trkpt>
      <trkpt lat="47.67446" lon="2.64361">
        <ele>118.37939453125</ele>
        <time>2013-06-27T10:06:37Z</time>
      </trkpt>
      <trkpt lat="47.67588" lon="2.64195">
        <ele>118.37939453125</ele>
        <time>2013-06-27T10:07:09Z</time>
      </trkpt>
      <trkpt lat="47.67665" lon="2.64103">
        <ele>117.89880371094</ele>
        <time>2013-06-27T10:07:27Z</time>
      </trkpt>
      <trkpt lat="47.67763" lon="2.64009">
        <ele>118.37939453125</ele>
        <time>2013-06-27T10:07:47Z</time>
      </trkpt>
      <trkpt lat="47.67796" lon="2.63979">
        <ele>118.37939453125</ele>
        <time>2013-06-27T10:07:54Z</time>
      </trkpt>
      <trkpt lat="47.67837" lon="2.63872">
        <ele>117.89880371094</ele>
        <time>2013-06-27T10:08:08Z</time>
      </trkpt>
      <trkpt lat="47.67879" lon="2.63728">
        <ele>118.37939453125</ele>
        <time>2013-06-27T10:08:26Z</time>
      </trkpt>
      <trkpt lat="47.67931" lon="2.63548">
        <ele>118.37939453125</ele>
        <time>2013-06-27T10:08:48Z</time>
      </trkpt>
      <trkpt lat="47.6798" lon="2.63403">
        <ele>118.86010742188</ele>
        <time>2013-06-27T10:09:06Z</time>
      </trkpt>
      <trkpt lat="47.68003" lon="2.63339">
        <ele>118.86010742188</ele>
        <time>2013-06-27T10:09:14Z</time>
      </trkpt>
      <trkpt lat="47.68062" lon="2.63167">
        <ele>117.89880371094</ele>
        <time>2013-06-27T10:09:36Z</time>
      </trkpt>
      <trkpt lat="47.68109" lon="2.63046">
        <ele>120.30212402344</ele>
        <time>2013-06-27T10:09:52Z</time>
      </trkpt>
      <trkpt lat="47.68116" lon="2.62985">
        <ele>120.30212402344</ele>
        <time>2013-06-27T10:10:03Z</time>
      </trkpt>
      <trkpt lat="47.68122" lon="2.62944">
        <ele>119.3408203125</ele>
        <time>2013-06-27T10:10:08Z</time>
      </trkpt>
      <trkpt lat="47.6814" lon="2.62786">
        <ele>117.89880371094</ele>
        <time>2013-06-27T10:10:25Z</time>
      </trkpt>
      <trkpt lat="47.68162" lon="2.62593">
        <ele>116.45678710938</ele>
        <time>2013-06-27T10:10:46Z</time>
      </trkpt>
      <trkpt lat="47.68192" lon="2.62329">
        <ele>116.9375</ele>
        <time>2013-06-27T10:11:13Z</time>
      </trkpt>
      <trkpt lat="47.68206" lon="2.62156">
        <ele>116.45678710938</ele>
        <time>2013-06-27T10:11:31Z</time>
      </trkpt>
      <trkpt lat="47.68183" lon="2.61852">
        <ele>116.9375</ele>
        <time>2013-06-27T10:12:03Z</time>
      </trkpt>
      <trkpt lat="47.68159" lon="2.6153">
        <ele>117.41821289062</ele>
        <time>2013-06-27T10:12:38Z</time>
      </trkpt>
      <trkpt lat="47.68143" lon="2.61279">
        <ele>116.45678710938</ele>
        <time>2013-06-27T10:13:05Z</time>
      </trkpt>
      <trkpt lat="47.68115" lon="2.61091">
        <ele>117.89880371094</ele>
        <time>2013-06-27T10:13:27Z</time>
      </trkpt>
      <trkpt lat="47.68066" lon="2.60887">
        <ele>116.45678710938</ele>
        <time>2013-06-27T10:13:52Z</time>
      </trkpt>
      <trkpt lat="47.68015" lon="2.60746">
        <ele>116.45678710938</ele>
        <time>2013-06-27T10:14:10Z</time>
      </trkpt>
      <trkpt lat="47.67943" lon="2.60545">
        <ele>116.9375</ele>
        <time>2013-06-27T10:14:36Z</time>
      </trkpt>
      <trkpt lat="47.679" lon="2.60423">
        <ele>116.45678710938</ele>
        <time>2013-06-27T10:14:52Z</time>
      </trkpt>
      <trkpt lat="47.67857" lon="2.60307">
        <ele>116.9375</ele>
        <time>2013-06-27T10:15:07Z</time>
      </trkpt>
      <trkpt lat="47.67855" lon="2.60221">
        <ele>116.45678710938</ele>
        <time>2013-06-27T10:15:17Z</time>
      </trkpt>
      <trkpt lat="47.67882" lon="2.60107">
        <ele>117.41821289062</ele>
        <time>2013-06-27T10:15:32Z</time>
      </trkpt>
      <trkpt lat="47.67876" lon="2.6006">
        <ele>117.89880371094</ele>
        <time>2013-06-27T10:15:38Z</time>
      </trkpt>
      <trkpt lat="47.67824" lon="2.59966">
        <ele>118.37939453125</ele>
        <time>2013-06-27T10:15:53Z</time>
      </trkpt>
      <trkpt lat="47.678" lon="2.59933">
        <ele>118.37939453125</ele>
        <time>2013-06-27T10:15:59Z</time>
      </trkpt>
      <trkpt lat="47.67797" lon="2.59877">
        <ele>117.89880371094</ele>
        <time>2013-06-27T10:16:06Z</time>
      </trkpt>
      <trkpt lat="47.6787" lon="2.59634">
        <ele>117.41821289062</ele>
        <time>2013-06-27T10:16:37Z</time>
      </trkpt>
      <trkpt lat="47.67936" lon="2.59415">
        <ele>115.97619628906</ele>
        <time>2013-06-27T10:17:05Z</time>
      </trkpt>
      <trkpt lat="47.67996" lon="2.59214">
        <ele>115.97619628906</ele>
        <time>2013-06-27T10:17:31Z</time>
      </trkpt>
      <trkpt lat="47.68066" lon="2.58961">
        <ele>115.49560546875</ele>
        <time>2013-06-27T10:18:03Z</time>
      </trkpt>
      <trkpt lat="47.6812" lon="2.58776">
        <ele>115.97619628906</ele>
        <time>2013-06-27T10:18:26Z</time>
      </trkpt>
      <trkpt lat="47.68205" lon="2.58551">
        <ele>116.45678710938</ele>
        <time>2013-06-27T10:18:57Z</time>
      </trkpt>
      <trkpt lat="47.68301" lon="2.58291">
        <ele>115.97619628906</ele>
        <time>2013-06-27T10:19:32Z</time>
      </trkpt>
      <trkpt lat="47.68364" lon="2.58141">
        <ele>115.97619628906</ele>
        <time>2013-06-27T10:19:53Z</time>
      </trkpt>
      <trkpt lat="47.6843" lon="2.57985">
        <ele>115.49560546875</ele>
        <time>2013-06-27T10:20:14Z</time>
      </trkpt>
      <trkpt lat="47.68515" lon="2.57781">
        <ele>115.49560546875</ele>
        <time>2013-06-27T10:20:41Z</time>
      </trkpt>
      <trkpt lat="47.68569" lon="2.57607">
        <ele>115.49560546875</ele>
        <time>2013-06-27T10:21:03Z</time>
      </trkpt>
      <trkpt lat="47.68624" lon="2.57382">
        <ele>115.01489257812</ele>
        <time>2013-06-27T10:21:29Z</time>
      </trkpt>
      <trkpt lat="47.68696" lon="2.57085">
        <ele>114.5341796875</ele>
        <time>2013-06-27T10:22:03Z</time>
      </trkpt>
      <trkpt lat="47.68763" lon="2.56863">
        <ele>114.05358886719</ele>
        <time>2013-06-27T10:22:29Z</time>
      </trkpt>
      <trkpt lat="47.68839" lon="2.56631">
        <ele>114.05358886719</ele>
        <time>2013-06-27T10:22:58Z</time>
      </trkpt>
      <trkpt lat="47.68931" lon="2.56465">
        <ele>112.61157226562</ele>
        <time>2013-06-27T10:23:21Z</time>
      </trkpt>
      <trkpt lat="47.69043" lon="2.56259">
        <ele>113.09228515625</ele>
        <time>2013-06-27T10:23:49Z</time>
      </trkpt>
      <trkpt lat="47.6908" lon="2.56187">
        <ele>112.61157226562</ele>
        <time>2013-06-27T10:24:00Z</time>
      </trkpt>
      <trkpt lat="47.69095" lon="2.56157">
        <ele>112.61157226562</ele>
        <time>2013-06-27T10:24:11Z</time>
      </trkpt>
      <trkpt lat="47.691" lon="2.56156">
        <ele>111.65026855469</ele>
        <time>2013-06-27T10:24:28Z</time>
      </trkpt>
      <trkpt lat="47.691" lon="2.56145">
        <ele>112.61157226562</ele>
        <time>2013-06-27T10:25:57Z</time>
      </trkpt>
      <trkpt lat="47.69099" lon="2.56148">
        <ele>112.61157226562</ele>
        <time>2013-06-27T10:26:09Z</time>
      </trkpt>
      <trkpt lat="47.69101" lon="2.56138">
        <ele>113.09228515625</ele>
        <time>2013-06-27T10:26:22Z</time>
      </trkpt>
      <trkpt lat="47.69099" lon="2.56128">
        <ele>113.57299804688</ele>
        <time>2013-06-27T10:26:37Z</time>
      </trkpt>
      <trkpt lat="47.69098" lon="2.56121">
        <ele>113.57299804688</ele>
        <time>2013-06-27T10:26:48Z</time>
      </trkpt>
      <trkpt lat="47.69113" lon="2.56042">
        <ele>112.61157226562</ele>
        <time>2013-06-27T10:27:01Z</time>
      </trkpt>
      <trkpt lat="47.69171" lon="2.55911">
        <ele>114.5341796875</ele>
        <time>2013-06-27T10:27:21Z</time>
      </trkpt>
      <trkpt lat="47.69258" lon="2.55736">
        <ele>115.01489257812</ele>
        <time>2013-06-27T10:27:47Z</time>
      </trkpt>
      <trkpt lat="47.69316" lon="2.55564">
        <ele>116.9375</ele>
        <time>2013-06-27T10:28:12Z</time>
      </trkpt>
      <trkpt lat="47.69358" lon="2.5545">
        <ele>119.3408203125</ele>
        <time>2013-06-27T10:28:32Z</time>
      </trkpt>
      <trkpt lat="47.69449" lon="2.55289">
        <ele>121.744140625</ele>
        <time>2013-06-27T10:29:04Z</time>
      </trkpt>
      <trkpt lat="47.69557" lon="2.55056">
        <ele>125.58935546875</ele>
        <time>2013-06-27T10:29:43Z</time>
      </trkpt>
      <trkpt lat="47.69632" lon="2.54863">
        <ele>123.18615722656</ele>
        <time>2013-06-27T10:30:10Z</time>
      </trkpt>
      <trkpt lat="47.69705" lon="2.54666">
        <ele>123.66674804688</ele>
        <time>2013-06-27T10:30:38Z</time>
      </trkpt>
      <trkpt lat="47.69778" lon="2.54475">
        <ele>124.14733886719</ele>
        <time>2013-06-27T10:31:06Z</time>
      </trkpt>
      <trkpt lat="47.6984" lon="2.54324">
        <ele>123.18615722656</ele>
        <time>2013-06-27T10:31:27Z</time>
      </trkpt>
      <trkpt lat="47.69885" lon="2.54194">
        <ele>122.22473144531</ele>
        <time>2013-06-27T10:31:44Z</time>
      </trkpt>
      <trkpt lat="47.69896" lon="2.54074">
        <ele>120.30212402344</ele>
        <time>2013-06-27T10:31:57Z</time>
      </trkpt>
      <trkpt lat="47.69876" lon="2.54021">
        <ele>120.78283691406</ele>
        <time>2013-06-27T10:32:03Z</time>
      </trkpt>
      <trkpt lat="47.69852" lon="2.53993">
        <ele>119.3408203125</ele>
        <time>2013-06-27T10:32:07Z</time>
      </trkpt>
      <trkpt lat="47.69827" lon="2.53903">
        <ele>118.86010742188</ele>
        <time>2013-06-27T10:32:16Z</time>
      </trkpt>
      <trkpt lat="47.69837" lon="2.53838">
        <ele>117.89880371094</ele>
        <time>2013-06-27T10:32:23Z</time>
      </trkpt>
      <trkpt lat="47.69904" lon="2.53745">
        <ele>117.41821289062</ele>
        <time>2013-06-27T10:32:39Z</time>
      </trkpt>
      <trkpt lat="47.70032" lon="2.53675">
        <ele>118.37939453125</ele>
        <time>2013-06-27T10:33:05Z</time>
      </trkpt>
      <trkpt lat="47.70182" lon="2.53603">
        <ele>122.22473144531</ele>
        <time>2013-06-27T10:33:34Z</time>
      </trkpt>
      <trkpt lat="47.70334" lon="2.53547">
        <ele>125.58935546875</ele>
        <time>2013-06-27T10:34:04Z</time>
      </trkpt>
      <trkpt lat="47.70452" lon="2.53495">
        <ele>124.62805175781</ele>
        <time>2013-06-27T10:34:27Z</time>
      </trkpt>
      <trkpt lat="47.7052" lon="2.53402">
        <ele>124.62805175781</ele>
        <time>2013-06-27T10:34:44Z</time>
      </trkpt>
      <trkpt lat="47.7059" lon="2.53288">
        <ele>122.70544433594</ele>
        <time>2013-06-27T10:35:05Z</time>
      </trkpt>
      <trkpt lat="47.7066" lon="2.53175">
        <ele>118.86010742188</ele>
        <time>2013-06-27T10:35:21Z</time>
      </trkpt>
      <trkpt lat="47.70761" lon="2.5298">
        <ele>116.9375</ele>
        <time>2013-06-27T10:35:47Z</time>
      </trkpt>
      <trkpt lat="47.70831" lon="2.52768">
        <ele>119.3408203125</ele>
        <time>2013-06-27T10:36:15Z</time>
      </trkpt>
      <trkpt lat="47.70911" lon="2.5253">
        <ele>120.30212402344</ele>
        <time>2013-06-27T10:36:46Z</time>
      </trkpt>
      <trkpt lat="47.70989" lon="2.5235">
        <ele>119.3408203125</ele>
        <time>2013-06-27T10:37:10Z</time>
      </trkpt>
      <trkpt lat="47.71095" lon="2.52123">
        <ele>119.82141113281</ele>
        <time>2013-06-27T10:37:40Z</time>
      </trkpt>
      <trkpt lat="47.7121" lon="2.51847">
        <ele>120.30212402344</ele>
        <time>2013-06-27T10:38:16Z</time>
      </trkpt>
      <trkpt lat="47.71294" lon="2.51672">
        <ele>118.86010742188</ele>
        <time>2013-06-27T10:38:39Z</time>
      </trkpt>
      <trkpt lat="47.71436" lon="2.51506">
        <ele>118.37939453125</ele>
        <time>2013-06-27T10:39:09Z</time>
      </trkpt>
      <trkpt lat="47.71547" lon="2.51375">
        <ele>116.9375</ele>
        <time>2013-06-27T10:39:33Z</time>
      </trkpt>
      <trkpt lat="47.71649" lon="2.51256">
        <ele>114.05358886719</ele>
        <time>2013-06-27T10:39:53Z</time>
      </trkpt>
      <trkpt lat="47.71766" lon="2.51117">
        <ele>115.01489257812</ele>
        <time>2013-06-27T10:40:18Z</time>
      </trkpt>
      <trkpt lat="47.71841" lon="2.51031">
        <ele>115.49560546875</ele>
        <time>2013-06-27T10:40:33Z</time>
      </trkpt>
      <trkpt lat="47.71894" lon="2.50972">
        <ele>117.41821289062</ele>
        <time>2013-06-27T10:40:45Z</time>
      </trkpt>
      <trkpt lat="47.71961" lon="2.50892">
        <ele>119.3408203125</ele>
        <time>2013-06-27T10:41:02Z</time>
      </trkpt>
      <trkpt lat="47.72039" lon="2.50768">
        <ele>122.22473144531</ele>
        <time>2013-06-27T10:41:24Z</time>
      </trkpt>
      <trkpt lat="47.72119" lon="2.50655">
        <ele>122.22473144531</ele>
        <time>2013-06-27T10:41:44Z</time>
      </trkpt>
      <trkpt lat="47.72233" lon="2.50564">
        <ele>121.744140625</ele>
        <time>2013-06-27T10:42:06Z</time>
      </trkpt>
      <trkpt lat="47.72321" lon="2.50474">
        <ele>123.66674804688</ele>
        <time>2013-06-27T10:42:25Z</time>
      </trkpt>
      <trkpt lat="47.72384" lon="2.50343">
        <ele>126.55065917969</ele>
        <time>2013-06-27T10:42:44Z</time>
      </trkpt>
      <trkpt lat="47.72472" lon="2.50129">
        <ele>128.9541015625</ele>
        <time>2013-06-27T10:43:13Z</time>
      </trkpt>
      <trkpt lat="47.72569" lon="2.49889">
        <ele>129.43469238281</ele>
        <time>2013-06-27T10:43:45Z</time>
      </trkpt>
      <trkpt lat="47.72641" lon="2.49661">
        <ele>130.39599609375</ele>
        <time>2013-06-27T10:44:14Z</time>
      </trkpt>
      <trkpt lat="47.72687" lon="2.49502">
        <ele>129.43469238281</ele>
        <time>2013-06-27T10:44:33Z</time>
      </trkpt>
      <trkpt lat="47.72681" lon="2.4936">
        <ele>128.9541015625</ele>
        <time>2013-06-27T10:44:48Z</time>
      </trkpt>
      <trkpt lat="47.72664" lon="2.49176">
        <ele>127.99255371094</ele>
        <time>2013-06-27T10:45:08Z</time>
      </trkpt>
      <trkpt lat="47.72648" lon="2.48996">
        <ele>129.43469238281</ele>
        <time>2013-06-27T10:45:28Z</time>
      </trkpt>
      <trkpt lat="47.72642" lon="2.48912">
        <ele>128.9541015625</ele>
        <time>2013-06-27T10:45:37Z</time>
      </trkpt>
      <trkpt lat="47.72665" lon="2.48751">
        <ele>124.62805175781</ele>
        <time>2013-06-27T10:45:53Z</time>
      </trkpt>
      <trkpt lat="47.72702" lon="2.48624">
        <ele>123.18615722656</ele>
        <time>2013-06-27T10:46:08Z</time>
      </trkpt>
      <trkpt lat="47.7273" lon="2.4859">
        <ele>122.70544433594</ele>
        <time>2013-06-27T10:46:14Z</time>
      </trkpt>
      <trkpt lat="47.72786" lon="2.48593">
        <ele>121.26354980469</ele>
        <time>2013-06-27T10:46:24Z</time>
      </trkpt>
      <trkpt lat="47.7293" lon="2.48609">
        <ele>117.41821289062</ele>
        <time>2013-06-27T10:46:47Z</time>
      </trkpt>
      <trkpt lat="47.73005" lon="2.48614">
        <ele>115.01489257812</ele>
        <time>2013-06-27T10:46:56Z</time>
      </trkpt>
      <trkpt lat="47.7304" lon="2.48634">
        <ele>113.57299804688</ele>
        <time>2013-06-27T10:47:01Z</time>
      </trkpt>
      <trkpt lat="47.73079" lon="2.48658">
        <ele>112.61157226562</ele>
        <time>2013-06-27T10:47:08Z</time>
      </trkpt>
      <trkpt lat="47.73099" lon="2.48652">
        <ele>112.61157226562</ele>
        <time>2013-06-27T10:47:12Z</time>
      </trkpt>
      <trkpt lat="47.73196" lon="2.4854">
        <ele>115.01489257812</ele>
        <time>2013-06-27T10:47:32Z</time>
      </trkpt>
      <trkpt lat="47.73263" lon="2.4848">
        <ele>115.97619628906</ele>
        <time>2013-06-27T10:47:44Z</time>
      </trkpt>
      <trkpt lat="47.73286" lon="2.48461">
        <ele>117.41821289062</ele>
        <time>2013-06-27T10:47:49Z</time>
      </trkpt>
      <trkpt lat="47.73299" lon="2.48444">
        <ele>119.3408203125</ele>
        <time>2013-06-27T10:47:52Z</time>
      </trkpt>
      <trkpt lat="47.73378" lon="2.48368">
        <ele>120.30212402344</ele>
        <time>2013-06-27T10:48:06Z</time>
      </trkpt>
      <trkpt lat="47.73384" lon="2.48365">
        <ele>120.30212402344</ele>
        <time>2013-06-27T10:48:07Z</time>
      </trkpt>
      <trkpt lat="47.73412" lon="2.48338">
        <ele>120.30212402344</ele>
        <time>2013-06-27T10:48:12Z</time>
      </trkpt>
      <trkpt lat="47.73454" lon="2.48301">
        <ele>120.78283691406</ele>
        <time>2013-06-27T10:48:20Z</time>
      </trkpt>
      <trkpt lat="47.73487" lon="2.48274">
        <ele>123.66674804688</ele>
        <time>2013-06-27T10:48:26Z</time>
      </trkpt>
      <trkpt lat="47.73529" lon="2.4824">
        <ele>127.99255371094</ele>
        <time>2013-06-27T10:48:34Z</time>
      </trkpt>
      <trkpt lat="47.73562" lon="2.48204">
        <ele>130.39599609375</ele>
        <time>2013-06-27T10:48:41Z</time>
      </trkpt>
      <trkpt lat="47.73616" lon="2.48169">
        <ele>135.20251464844</ele>
        <time>2013-06-27T10:48:52Z</time>
      </trkpt>
      <trkpt lat="47.73652" lon="2.48146">
        <ele>138.08654785156</ele>
        <time>2013-06-27T10:48:58Z</time>
      </trkpt>
      <trkpt lat="47.73689" lon="2.48124">
        <ele>140.97045898438</ele>
        <time>2013-06-27T10:49:04Z</time>
      </trkpt>
      <trkpt lat="47.73712" lon="2.48113">
        <ele>142.89306640625</ele>
        <time>2013-06-27T10:49:08Z</time>
      </trkpt>
      <trkpt lat="47.73804" lon="2.48048">
        <ele>140.00915527344</ele>
        <time>2013-06-27T10:49:23Z</time>
      </trkpt>
      <trkpt lat="47.73895" lon="2.47979">
        <ele>128.9541015625</ele>
        <time>2013-06-27T10:49:38Z</time>
      </trkpt>
      <trkpt lat="47.73973" lon="2.47927">
        <ele>123.66674804688</ele>
        <time>2013-06-27T10:49:51Z</time>
      </trkpt>
      <trkpt lat="47.74102" lon="2.47868">
        <ele>117.89880371094</ele>
        <time>2013-06-27T10:50:12Z</time>
      </trkpt>
      <trkpt lat="47.74173" lon="2.47781">
        <ele>116.9375</ele>
        <time>2013-06-27T10:50:27Z</time>
      </trkpt>
      <trkpt lat="47.74273" lon="2.47668">
        <ele>117.89880371094</ele>
        <time>2013-06-27T10:50:49Z</time>
      </trkpt>
      <trkpt lat="47.74378" lon="2.47582">
        <ele>117.89880371094</ele>
        <time>2013-06-27T10:51:09Z</time>
      </trkpt>
      <trkpt lat="47.7446" lon="2.47512">
        <ele>118.86010742188</ele>
        <time>2013-06-27T10:51:25Z</time>
      </trkpt>
      <trkpt lat="47.74535" lon="2.4746">
        <ele>119.82141113281</ele>
        <time>2013-06-27T10:51:39Z</time>
      </trkpt>
      <trkpt lat="47.74626" lon="2.47385">
        <ele>116.9375</ele>
        <time>2013-06-27T10:51:56Z</time>
      </trkpt>
      <trkpt lat="47.74642" lon="2.47371">
        <ele>115.49560546875</ele>
        <time>2013-06-27T10:51:59Z</time>
      </trkpt>
      <trkpt lat="47.74735" lon="2.47307">
        <ele>115.97619628906</ele>
        <time>2013-06-27T10:52:16Z</time>
      </trkpt>
      <trkpt lat="47.74838" lon="2.47246">
        <ele>115.97619628906</ele>
        <time>2013-06-27T10:52:35Z</time>
      </trkpt>
      <trkpt lat="47.74947" lon="2.47212">
        <ele>115.97619628906</ele>
        <time>2013-06-27T10:52:53Z</time>
      </trkpt>
      <trkpt lat="47.74965" lon="2.47216">
        <ele>117.41821289062</ele>
        <time>2013-06-27T10:52:57Z</time>
      </trkpt>
      <trkpt lat="47.74982" lon="2.47228">
        <ele>118.86010742188</ele>
        <time>2013-06-27T10:53:04Z</time>
      </trkpt>
      <trkpt lat="47.75028" lon="2.47183">
        <ele>118.86010742188</ele>
        <time>2013-06-27T10:53:16Z</time>
      </trkpt>
      <trkpt lat="47.75131" lon="2.47088">
        <ele>119.82141113281</ele>
        <time>2013-06-27T10:53:37Z</time>
      </trkpt>
      <trkpt lat="47.7524" lon="2.47019">
        <ele>118.86010742188</ele>
        <time>2013-06-27T10:53:56Z</time>
      </trkpt>
      <trkpt lat="47.75266" lon="2.4701">
        <ele>118.37939453125</ele>
        <time>2013-06-27T10:54:00Z</time>
      </trkpt>
      <trkpt lat="47.75307" lon="2.46964">
        <ele>118.37939453125</ele>
        <time>2013-06-27T10:54:08Z</time>
      </trkpt>
      <trkpt lat="47.75384" lon="2.46783">
        <ele>118.37939453125</ele>
        <time>2013-06-27T10:54:30Z</time>
      </trkpt>
      <trkpt lat="47.75438" lon="2.46653">
        <ele>118.86010742188</ele>
        <time>2013-06-27T10:54:47Z</time>
      </trkpt>
      <trkpt lat="47.75488" lon="2.46538">
        <ele>117.89880371094</ele>
        <time>2013-06-27T10:55:02Z</time>
      </trkpt>
      <trkpt lat="47.75556" lon="2.46392">
        <ele>120.30212402344</ele>
        <time>2013-06-27T10:55:21Z</time>
      </trkpt>
      <trkpt lat="47.75626" lon="2.46255">
        <ele>118.86010742188</ele>
        <time>2013-06-27T10:55:39Z</time>
      </trkpt>
      <trkpt lat="47.75716" lon="2.46043">
        <ele>118.86010742188</ele>
        <time>2013-06-27T10:56:05Z</time>
      </trkpt>
      <trkpt lat="47.75813" lon="2.45822">
        <ele>121.26354980469</ele>
        <time>2013-06-27T10:56:33Z</time>
      </trkpt>
      <trkpt lat="47.75919" lon="2.45577">
        <ele>120.30212402344</ele>
        <time>2013-06-27T10:57:05Z</time>
      </trkpt>
      <trkpt lat="47.75991" lon="2.45396">
        <ele>120.30212402344</ele>
        <time>2013-06-27T10:57:29Z</time>
      </trkpt>
      <trkpt lat="47.76089" lon="2.45186">
        <ele>119.3408203125</ele>
        <time>2013-06-27T10:58:00Z</time>
      </trkpt>
      <trkpt lat="47.76111" lon="2.45124">
        <ele>119.82141113281</ele>
        <time>2013-06-27T10:58:11Z</time>
      </trkpt>
      <trkpt lat="47.76168" lon="2.44956">
        <ele>119.82141113281</ele>
        <time>2013-06-27T10:58:31Z</time>
      </trkpt>
      <trkpt lat="47.7624" lon="2.44778">
        <ele>119.3408203125</ele>
        <time>2013-06-27T10:58:53Z</time>
      </trkpt>
      <trkpt lat="47.76323" lon="2.44551">
        <ele>119.82141113281</ele>
        <time>2013-06-27T10:59:21Z</time>
      </trkpt>
      <trkpt lat="47.76373" lon="2.44373">
        <ele>119.3408203125</ele>
        <time>2013-06-27T10:59:42Z</time>
      </trkpt>
      <trkpt lat="47.76381" lon="2.44351">
        <ele>118.86010742188</ele>
        <time>2013-06-27T10:59:45Z</time>
      </trkpt>
      <trkpt lat="47.76429" lon="2.44211">
        <ele>119.3408203125</ele>
        <time>2013-06-27T11:00:02Z</time>
      </trkpt>
      <trkpt lat="47.76471" lon="2.44021">
        <ele>119.82141113281</ele>
        <time>2013-06-27T11:00:24Z</time>
      </trkpt>
      <trkpt lat="47.7651" lon="2.43802">
        <ele>119.82141113281</ele>
        <time>2013-06-27T11:00:48Z</time>
      </trkpt>
      <trkpt lat="47.76531" lon="2.43628">
        <ele>119.3408203125</ele>
        <time>2013-06-27T11:01:06Z</time>
      </trkpt>
      <trkpt lat="47.76555" lon="2.43441">
        <ele>119.3408203125</ele>
        <time>2013-06-27T11:01:27Z</time>
      </trkpt>
      <trkpt lat="47.76577" lon="2.43215">
        <ele>119.3408203125</ele>
        <time>2013-06-27T11:01:52Z</time>
      </trkpt>
      <trkpt lat="47.76573" lon="2.4296">
        <ele>118.86010742188</ele>
        <time>2013-06-27T11:02:19Z</time>
      </trkpt>
      <trkpt lat="47.7658" lon="2.42777">
        <ele>119.82141113281</ele>
        <time>2013-06-27T11:02:40Z</time>
      </trkpt>
      <trkpt lat="47.76588" lon="2.42597">
        <ele>120.78283691406</ele>
        <time>2013-06-27T11:03:00Z</time>
      </trkpt>
      <trkpt lat="47.76587" lon="2.42588">
        <ele>120.78283691406</ele>
        <time>2013-06-27T11:03:01Z</time>
      </trkpt>
      <trkpt lat="47.7654" lon="2.42389">
        <ele>118.86010742188</ele>
        <time>2013-06-27T11:03:24Z</time>
      </trkpt>
      <trkpt lat="47.76538" lon="2.4238">
        <ele>118.86010742188</ele>
        <time>2013-06-27T11:03:25Z</time>
      </trkpt>
      <trkpt lat="47.76536" lon="2.42346">
        <ele>119.3408203125</ele>
        <time>2013-06-27T11:03:29Z</time>
      </trkpt>
      <trkpt lat="47.76567" lon="2.42174">
        <ele>118.86010742188</ele>
        <time>2013-06-27T11:03:49Z</time>
      </trkpt>
      <trkpt lat="47.76598" lon="2.41937">
        <ele>118.37939453125</ele>
        <time>2013-06-27T11:04:17Z</time>
      </trkpt>
      <trkpt lat="47.76637" lon="2.41747">
        <ele>117.41821289062</ele>
        <time>2013-06-27T11:04:39Z</time>
      </trkpt>
      <trkpt lat="47.76651" lon="2.41545">
        <ele>115.97619628906</ele>
        <time>2013-06-27T11:05:01Z</time>
      </trkpt>
      <trkpt lat="47.76679" lon="2.41273">
        <ele>117.41821289062</ele>
        <time>2013-06-27T11:05:31Z</time>
      </trkpt>
      <trkpt lat="47.76716" lon="2.4105">
        <ele>116.9375</ele>
        <time>2013-06-27T11:05:56Z</time>
      </trkpt>
      <trkpt lat="47.76741" lon="2.40883">
        <ele>116.9375</ele>
        <time>2013-06-27T11:06:17Z</time>
      </trkpt>
      <trkpt lat="47.76765" lon="2.40701">
        <ele>116.9375</ele>
        <time>2013-06-27T11:06:37Z</time>
      </trkpt>
      <trkpt lat="47.76784" lon="2.40609">
        <ele>117.41821289062</ele>
        <time>2013-06-27T11:06:51Z</time>
      </trkpt>
      <trkpt lat="47.76784" lon="2.4061">
        <ele>116.9375</ele>
        <time>2013-06-27T11:07:08Z</time>
      </trkpt>
      <trkpt lat="47.76784" lon="2.40609">
        <ele>116.45678710938</ele>
        <time>2013-06-27T11:08:44Z</time>
      </trkpt>
      <trkpt lat="47.76783" lon="2.40601">
        <ele>115.97619628906</ele>
        <time>2013-06-27T11:08:47Z</time>
      </trkpt>
      <trkpt lat="47.76794" lon="2.40536">
        <ele>116.9375</ele>
        <time>2013-06-27T11:09:01Z</time>
      </trkpt>
      <trkpt lat="47.76819" lon="2.40398">
        <ele>116.9375</ele>
        <time>2013-06-27T11:09:20Z</time>
      </trkpt>
      <trkpt lat="47.76857" lon="2.40194">
        <ele>116.9375</ele>
        <time>2013-06-27T11:09:46Z</time>
      </trkpt>
      <trkpt lat="47.76907" lon="2.40039">
        <ele>116.45678710938</ele>
        <time>2013-06-27T11:10:07Z</time>
      </trkpt>
      <trkpt lat="47.76992" lon="2.39786">
        <ele>115.01489257812</ele>
        <time>2013-06-27T11:10:40Z</time>
      </trkpt>
      <trkpt lat="47.77061" lon="2.39572">
        <ele>115.49560546875</ele>
        <time>2013-06-27T11:11:07Z</time>
      </trkpt>
      <trkpt lat="47.77119" lon="2.39398">
        <ele>115.97619628906</ele>
        <time>2013-06-27T11:11:29Z</time>
      </trkpt>
      <trkpt lat="47.7717" lon="2.392">
        <ele>116.45678710938</ele>
        <time>2013-06-27T11:11:52Z</time>
      </trkpt>
      <trkpt lat="47.7718" lon="2.38994">
        <ele>115.97619628906</ele>
        <time>2013-06-27T11:12:15Z</time>
      </trkpt>
      <trkpt lat="47.77171" lon="2.3876">
        <ele>115.97619628906</ele>
        <time>2013-06-27T11:12:42Z</time>
      </trkpt>
      <trkpt lat="47.77156" lon="2.38508">
        <ele>115.97619628906</ele>
        <time>2013-06-27T11:13:12Z</time>
      </trkpt>
      <trkpt lat="47.7714" lon="2.3838">
        <ele>116.45678710938</ele>
        <time>2013-06-27T11:13:29Z</time>
      </trkpt>
      <trkpt lat="47.77136" lon="2.3834">
        <ele>115.97619628906</ele>
        <time>2013-06-27T11:13:34Z</time>
      </trkpt>
      <trkpt lat="47.77111" lon="2.38295">
        <ele>116.45678710938</ele>
        <time>2013-06-27T11:13:42Z</time>
      </trkpt>
      <trkpt lat="47.77057" lon="2.38133">
        <ele>118.37939453125</ele>
        <time>2013-06-27T11:14:04Z</time>
      </trkpt>
      <trkpt lat="47.76998" lon="2.37958">
        <ele>119.3408203125</ele>
        <time>2013-06-27T11:14:27Z</time>
      </trkpt>
      <trkpt lat="47.76942" lon="2.37793">
        <ele>119.3408203125</ele>
        <time>2013-06-27T11:14:49Z</time>
      </trkpt>
      <trkpt lat="47.76896" lon="2.37655">
        <ele>115.97619628906</ele>
        <time>2013-06-27T11:15:09Z</time>
      </trkpt>
      <trkpt lat="47.76889" lon="2.37636">
        <ele>116.45678710938</ele>
        <time>2013-06-27T11:15:13Z</time>
      </trkpt>
      <trkpt lat="47.76886" lon="2.37624">
        <ele>116.45678710938</ele>
        <time>2013-06-27T11:15:20Z</time>
      </trkpt>
      <trkpt lat="47.76892" lon="2.37631">
        <ele>115.97619628906</ele>
        <time>2013-06-27T11:15:30Z</time>
      </trkpt>
      <trkpt lat="47.7688" lon="2.37649">
        <ele>116.45678710938</ele>
        <time>2013-06-27T11:15:44Z</time>
      </trkpt>
      <trkpt lat="47.76855" lon="2.37675">
        <ele>114.5341796875</ele>
        <time>2013-06-27T11:15:55Z</time>
      </trkpt>
      <trkpt lat="47.76829" lon="2.37693">
        <ele>115.49560546875</ele>
        <time>2013-06-27T11:16:09Z</time>
      </trkpt>
      <trkpt lat="47.76813" lon="2.377">
        <ele>115.49560546875</ele>
        <time>2013-06-27T11:16:22Z</time>
      </trkpt>
      <trkpt lat="47.76812" lon="2.377">
        <ele>115.01489257812</ele>
        <time>2013-06-27T11:16:28Z</time>
      </trkpt>
      <trkpt lat="47.7681" lon="2.37698">
        <ele>114.5341796875</ele>
        <time>2013-06-27T11:16:30Z</time>
      </trkpt>
      <trkpt lat="47.76808" lon="2.37696">
        <ele>113.09228515625</ele>
        <time>2013-06-27T11:16:46Z</time>
      </trkpt>
      <trkpt lat="47.76809" lon="2.37695">
        <ele>112.61157226562</ele>
        <time>2013-06-27T11:17:42Z</time>
      </trkpt>
      <trkpt lat="47.76842" lon="2.37679">
        <ele>112.13098144531</ele>
        <time>2013-06-27T11:17:54Z</time>
      </trkpt>
      <trkpt lat="47.76878" lon="2.3765">
        <ele>115.01489257812</ele>
        <time>2013-06-27T11:18:07Z</time>
      </trkpt>
      <trkpt lat="47.7688" lon="2.37647">
        <ele>115.01489257812</ele>
        <time>2013-06-27T11:18:08Z</time>
      </trkpt>
      <trkpt lat="47.76882" lon="2.37641">
        <ele>115.01489257812</ele>
        <time>2013-06-27T11:18:23Z</time>
      </trkpt>
      <trkpt lat="47.76883" lon="2.37641">
        <ele>115.49560546875</ele>
        <time>2013-06-27T11:18:48Z</time>
      </trkpt>
      <trkpt lat="47.7688" lon="2.37606">
        <ele>115.97619628906</ele>
        <time>2013-06-27T11:19:00Z</time>
      </trkpt>
      <trkpt lat="47.76874" lon="2.37587">
        <ele>115.97619628906</ele>
        <time>2013-06-27T11:19:03Z</time>
      </trkpt>
      <trkpt lat="47.76863" lon="2.37561">
        <ele>115.97619628906</ele>
        <time>2013-06-27T11:19:09Z</time>
      </trkpt>
      <trkpt lat="47.76854" lon="2.37569">
        <ele>115.01489257812</ele>
        <time>2013-06-27T11:19:19Z</time>
      </trkpt>
      <trkpt lat="47.76854" lon="2.37567">
        <ele>115.01489257812</ele>
        <time>2013-06-27T11:19:36Z</time>
      </trkpt>
      <trkpt lat="47.76855" lon="2.3756">
        <ele>115.01489257812</ele>
        <time>2013-06-27T11:19:40Z</time>
      </trkpt>
      <trkpt lat="47.76853" lon="2.37555">
        <ele>115.01489257812</ele>
        <time>2013-06-27T11:19:48Z</time>
      </trkpt>
      <trkpt lat="47.76855" lon="2.3755">
        <ele>115.49560546875</ele>
        <time>2013-06-27T11:19:52Z</time>
      </trkpt>
      <trkpt lat="47.76857" lon="2.37535">
        <ele>115.97619628906</ele>
        <time>2013-06-27T11:19:57Z</time>
      </trkpt>
      <trkpt lat="47.76833" lon="2.37472">
        <ele>115.49560546875</ele>
        <time>2013-06-27T11:20:12Z</time>
      </trkpt>
      <trkpt lat="47.76808" lon="2.37393">
        <ele>115.49560546875</ele>
        <time>2013-06-27T11:20:30Z</time>
      </trkpt>
      <trkpt lat="47.76808" lon="2.37394">
        <ele>115.97619628906</ele>
        <time>2013-06-27T11:20:39Z</time>
      </trkpt>
      <trkpt lat="47.76837" lon="2.37376">
        <ele>116.45678710938</ele>
        <time>2013-06-27T11:20:51Z</time>
      </trkpt>
      <trkpt lat="47.76949" lon="2.3732">
        <ele>117.41821289062</ele>
        <time>2013-06-27T11:21:16Z</time>
      </trkpt>
      <trkpt lat="47.77108" lon="2.37242">
        <ele>117.41821289062</ele>
        <time>2013-06-27T11:21:47Z</time>
      </trkpt>
      <trkpt lat="47.77201" lon="2.372">
        <ele>115.97619628906</ele>
        <time>2013-06-27T11:22:03Z</time>
      </trkpt>
      <trkpt lat="47.77226" lon="2.37204">
        <ele>115.49560546875</ele>
        <time>2013-06-27T11:22:07Z</time>
      </trkpt>
      <trkpt lat="47.77237" lon="2.37211">
        <ele>115.01489257812</ele>
        <time>2013-06-27T11:22:09Z</time>
      </trkpt>
      <trkpt lat="47.77264" lon="2.37189">
        <ele>114.05358886719</ele>
        <time>2013-06-27T11:22:15Z</time>
      </trkpt>
      <trkpt lat="47.77258" lon="2.37164">
        <ele>114.05358886719</ele>
        <time>2013-06-27T11:22:18Z</time>
      </trkpt>
      <trkpt lat="47.77251" lon="2.3715">
        <ele>114.5341796875</ele>
        <time>2013-06-27T11:22:20Z</time>
      </trkpt>
      <trkpt lat="47.77226" lon="2.37021">
        <ele>115.97619628906</ele>
        <time>2013-06-27T11:22:37Z</time>
      </trkpt>
      <trkpt lat="47.77211" lon="2.36866">
        <ele>115.97619628906</ele>
        <time>2013-06-27T11:22:57Z</time>
      </trkpt>
      <trkpt lat="47.77199" lon="2.36699">
        <ele>115.01489257812</ele>
        <time>2013-06-27T11:23:18Z</time>
      </trkpt>
      <trkpt lat="47.77181" lon="2.36433">
        <ele>115.01489257812</ele>
        <time>2013-06-27T11:23:49Z</time>
      </trkpt>
      <trkpt lat="47.77188" lon="2.36194">
        <ele>114.05358886719</ele>
        <time>2013-06-27T11:24:17Z</time>
      </trkpt>
      <trkpt lat="47.77224" lon="2.35916">
        <ele>114.05358886719</ele>
        <time>2013-06-27T11:24:50Z</time>
      </trkpt>
      <trkpt lat="47.7726" lon="2.35703">
        <ele>113.57299804688</ele>
        <time>2013-06-27T11:25:15Z</time>
      </trkpt>
      <trkpt lat="47.7733" lon="2.35478">
        <ele>112.13098144531</ele>
        <time>2013-06-27T11:25:44Z</time>
      </trkpt>
      <trkpt lat="47.77373" lon="2.35332">
        <ele>111.16955566406</ele>
        <time>2013-06-27T11:26:02Z</time>
      </trkpt>
      <trkpt lat="47.77433" lon="2.35185">
        <ele>110.68884277344</ele>
        <time>2013-06-27T11:26:20Z</time>
      </trkpt>
      <trkpt lat="47.77545" lon="2.35016">
        <ele>113.57299804688</ele>
        <time>2013-06-27T11:26:46Z</time>
      </trkpt>
      <trkpt lat="47.77667" lon="2.3486">
        <ele>114.5341796875</ele>
        <time>2013-06-27T11:27:13Z</time>
      </trkpt>
      <trkpt lat="47.77753" lon="2.34749">
        <ele>115.49560546875</ele>
        <time>2013-06-27T11:27:32Z</time>
      </trkpt>
      <trkpt lat="47.77883" lon="2.34583">
        <ele>114.05358886719</ele>
        <time>2013-06-27T11:28:01Z</time>
      </trkpt>
      <trkpt lat="47.78013" lon="2.34459">
        <ele>115.49560546875</ele>
        <time>2013-06-27T11:28:27Z</time>
      </trkpt>
      <trkpt lat="47.78153" lon="2.34318">
        <ele>115.01489257812</ele>
        <time>2013-06-27T11:28:56Z</time>
      </trkpt>
      <trkpt lat="47.78251" lon="2.34199">
        <ele>114.5341796875</ele>
        <time>2013-06-27T11:29:18Z</time>
      </trkpt>
      <trkpt lat="47.78379" lon="2.34025">
        <ele>113.57299804688</ele>
        <time>2013-06-27T11:29:47Z</time>
      </trkpt>
      <trkpt lat="47.78456" lon="2.33891">
        <ele>114.5341796875</ele>
        <time>2013-06-27T11:30:07Z</time>
      </trkpt>
      <trkpt lat="47.78523" lon="2.3377">
        <ele>114.05358886719</ele>
        <time>2013-06-27T11:30:25Z</time>
      </trkpt>
      <trkpt lat="47.78594" lon="2.3364">
        <ele>114.5341796875</ele>
        <time>2013-06-27T11:30:45Z</time>
      </trkpt>
      <trkpt lat="47.78607" lon="2.33606">
        <ele>114.5341796875</ele>
        <time>2013-06-27T11:30:56Z</time>
      </trkpt>
      <trkpt lat="47.78607" lon="2.33606">
        <ele>114.5341796875</ele>
        <time>2013-06-27T11:31:02Z</time>
      </trkpt>
      <trkpt lat="47.78632" lon="2.33573">
        <ele>114.05358886719</ele>
        <time>2013-06-27T11:31:13Z</time>
      </trkpt>
      <trkpt lat="47.78695" lon="2.33466">
        <ele>114.5341796875</ele>
        <time>2013-06-27T11:31:30Z</time>
      </trkpt>
      <trkpt lat="47.78716" lon="2.33434">
        <ele>114.05358886719</ele>
        <time>2013-06-27T11:31:39Z</time>
      </trkpt>
      <trkpt lat="47.78718" lon="2.33432">
        <ele>114.05358886719</ele>
        <time>2013-06-27T11:31:52Z</time>
      </trkpt>
      <trkpt lat="47.78717" lon="2.33431">
        <ele>114.05358886719</ele>
        <time>2013-06-27T11:31:54Z</time>
      </trkpt>
      <trkpt lat="47.7872" lon="2.33423">
        <ele>114.05358886719</ele>
        <time>2013-06-27T11:31:58Z</time>
      </trkpt>
      <trkpt lat="47.78766" lon="2.33363">
        <ele>111.65026855469</ele>
        <time>2013-06-27T11:32:11Z</time>
      </trkpt>
      <trkpt lat="47.78865" lon="2.3325">
        <ele>110.20825195312</ele>
        <time>2013-06-27T11:32:30Z</time>
      </trkpt>
      <trkpt lat="47.78965" lon="2.33098">
        <ele>109.72766113281</ele>
        <time>2013-06-27T11:32:54Z</time>
      </trkpt>
      <trkpt lat="47.7909" lon="2.32871">
        <ele>110.20825195312</ele>
        <time>2013-06-27T11:33:27Z</time>
      </trkpt>
      <trkpt lat="47.79202" lon="2.3266">
        <ele>109.72766113281</ele>
        <time>2013-06-27T11:33:57Z</time>
      </trkpt>
      <trkpt lat="47.79309" lon="2.32432">
        <ele>109.72766113281</ele>
        <time>2013-06-27T11:34:27Z</time>
      </trkpt>
      <trkpt lat="47.79414" lon="2.32269">
        <ele>110.20825195312</ele>
        <time>2013-06-27T11:34:53Z</time>
      </trkpt>
      <trkpt lat="47.79507" lon="2.32142">
        <ele>109.24694824219</ele>
        <time>2013-06-27T11:35:15Z</time>
      </trkpt>
      <trkpt lat="47.79642" lon="2.31967">
        <ele>107.80505371094</ele>
        <time>2013-06-27T11:35:45Z</time>
      </trkpt>
      <trkpt lat="47.79772" lon="2.31848">
        <ele>106.84362792969</ele>
        <time>2013-06-27T11:36:10Z</time>
      </trkpt>
      <trkpt lat="47.79858" lon="2.31738">
        <ele>107.32434082031</ele>
        <time>2013-06-27T11:36:29Z</time>
      </trkpt>
      <trkpt lat="47.79954" lon="2.31537">
        <ele>106.84362792969</ele>
        <time>2013-06-27T11:36:56Z</time>
      </trkpt>
      <trkpt lat="47.80056" lon="2.31323">
        <ele>107.80505371094</ele>
        <time>2013-06-27T11:37:25Z</time>
      </trkpt>
      <trkpt lat="47.8014" lon="2.31153">
        <ele>107.80505371094</ele>
        <time>2013-06-27T11:37:48Z</time>
      </trkpt>
      <trkpt lat="47.80223" lon="2.31066">
        <ele>106.84362792969</ele>
        <time>2013-06-27T11:38:04Z</time>
      </trkpt>
      <trkpt lat="47.80326" lon="2.31032">
        <ele>106.36303710938</ele>
        <time>2013-06-27T11:38:21Z</time>
      </trkpt>
      <trkpt lat="47.80433" lon="2.31059">
        <ele>106.36303710938</ele>
        <time>2013-06-27T11:38:39Z</time>
      </trkpt>
      <trkpt lat="47.80573" lon="2.31117">
        <ele>107.80505371094</ele>
        <time>2013-06-27T11:39:02Z</time>
      </trkpt>
      <trkpt lat="47.80686" lon="2.31143">
        <ele>109.72766113281</ele>
        <time>2013-06-27T11:39:20Z</time>
      </trkpt>
      <trkpt lat="47.80753" lon="2.31099">
        <ele>109.24694824219</ele>
        <time>2013-06-27T11:39:32Z</time>
      </trkpt>
      <trkpt lat="47.80783" lon="2.31047">
        <ele>109.24694824219</ele>
        <time>2013-06-27T11:39:40Z</time>
      </trkpt>
      <trkpt lat="47.80837" lon="2.30918">
        <ele>109.72766113281</ele>
        <time>2013-06-27T11:39:57Z</time>
      </trkpt>
      <trkpt lat="47.80911" lon="2.30798">
        <ele>110.20825195312</ele>
        <time>2013-06-27T11:40:16Z</time>
      </trkpt>
      <trkpt lat="47.80939" lon="2.30756">
        <ele>110.68884277344</ele>
        <time>2013-06-27T11:40:23Z</time>
      </trkpt>
      <trkpt lat="47.80958" lon="2.30747">
        <ele>109.72766113281</ele>
        <time>2013-06-27T11:40:27Z</time>
      </trkpt>
      <trkpt lat="47.80989" lon="2.30728">
        <ele>109.72766113281</ele>
        <time>2013-06-27T11:40:33Z</time>
      </trkpt>
      <trkpt lat="47.81039" lon="2.30613">
        <ele>111.65026855469</ele>
        <time>2013-06-27T11:40:50Z</time>
      </trkpt>
      <trkpt lat="47.8105" lon="2.30582">
        <ele>111.65026855469</ele>
        <time>2013-06-27T11:40:54Z</time>
      </trkpt>
      <trkpt lat="47.81067" lon="2.30548">
        <ele>112.13098144531</ele>
        <time>2013-06-27T11:40:59Z</time>
      </trkpt>
      <trkpt lat="47.81168" lon="2.30435">
        <ele>109.72766113281</ele>
        <time>2013-06-27T11:41:20Z</time>
      </trkpt>
      <trkpt lat="47.81255" lon="2.30331">
        <ele>108.76623535156</ele>
        <time>2013-06-27T11:41:37Z</time>
      </trkpt>
      <trkpt lat="47.81381" lon="2.30185">
        <ele>106.84362792969</ele>
        <time>2013-06-27T11:42:01Z</time>
      </trkpt>
      <trkpt lat="47.81458" lon="2.30089">
        <ele>106.84362792969</ele>
        <time>2013-06-27T11:42:16Z</time>
      </trkpt>
      <trkpt lat="47.81582" lon="2.30028">
        <ele>108.28564453125</ele>
        <time>2013-06-27T11:42:36Z</time>
      </trkpt>
      <trkpt lat="47.81595" lon="2.30023">
        <ele>108.28564453125</ele>
        <time>2013-06-27T11:42:38Z</time>
      </trkpt>
      <trkpt lat="47.8169" lon="2.30018">
        <ele>108.76623535156</ele>
        <time>2013-06-27T11:42:54Z</time>
      </trkpt>
      <trkpt lat="47.81812" lon="2.30013">
        <ele>108.76623535156</ele>
        <time>2013-06-27T11:43:14Z</time>
      </trkpt>
      <trkpt lat="47.81907" lon="2.29965">
        <ele>108.28564453125</ele>
        <time>2013-06-27T11:43:30Z</time>
      </trkpt>
      <trkpt lat="47.82084" lon="2.29878">
        <ele>108.76623535156</ele>
        <time>2013-06-27T11:43:59Z</time>
      </trkpt>
      <trkpt lat="47.82218" lon="2.298">
        <ele>108.28564453125</ele>
        <time>2013-06-27T11:44:21Z</time>
      </trkpt>
      <trkpt lat="47.82378" lon="2.29684">
        <ele>108.28564453125</ele>
        <time>2013-06-27T11:44:49Z</time>
      </trkpt>
      <trkpt lat="47.82508" lon="2.2949">
        <ele>106.84362792969</ele>
        <time>2013-06-27T11:45:18Z</time>
      </trkpt>
      <trkpt lat="47.82639" lon="2.29296">
        <ele>107.32434082031</ele>
        <time>2013-06-27T11:45:47Z</time>
      </trkpt>
      <trkpt lat="47.82784" lon="2.2908">
        <ele>106.84362792969</ele>
        <time>2013-06-27T11:46:20Z</time>
      </trkpt>
      <trkpt lat="47.82907" lon="2.28888">
        <ele>106.84362792969</ele>
        <time>2013-06-27T11:46:49Z</time>
      </trkpt>
      <trkpt lat="47.82971" lon="2.28749">
        <ele>105.88244628906</ele>
        <time>2013-06-27T11:47:06Z</time>
      </trkpt>
      <trkpt lat="47.83075" lon="2.28533">
        <ele>104.4404296875</ele>
        <time>2013-06-27T11:47:34Z</time>
      </trkpt>
      <trkpt lat="47.83118" lon="2.2834">
        <ele>103.47900390625</ele>
        <time>2013-06-27T11:47:55Z</time>
      </trkpt>
      <trkpt lat="47.83162" lon="2.28192">
        <ele>100.59509277344</ele>
        <time>2013-06-27T11:48:11Z</time>
      </trkpt>
      <trkpt lat="47.83199" lon="2.28065">
        <ele>102.037109375</ele>
        <time>2013-06-27T11:48:24Z</time>
      </trkpt>
      <trkpt lat="47.83203" lon="2.27842">
        <ele>102.51770019531</ele>
        <time>2013-06-27T11:48:46Z</time>
      </trkpt>
      <trkpt lat="47.83228" lon="2.27672">
        <ele>102.51770019531</ele>
        <time>2013-06-27T11:49:04Z</time>
      </trkpt>
      <trkpt lat="47.83283" lon="2.2754">
        <ele>102.037109375</ele>
        <time>2013-06-27T11:49:20Z</time>
      </trkpt>
      <trkpt lat="47.83366" lon="2.27444">
        <ele>102.99829101562</ele>
        <time>2013-06-27T11:49:36Z</time>
      </trkpt>
      <trkpt lat="47.83484" lon="2.2737">
        <ele>103.95971679688</ele>
        <time>2013-06-27T11:49:56Z</time>
      </trkpt>
      <trkpt lat="47.83578" lon="2.27236">
        <ele>104.92102050781</ele>
        <time>2013-06-27T11:50:16Z</time>
      </trkpt>
      <trkpt lat="47.83639" lon="2.27077">
        <ele>104.4404296875</ele>
        <time>2013-06-27T11:50:34Z</time>
      </trkpt>
      <trkpt lat="47.83723" lon="2.26873">
        <ele>102.99829101562</ele>
        <time>2013-06-27T11:50:58Z</time>
      </trkpt>
      <trkpt lat="47.83745" lon="2.26851">
        <ele>102.99829101562</ele>
        <time>2013-06-27T11:51:02Z</time>
      </trkpt>
      <trkpt lat="47.83835" lon="2.26827">
        <ele>103.47900390625</ele>
        <time>2013-06-27T11:51:16Z</time>
      </trkpt>
      <trkpt lat="47.83971" lon="2.26824">
        <ele>103.47900390625</ele>
        <time>2013-06-27T11:51:37Z</time>
      </trkpt>
      <trkpt lat="47.84095" lon="2.26774">
        <ele>105.88244628906</ele>
        <time>2013-06-27T11:51:57Z</time>
      </trkpt>
      <trkpt lat="47.8417" lon="2.26715">
        <ele>105.40173339844</ele>
        <time>2013-06-27T11:52:11Z</time>
      </trkpt>
      <trkpt lat="47.84224" lon="2.26665">
        <ele>104.92102050781</ele>
        <time>2013-06-27T11:52:27Z</time>
      </trkpt>
      <trkpt lat="47.84262" lon="2.26637">
        <ele>103.95971679688</ele>
        <time>2013-06-27T11:52:39Z</time>
      </trkpt>
      <trkpt lat="47.84272" lon="2.26632">
        <ele>103.95971679688</ele>
        <time>2013-06-27T11:52:41Z</time>
      </trkpt>
      <trkpt lat="47.84355" lon="2.26634">
        <ele>104.92102050781</ele>
        <time>2013-06-27T11:52:56Z</time>
      </trkpt>
      <trkpt lat="47.84378" lon="2.26636">
        <ele>104.92102050781</ele>
        <time>2013-06-27T11:53:00Z</time>
      </trkpt>
      <trkpt lat="47.84503" lon="2.26632">
        <ele>104.92102050781</ele>
        <time>2013-06-27T11:53:22Z</time>
      </trkpt>
      <trkpt lat="47.84559" lon="2.2663">
        <ele>105.88244628906</ele>
        <time>2013-06-27T11:53:32Z</time>
      </trkpt>
      <trkpt lat="47.84588" lon="2.26601">
        <ele>106.36303710938</ele>
        <time>2013-06-27T11:53:39Z</time>
      </trkpt>
      <trkpt lat="47.84624" lon="2.2644">
        <ele>106.36303710938</ele>
        <time>2013-06-27T11:53:58Z</time>
      </trkpt>
      <trkpt lat="47.84675" lon="2.26331">
        <ele>106.36303710938</ele>
        <time>2013-06-27T11:54:12Z</time>
      </trkpt>
      <trkpt lat="47.84743" lon="2.26207">
        <ele>105.88244628906</ele>
        <time>2013-06-27T11:54:31Z</time>
      </trkpt>
      <trkpt lat="47.84748" lon="2.26204">
        <ele>106.36303710938</ele>
        <time>2013-06-27T11:54:37Z</time>
      </trkpt>
      <trkpt lat="47.84759" lon="2.26189">
        <ele>105.40173339844</ele>
        <time>2013-06-27T11:54:52Z</time>
      </trkpt>
      <trkpt lat="47.84759" lon="2.26188">
        <ele>104.92102050781</ele>
        <time>2013-06-27T11:55:14Z</time>
      </trkpt>
      <trkpt lat="47.8476" lon="2.26181">
        <ele>104.4404296875</ele>
        <time>2013-06-27T11:55:47Z</time>
      </trkpt>
      <trkpt lat="47.84777" lon="2.26147">
        <ele>103.95971679688</ele>
        <time>2013-06-27T11:55:57Z</time>
      </trkpt>
      <trkpt lat="47.84831" lon="2.26051">
        <ele>103.95971679688</ele>
        <time>2013-06-27T11:56:15Z</time>
      </trkpt>
      <trkpt lat="47.84898" lon="2.25932">
        <ele>102.99829101562</ele>
        <time>2013-06-27T11:56:34Z</time>
      </trkpt>
      <trkpt lat="47.84957" lon="2.25795">
        <ele>103.47900390625</ele>
        <time>2013-06-27T11:56:53Z</time>
      </trkpt>
      <trkpt lat="47.85028" lon="2.25601">
        <ele>102.99829101562</ele>
        <time>2013-06-27T11:57:17Z</time>
      </trkpt>
      <trkpt lat="47.85108" lon="2.25423">
        <ele>102.99829101562</ele>
        <time>2013-06-27T11:57:40Z</time>
      </trkpt>
      <trkpt lat="47.85238" lon="2.25198">
        <ele>102.99829101562</ele>
        <time>2013-06-27T11:58:12Z</time>
      </trkpt>
      <trkpt lat="47.85334" lon="2.2503">
        <ele>102.99829101562</ele>
        <time>2013-06-27T11:58:34Z</time>
      </trkpt>
      <trkpt lat="47.85423" lon="2.24876">
        <ele>102.037109375</ele>
        <time>2013-06-27T11:58:54Z</time>
      </trkpt>
      <trkpt lat="47.85546" lon="2.24687">
        <ele>101.55639648438</ele>
        <time>2013-06-27T11:59:20Z</time>
      </trkpt>
      <trkpt lat="47.85659" lon="2.24593">
        <ele>104.4404296875</ele>
        <time>2013-06-27T11:59:41Z</time>
      </trkpt>
      <trkpt lat="47.85813" lon="2.24456">
        <ele>107.80505371094</ele>
        <time>2013-06-27T12:00:12Z</time>
      </trkpt>
      <trkpt lat="47.859" lon="2.24376">
        <ele>113.09228515625</ele>
        <time>2013-06-27T12:00:32Z</time>
      </trkpt>
      <trkpt lat="47.85955" lon="2.24307">
        <ele>117.41821289062</ele>
        <time>2013-06-27T12:00:49Z</time>
      </trkpt>
      <trkpt lat="47.85984" lon="2.24183">
        <ele>118.37939453125</ele>
        <time>2013-06-27T12:01:07Z</time>
      </trkpt>
      <trkpt lat="47.86021" lon="2.23983">
        <ele>119.82141113281</ele>
        <time>2013-06-27T12:01:33Z</time>
      </trkpt>
      <trkpt lat="47.86037" lon="2.23907">
        <ele>119.82141113281</ele>
        <time>2013-06-27T12:01:43Z</time>
      </trkpt>
      <trkpt lat="47.86044" lon="2.23893">
        <ele>119.82141113281</ele>
        <time>2013-06-27T12:01:45Z</time>
      </trkpt>
      <trkpt lat="47.8608" lon="2.23857">
        <ele>118.86010742188</ele>
        <time>2013-06-27T12:01:56Z</time>
      </trkpt>
      <trkpt lat="47.86084" lon="2.23845">
        <ele>118.86010742188</ele>
        <time>2013-06-27T12:02:11Z</time>
      </trkpt>
      <trkpt lat="47.86082" lon="2.23788">
        <ele>118.86010742188</ele>
        <time>2013-06-27T12:02:21Z</time>
      </trkpt>
      <trkpt lat="47.86073" lon="2.23655">
        <ele>118.86010742188</ele>
        <time>2013-06-27T12:02:37Z</time>
      </trkpt>
      <trkpt lat="47.86068" lon="2.2347">
        <ele>117.89880371094</ele>
        <time>2013-06-27T12:02:58Z</time>
      </trkpt>
      <trkpt lat="47.86099" lon="2.23311">
        <ele>118.86010742188</ele>
        <time>2013-06-27T12:03:16Z</time>
      </trkpt>
      <trkpt lat="47.86157" lon="2.23058">
        <ele>118.86010742188</ele>
        <time>2013-06-27T12:03:45Z</time>
      </trkpt>
      <trkpt lat="47.86198" lon="2.22871">
        <ele>119.82141113281</ele>
        <time>2013-06-27T12:04:06Z</time>
      </trkpt>
      <trkpt lat="47.86259" lon="2.22603">
        <ele>117.89880371094</ele>
        <time>2013-06-27T12:04:36Z</time>
      </trkpt>
      <trkpt lat="47.86319" lon="2.22344">
        <ele>120.30212402344</ele>
        <time>2013-06-27T12:05:06Z</time>
      </trkpt>
      <trkpt lat="47.86333" lon="2.22268">
        <ele>119.82141113281</ele>
        <time>2013-06-27T12:05:17Z</time>
      </trkpt>
      <trkpt lat="47.86342" lon="2.22264">
        <ele>119.3408203125</ele>
        <time>2013-06-27T12:05:24Z</time>
      </trkpt>
      <trkpt lat="47.86341" lon="2.22265">
        <ele>118.37939453125</ele>
        <time>2013-06-27T12:06:16Z</time>
      </trkpt>
      <trkpt lat="47.86366" lon="2.22268">
        <ele>118.37939453125</ele>
        <time>2013-06-27T12:06:25Z</time>
      </trkpt>
      <trkpt lat="47.86422" lon="2.22277">
        <ele>118.86010742188</ele>
        <time>2013-06-27T12:06:37Z</time>
      </trkpt>
      <trkpt lat="47.86448" lon="2.2228">
        <ele>118.86010742188</ele>
        <time>2013-06-27T12:06:48Z</time>
      </trkpt>
      <trkpt lat="47.86447" lon="2.2228">
        <ele>118.37939453125</ele>
        <time>2013-06-27T12:08:28Z</time>
      </trkpt>
      <trkpt lat="47.86459" lon="2.2225">
        <ele>118.37939453125</ele>
        <time>2013-06-27T12:08:44Z</time>
      </trkpt>
      <trkpt lat="47.86471" lon="2.22179">
        <ele>117.41821289062</ele>
        <time>2013-06-27T12:09:00Z</time>
      </trkpt>
      <trkpt lat="47.86475" lon="2.22144">
        <ele>117.41821289062</ele>
        <time>2013-06-27T12:09:09Z</time>
      </trkpt>
      <trkpt lat="47.86485" lon="2.22138">
        <ele>116.45678710938</ele>
        <time>2013-06-27T12:09:19Z</time>
      </trkpt>
      <trkpt lat="47.86512" lon="2.2214">
        <ele>116.45678710938</ele>
        <time>2013-06-27T12:09:30Z</time>
      </trkpt>
      <trkpt lat="47.86525" lon="2.22139">
        <ele>116.45678710938</ele>
        <time>2013-06-27T12:09:34Z</time>
      </trkpt>
      <trkpt lat="47.86526" lon="2.22121">
        <ele>116.45678710938</ele>
        <time>2013-06-27T12:09:38Z</time>
      </trkpt>
      <trkpt lat="47.86522" lon="2.2211">
        <ele>116.45678710938</ele>
        <time>2013-06-27T12:09:40Z</time>
      </trkpt>
      <trkpt lat="47.86482" lon="2.22018">
        <ele>116.9375</ele>
        <time>2013-06-27T12:09:56Z</time>
      </trkpt>
      <trkpt lat="47.86472" lon="2.22004">
        <ele>115.49560546875</ele>
        <time>2013-06-27T12:09:59Z</time>
      </trkpt>
      <trkpt lat="47.86435" lon="2.21961">
        <ele>118.37939453125</ele>
        <time>2013-06-27T12:10:13Z</time>
      </trkpt>
      <trkpt lat="47.86432" lon="2.21963">
        <ele>118.37939453125</ele>
        <time>2013-06-27T12:10:18Z</time>
      </trkpt>
      <trkpt lat="47.86441" lon="2.21973">
        <ele>118.37939453125</ele>
        <time>2013-06-27T12:10:23Z</time>
      </trkpt>
      <trkpt lat="47.86454" lon="2.21971">
        <ele>117.89880371094</ele>
        <time>2013-06-27T12:10:27Z</time>
      </trkpt>
      <trkpt lat="47.86479" lon="2.21948">
        <ele>118.37939453125</ele>
        <time>2013-06-27T12:10:33Z</time>
      </trkpt>
      <trkpt lat="47.86493" lon="2.21929">
        <ele>118.86010742188</ele>
        <time>2013-06-27T12:10:37Z</time>
      </trkpt>
      <trkpt lat="47.86523" lon="2.21857">
        <ele>118.86010742188</ele>
        <time>2013-06-27T12:10:52Z</time>
      </trkpt>
      <trkpt lat="47.86529" lon="2.21844">
        <ele>118.37939453125</ele>
        <time>2013-06-27T12:11:01Z</time>
      </trkpt>
      <trkpt lat="47.86535" lon="2.21818">
        <ele>117.41821289062</ele>
        <time>2013-06-27T12:11:28Z</time>
      </trkpt>
      <trkpt lat="47.86537" lon="2.21701">
        <ele>116.9375</ele>
        <time>2013-06-27T12:11:43Z</time>
      </trkpt>
      <trkpt lat="47.86537" lon="2.2159">
        <ele>115.97619628906</ele>
        <time>2013-06-27T12:11:56Z</time>
      </trkpt>
      <trkpt lat="47.86538" lon="2.21564">
        <ele>115.97619628906</ele>
        <time>2013-06-27T12:11:59Z</time>
      </trkpt>
      <trkpt lat="47.8653" lon="2.21532">
        <ele>115.49560546875</ele>
        <time>2013-06-27T12:12:03Z</time>
      </trkpt>
      <trkpt lat="47.86511" lon="2.21474">
        <ele>114.05358886719</ele>
        <time>2013-06-27T12:12:10Z</time>
      </trkpt>
      <trkpt lat="47.86508" lon="2.21428">
        <ele>114.05358886719</ele>
        <time>2013-06-27T12:12:15Z</time>
      </trkpt>
      <trkpt lat="47.86512" lon="2.21204">
        <ele>112.61157226562</ele>
        <time>2013-06-27T12:12:40Z</time>
      </trkpt>
      <trkpt lat="47.86486" lon="2.21073">
        <ele>114.05358886719</ele>
        <time>2013-06-27T12:12:56Z</time>
      </trkpt>
      <trkpt lat="47.86438" lon="2.20888">
        <ele>113.09228515625</ele>
        <time>2013-06-27T12:13:18Z</time>
      </trkpt>
      <trkpt lat="47.86349" lon="2.20671">
        <ele>110.68884277344</ele>
        <time>2013-06-27T12:13:42Z</time>
      </trkpt>
      <trkpt lat="47.86266" lon="2.20474">
        <ele>109.72766113281</ele>
        <time>2013-06-27T12:14:05Z</time>
      </trkpt>
      <trkpt lat="47.86202" lon="2.20317">
        <ele>109.72766113281</ele>
        <time>2013-06-27T12:14:24Z</time>
      </trkpt>
      <trkpt lat="47.86185" lon="2.20249">
        <ele>110.20825195312</ele>
        <time>2013-06-27T12:14:32Z</time>
      </trkpt>
      <trkpt lat="47.86187" lon="2.20213">
        <ele>110.20825195312</ele>
        <time>2013-06-27T12:14:36Z</time>
      </trkpt>
      <trkpt lat="47.86174" lon="2.20172">
        <ele>110.20825195312</ele>
        <time>2013-06-27T12:14:41Z</time>
      </trkpt>
      <trkpt lat="47.86162" lon="2.20119">
        <ele>110.20825195312</ele>
        <time>2013-06-27T12:14:47Z</time>
      </trkpt>
      <trkpt lat="47.86136" lon="2.19904">
        <ele>112.61157226562</ele>
        <time>2013-06-27T12:15:10Z</time>
      </trkpt>
      <trkpt lat="47.86115" lon="2.19644">
        <ele>114.05358886719</ele>
        <time>2013-06-27T12:15:41Z</time>
      </trkpt>
      <trkpt lat="47.86102" lon="2.19475">
        <ele>113.57299804688</ele>
        <time>2013-06-27T12:15:59Z</time>
      </trkpt>
      <trkpt lat="47.86075" lon="2.19165">
        <ele>116.45678710938</ele>
        <time>2013-06-27T12:16:31Z</time>
      </trkpt>
      <trkpt lat="47.86048" lon="2.18866">
        <ele>114.05358886719</ele>
        <time>2013-06-27T12:16:59Z</time>
      </trkpt>
      <trkpt lat="47.86026" lon="2.18628">
        <ele>115.01489257812</ele>
        <time>2013-06-27T12:17:23Z</time>
      </trkpt>
      <trkpt lat="47.86011" lon="2.18394">
        <ele>115.01489257812</ele>
        <time>2013-06-27T12:17:46Z</time>
      </trkpt>
      <trkpt lat="47.86013" lon="2.18169">
        <ele>113.09228515625</ele>
        <time>2013-06-27T12:18:07Z</time>
      </trkpt>
      <trkpt lat="47.8602" lon="2.17928">
        <ele>114.05358886719</ele>
        <time>2013-06-27T12:18:31Z</time>
      </trkpt>
      <trkpt lat="47.86039" lon="2.17733">
        <ele>115.01489257812</ele>
        <time>2013-06-27T12:18:52Z</time>
      </trkpt>
      <trkpt lat="47.86067" lon="2.17525">
        <ele>114.5341796875</ele>
        <time>2013-06-27T12:19:12Z</time>
      </trkpt>
      <trkpt lat="47.861" lon="2.17297">
        <ele>110.68884277344</ele>
        <time>2013-06-27T12:19:33Z</time>
      </trkpt>
      <trkpt lat="47.8614" lon="2.17004">
        <ele>106.84362792969</ele>
        <time>2013-06-27T12:19:59Z</time>
      </trkpt>
      <trkpt lat="47.86163" lon="2.16802">
        <ele>106.84362792969</ele>
        <time>2013-06-27T12:20:21Z</time>
      </trkpt>
      <trkpt lat="47.86183" lon="2.16609">
        <ele>110.20825195312</ele>
        <time>2013-06-27T12:20:46Z</time>
      </trkpt>
      <trkpt lat="47.86198" lon="2.16473">
        <ele>111.65026855469</ele>
        <time>2013-06-27T12:21:03Z</time>
      </trkpt>
      <trkpt lat="47.86219" lon="2.16295">
        <ele>110.68884277344</ele>
        <time>2013-06-27T12:21:24Z</time>
      </trkpt>
      <trkpt lat="47.86235" lon="2.16142">
        <ele>115.49560546875</ele>
        <time>2013-06-27T12:21:42Z</time>
      </trkpt>
      <trkpt lat="47.8626" lon="2.15923">
        <ele>118.86010742188</ele>
        <time>2013-06-27T12:22:08Z</time>
      </trkpt>
      <trkpt lat="47.86274" lon="2.15757">
        <ele>119.82141113281</ele>
        <time>2013-06-27T12:22:27Z</time>
      </trkpt>
      <trkpt lat="47.86274" lon="2.15748">
        <ele>119.3408203125</ele>
        <time>2013-06-27T12:22:28Z</time>
      </trkpt>
      <trkpt lat="47.86318" lon="2.15581">
        <ele>113.09228515625</ele>
        <time>2013-06-27T12:22:45Z</time>
      </trkpt>
      <trkpt lat="47.86383" lon="2.15337">
        <ele>106.36303710938</ele>
        <time>2013-06-27T12:23:07Z</time>
      </trkpt>
      <trkpt lat="47.86454" lon="2.15123">
        <ele>101.55639648438</ele>
        <time>2013-06-27T12:23:27Z</time>
      </trkpt>
      <trkpt lat="47.86524" lon="2.14925">
        <ele>102.037109375</ele>
        <time>2013-06-27T12:23:48Z</time>
      </trkpt>
      <trkpt lat="47.86588" lon="2.14741">
        <ele>106.36303710938</ele>
        <time>2013-06-27T12:24:13Z</time>
      </trkpt>
      <trkpt lat="47.86642" lon="2.14585">
        <ele>107.32434082031</ele>
        <time>2013-06-27T12:24:36Z</time>
      </trkpt>
      <trkpt lat="47.86647" lon="2.14572">
        <ele>107.32434082031</ele>
        <time>2013-06-27T12:24:38Z</time>
      </trkpt>
      <trkpt lat="47.86684" lon="2.14464">
        <ele>109.24694824219</ele>
        <time>2013-06-27T12:24:54Z</time>
      </trkpt>
      <trkpt lat="47.86686" lon="2.14458">
        <ele>109.24694824219</ele>
        <time>2013-06-27T12:24:55Z</time>
      </trkpt>
      <trkpt lat="47.8672" lon="2.14368">
        <ele>111.16955566406</ele>
        <time>2013-06-27T12:25:09Z</time>
      </trkpt>
      <trkpt lat="47.86782" lon="2.14205">
        <ele>112.61157226562</ele>
        <time>2013-06-27T12:25:32Z</time>
      </trkpt>
      <trkpt lat="47.86878" lon="2.13941">
        <ele>112.13098144531</ele>
        <time>2013-06-27T12:26:06Z</time>
      </trkpt>
      <trkpt lat="47.86955" lon="2.13723">
        <ele>113.09228515625</ele>
        <time>2013-06-27T12:26:33Z</time>
      </trkpt>
      <trkpt lat="47.87032" lon="2.13482">
        <ele>115.49560546875</ele>
        <time>2013-06-27T12:27:04Z</time>
      </trkpt>
      <trkpt lat="47.87097" lon="2.13294">
        <ele>114.05358886719</ele>
        <time>2013-06-27T12:27:28Z</time>
      </trkpt>
      <trkpt lat="47.87165" lon="2.13079">
        <ele>113.57299804688</ele>
        <time>2013-06-27T12:27:54Z</time>
      </trkpt>
      <trkpt lat="47.87224" lon="2.12854">
        <ele>113.09228515625</ele>
        <time>2013-06-27T12:28:21Z</time>
      </trkpt>
      <trkpt lat="47.87256" lon="2.12717">
        <ele>112.13098144531</ele>
        <time>2013-06-27T12:28:37Z</time>
      </trkpt>
      <trkpt lat="47.8724" lon="2.12679">
        <ele>112.13098144531</ele>
        <time>2013-06-27T12:28:43Z</time>
      </trkpt>
      <trkpt lat="47.87179" lon="2.12656">
        <ele>111.16955566406</ele>
        <time>2013-06-27T12:28:57Z</time>
      </trkpt>
      <trkpt lat="47.871" lon="2.12621">
        <ele>109.24694824219</ele>
        <time>2013-06-27T12:29:11Z</time>
      </trkpt>
      <trkpt lat="47.87004" lon="2.12566">
        <ele>104.92102050781</ele>
        <time>2013-06-27T12:29:23Z</time>
      </trkpt>
      <trkpt lat="47.86897" lon="2.12504">
        <ele>104.4404296875</ele>
        <time>2013-06-27T12:29:40Z</time>
      </trkpt>
      <trkpt lat="47.86808" lon="2.12454">
        <ele>102.51770019531</ele>
        <time>2013-06-27T12:29:56Z</time>
      </trkpt>
      <trkpt lat="47.86745" lon="2.12415">
        <ele>100.11450195312</ele>
        <time>2013-06-27T12:30:08Z</time>
      </trkpt>
      <trkpt lat="47.86747" lon="2.12398">
        <ele>100.11450195312</ele>
        <time>2013-06-27T12:30:15Z</time>
      </trkpt>
      <trkpt lat="47.86757" lon="2.12403">
        <ele>100.59509277344</ele>
        <time>2013-06-27T12:30:18Z</time>
      </trkpt>
      <trkpt lat="47.8676" lon="2.12419">
        <ele>101.07568359375</ele>
        <time>2013-06-27T12:30:22Z</time>
      </trkpt>
      <trkpt lat="47.86791" lon="2.12441">
        <ele>102.037109375</ele>
        <time>2013-06-27T12:30:31Z</time>
      </trkpt>
      <trkpt lat="47.86821" lon="2.12457">
        <ele>102.51770019531</ele>
        <time>2013-06-27T12:30:42Z</time>
      </trkpt>
      <trkpt lat="47.8682" lon="2.12457">
        <ele>102.99829101562</ele>
        <time>2013-06-27T12:31:07Z</time>
      </trkpt>
      <trkpt lat="47.86783" lon="2.12437">
        <ele>101.55639648438</ele>
        <time>2013-06-27T12:31:18Z</time>
      </trkpt>
      <trkpt lat="47.86762" lon="2.12424">
        <ele>100.59509277344</ele>
        <time>2013-06-27T12:31:23Z</time>
      </trkpt>
      <trkpt lat="47.86761" lon="2.12415">
        <ele>100.11450195312</ele>
        <time>2013-06-27T12:31:34Z</time>
      </trkpt>
      <trkpt lat="47.86761" lon="2.12415">
        <ele>100.11450195312</ele>
        <time>2013-06-27T12:31:49Z</time>
      </trkpt>
      <trkpt lat="47.86756" lon="2.12406">
        <ele>99.153076171875</ele>
        <time>2013-06-27T12:31:54Z</time>
      </trkpt>
      <trkpt lat="47.86741" lon="2.12398">
        <ele>98.19189453125</ele>
        <time>2013-06-27T12:32:02Z</time>
      </trkpt>
      <trkpt lat="47.86742" lon="2.1238">
        <ele>98.672485351562</ele>
        <time>2013-06-27T12:32:07Z</time>
      </trkpt>
      <trkpt lat="47.86759" lon="2.12284">
        <ele>99.6337890625</ele>
        <time>2013-06-27T12:32:21Z</time>
      </trkpt>
      <trkpt lat="47.86769" lon="2.12238">
        <ele>99.6337890625</ele>
        <time>2013-06-27T12:32:28Z</time>
      </trkpt>
      <trkpt lat="47.86785" lon="2.121">
        <ele>101.55639648438</ele>
        <time>2013-06-27T12:32:48Z</time>
      </trkpt>
      <trkpt lat="47.86784" lon="2.12067">
        <ele>102.037109375</ele>
        <time>2013-06-27T12:32:55Z</time>
      </trkpt>
      <trkpt lat="47.86746" lon="2.12028">
        <ele>100.11450195312</ele>
        <time>2013-06-27T12:33:06Z</time>
      </trkpt>
      <trkpt lat="47.86745" lon="2.12035">
        <ele>101.07568359375</ele>
        <time>2013-06-27T12:33:10Z</time>
      </trkpt>
      <trkpt lat="47.86769" lon="2.12055">
        <ele>101.55639648438</ele>
        <time>2013-06-27T12:33:15Z</time>
      </trkpt>
      <trkpt lat="47.8678" lon="2.12068">
        <ele>101.55639648438</ele>
        <time>2013-06-27T12:33:18Z</time>
      </trkpt>
      <trkpt lat="47.86791" lon="2.12059">
        <ele>102.037109375</ele>
        <time>2013-06-27T12:33:22Z</time>
      </trkpt>
      <trkpt lat="47.86809" lon="2.12051">
        <ele>102.51770019531</ele>
        <time>2013-06-27T12:33:31Z</time>
      </trkpt>
      <trkpt lat="47.86808" lon="2.1205">
        <ele>102.037109375</ele>
        <time>2013-06-27T12:33:39Z</time>
      </trkpt>
      <trkpt lat="47.8679" lon="2.12047">
        <ele>101.55639648438</ele>
        <time>2013-06-27T12:33:49Z</time>
      </trkpt>
      <trkpt lat="47.86786" lon="2.1196">
        <ele>101.55639648438</ele>
        <time>2013-06-27T12:34:04Z</time>
      </trkpt>
      <trkpt lat="47.86786" lon="2.11955">
        <ele>101.55639648438</ele>
        <time>2013-06-27T12:34:05Z</time>
      </trkpt>
      <trkpt lat="47.86785" lon="2.11974">
        <ele>102.037109375</ele>
        <time>2013-06-27T12:34:14Z</time>
      </trkpt>
      <trkpt lat="47.86788" lon="2.12049">
        <ele>101.07568359375</ele>
        <time>2013-06-27T12:34:26Z</time>
      </trkpt>
      <trkpt lat="47.86777" lon="2.12055">
        <ele>101.07568359375</ele>
        <time>2013-06-27T12:34:31Z</time>
      </trkpt>
      <trkpt lat="47.86747" lon="2.1204">
        <ele>99.153076171875</ele>
        <time>2013-06-27T12:34:44Z</time>
      </trkpt>
      <trkpt lat="47.86743" lon="2.12047">
        <ele>99.6337890625</ele>
        <time>2013-06-27T12:34:48Z</time>
      </trkpt>
      <trkpt lat="47.86738" lon="2.12054">
        <ele>99.6337890625</ele>
        <time>2013-06-27T12:34:51Z</time>
      </trkpt>
      <trkpt lat="47.86732" lon="2.12065">
        <ele>99.6337890625</ele>
        <time>2013-06-27T12:35:01Z</time>
      </trkpt>
      <trkpt lat="47.86735" lon="2.12059">
        <ele>100.11450195312</ele>
        <time>2013-06-27T12:35:46Z</time>
      </trkpt>
      <trkpt lat="47.86736" lon="2.12059">
        <ele>100.11450195312</ele>
        <time>2013-06-27T12:35:49Z</time>
      </trkpt>
      <trkpt lat="47.86744" lon="2.1204">
        <ele>100.11450195312</ele>
        <time>2013-06-27T12:35:58Z</time>
      </trkpt>
      <trkpt lat="47.86743" lon="2.12037">
        <ele>100.59509277344</ele>
        <time>2013-06-27T12:36:09Z</time>
      </trkpt>
      <trkpt lat="47.86741" lon="2.12036">
        <ele>100.59509277344</ele>
        <time>2013-06-27T12:39:19Z</time>
      </trkpt>
      <trkpt lat="47.86728" lon="2.12059">
        <ele>99.153076171875</ele>
        <time>2013-06-27T12:39:31Z</time>
      </trkpt>
      <trkpt lat="47.86729" lon="2.12067">
        <ele>97.711181640625</ele>
        <time>2013-06-27T12:39:44Z</time>
      </trkpt>
      <trkpt lat="47.8673" lon="2.12064">
        <ele>97.23046875</ele>
        <time>2013-06-27T12:39:49Z</time>
      </trkpt>
      <trkpt lat="47.86735" lon="2.12049">
        <ele>97.711181640625</ele>
        <time>2013-06-27T12:39:58Z</time>
      </trkpt>
      <trkpt lat="47.8674" lon="2.1203">
        <ele>98.19189453125</ele>
        <time>2013-06-27T12:40:11Z</time>
      </trkpt>
      <trkpt lat="47.8674" lon="2.12028">
        <ele>98.672485351562</ele>
        <time>2013-06-27T12:40:12Z</time>
      </trkpt>
      <trkpt lat="47.86712" lon="2.11999">
        <ele>97.711181640625</ele>
        <time>2013-06-27T12:40:27Z</time>
      </trkpt>
      <trkpt lat="47.86656" lon="2.11957">
        <ele>97.711181640625</ele>
        <time>2013-06-27T12:40:44Z</time>
      </trkpt>
      <trkpt lat="47.86582" lon="2.1193">
        <ele>94.8271484375</ele>
        <time>2013-06-27T12:41:00Z</time>
      </trkpt>
      <trkpt lat="47.86572" lon="2.11902">
        <ele>93.385131835938</ele>
        <time>2013-06-27T12:41:04Z</time>
      </trkpt>
      <trkpt lat="47.86546" lon="2.11758">
        <ele>94.346557617188</ele>
        <time>2013-06-27T12:41:22Z</time>
      </trkpt>
      <trkpt lat="47.86527" lon="2.11629">
        <ele>93.865844726562</ele>
        <time>2013-06-27T12:41:37Z</time>
      </trkpt>
      <trkpt lat="47.86517" lon="2.11595">
        <ele>93.865844726562</ele>
        <time>2013-06-27T12:41:41Z</time>
      </trkpt>
      <trkpt lat="47.86454" lon="2.11523">
        <ele>94.346557617188</ele>
        <time>2013-06-27T12:41:54Z</time>
      </trkpt>
      <trkpt lat="47.8632" lon="2.1139">
        <ele>94.346557617188</ele>
        <time>2013-06-27T12:42:19Z</time>
      </trkpt>
      <trkpt lat="47.86227" lon="2.11196">
        <ele>93.865844726562</ele>
        <time>2013-06-27T12:42:44Z</time>
      </trkpt>
      <trkpt lat="47.86164" lon="2.11031">
        <ele>93.865844726562</ele>
        <time>2013-06-27T12:43:04Z</time>
      </trkpt>
      <trkpt lat="47.86089" lon="2.10902">
        <ele>94.8271484375</ele>
        <time>2013-06-27T12:43:23Z</time>
      </trkpt>
      <trkpt lat="47.86041" lon="2.10865">
        <ele>93.385131835938</ele>
        <time>2013-06-27T12:43:35Z</time>
      </trkpt>
      <trkpt lat="47.8603" lon="2.10858">
        <ele>93.385131835938</ele>
        <time>2013-06-27T12:43:37Z</time>
      </trkpt>
      <trkpt lat="47.86017" lon="2.10843">
        <ele>93.385131835938</ele>
        <time>2013-06-27T12:43:40Z</time>
      </trkpt>
      <trkpt lat="47.85999" lon="2.1081">
        <ele>93.865844726562</ele>
        <time>2013-06-27T12:43:45Z</time>
      </trkpt>
      <trkpt lat="47.85932" lon="2.10573">
        <ele>93.385131835938</ele>
        <time>2013-06-27T12:44:14Z</time>
      </trkpt>
      <trkpt lat="47.85926" lon="2.10547">
        <ele>93.865844726562</ele>
        <time>2013-06-27T12:44:17Z</time>
      </trkpt>
      <trkpt lat="47.85873" lon="2.10438">
        <ele>93.865844726562</ele>
        <time>2013-06-27T12:44:31Z</time>
      </trkpt>
      <trkpt lat="47.8585" lon="2.10319">
        <ele>93.385131835938</ele>
        <time>2013-06-27T12:44:44Z</time>
      </trkpt>
      <trkpt lat="47.85804" lon="2.10137">
        <ele>92.423950195312</ele>
        <time>2013-06-27T12:45:04Z</time>
      </trkpt>
      <trkpt lat="47.85746" lon="2.0997">
        <ele>91.462524414062</ele>
        <time>2013-06-27T12:45:23Z</time>
      </trkpt>
      <trkpt lat="47.85738" lon="2.0992">
        <ele>91.462524414062</ele>
        <time>2013-06-27T12:45:32Z</time>
      </trkpt>
      <trkpt lat="47.85732" lon="2.09888">
        <ele>91.943237304688</ele>
        <time>2013-06-27T12:45:39Z</time>
      </trkpt>
      <trkpt lat="47.85697" lon="2.09752">
        <ele>91.943237304688</ele>
        <time>2013-06-27T12:45:56Z</time>
      </trkpt>
      <trkpt lat="47.85679" lon="2.09691">
        <ele>91.943237304688</ele>
        <time>2013-06-27T12:46:03Z</time>
      </trkpt>
      <trkpt lat="47.85623" lon="2.09578">
        <ele>91.462524414062</ele>
        <time>2013-06-27T12:46:19Z</time>
      </trkpt>
      <trkpt lat="47.85566" lon="2.09524">
        <ele>92.904541015625</ele>
        <time>2013-06-27T12:46:32Z</time>
      </trkpt>
      <trkpt lat="47.85405" lon="2.09396">
        <ele>94.346557617188</ele>
        <time>2013-06-27T12:47:00Z</time>
      </trkpt>
      <trkpt lat="47.85382" lon="2.09373">
        <ele>94.8271484375</ele>
        <time>2013-06-27T12:47:04Z</time>
      </trkpt>
      <trkpt lat="47.85364" lon="2.09331">
        <ele>94.8271484375</ele>
        <time>2013-06-27T12:47:09Z</time>
      </trkpt>
      <trkpt lat="47.85353" lon="2.09197">
        <ele>95.307739257812</ele>
        <time>2013-06-27T12:47:22Z</time>
      </trkpt>
      <trkpt lat="47.85393" lon="2.08991">
        <ele>94.8271484375</ele>
        <time>2013-06-27T12:47:42Z</time>
      </trkpt>
      <trkpt lat="47.85432" lon="2.08762">
        <ele>93.865844726562</ele>
        <time>2013-06-27T12:48:04Z</time>
      </trkpt>
      <trkpt lat="47.85452" lon="2.08531">
        <ele>92.904541015625</ele>
        <time>2013-06-27T12:48:27Z</time>
      </trkpt>
      <trkpt lat="47.85415" lon="2.08323">
        <ele>93.385131835938</ele>
        <time>2013-06-27T12:48:47Z</time>
      </trkpt>
      <trkpt lat="47.85352" lon="2.0805">
        <ele>93.385131835938</ele>
        <time>2013-06-27T12:49:15Z</time>
      </trkpt>
      <trkpt lat="47.85291" lon="2.07832">
        <ele>92.904541015625</ele>
        <time>2013-06-27T12:49:37Z</time>
      </trkpt>
      <trkpt lat="47.8525" lon="2.0762">
        <ele>91.943237304688</ele>
        <time>2013-06-27T12:49:57Z</time>
      </trkpt>
      <trkpt lat="47.85216" lon="2.07454">
        <ele>90.501342773438</ele>
        <time>2013-06-27T12:50:13Z</time>
      </trkpt>
      <trkpt lat="47.85173" lon="2.07305">
        <ele>90.020629882812</ele>
        <time>2013-06-27T12:50:28Z</time>
      </trkpt>
      <trkpt lat="47.85084" lon="2.07071">
        <ele>89.059326171875</ele>
        <time>2013-06-27T12:50:52Z</time>
      </trkpt>
      <trkpt lat="47.85063" lon="2.06916">
        <ele>89.059326171875</ele>
        <time>2013-06-27T12:51:07Z</time>
      </trkpt>
      <trkpt lat="47.8506" lon="2.06574">
        <ele>89.059326171875</ele>
        <time>2013-06-27T12:51:40Z</time>
      </trkpt>
      <trkpt lat="47.85057" lon="2.063">
        <ele>88.578735351562</ele>
        <time>2013-06-27T12:52:07Z</time>
      </trkpt>
      <trkpt lat="47.85056" lon="2.05961">
        <ele>89.539916992188</ele>
        <time>2013-06-27T12:52:41Z</time>
      </trkpt>
      <trkpt lat="47.85053" lon="2.05646">
        <ele>88.578735351562</ele>
        <time>2013-06-27T12:53:13Z</time>
      </trkpt>
      <trkpt lat="47.8505" lon="2.05365">
        <ele>89.059326171875</ele>
        <time>2013-06-27T12:53:42Z</time>
      </trkpt>
      <trkpt lat="47.85048" lon="2.05032">
        <ele>88.578735351562</ele>
        <time>2013-06-27T12:54:16Z</time>
      </trkpt>
      <trkpt lat="47.85046" lon="2.04754">
        <ele>88.578735351562</ele>
        <time>2013-06-27T12:54:43Z</time>
      </trkpt>
      <trkpt lat="47.85044" lon="2.04515">
        <ele>88.578735351562</ele>
        <time>2013-06-27T12:55:07Z</time>
      </trkpt>
      <trkpt lat="47.85041" lon="2.04349">
        <ele>87.6171875</ele>
        <time>2013-06-27T12:55:24Z</time>
      </trkpt>
      <trkpt lat="47.85037" lon="2.04054">
        <ele>87.6171875</ele>
        <time>2013-06-27T12:55:53Z</time>
      </trkpt>
      <trkpt lat="47.85014" lon="2.03948">
        <ele>87.6171875</ele>
        <time>2013-06-27T12:56:05Z</time>
      </trkpt>
      <trkpt lat="47.84927" lon="2.03801">
        <ele>87.6171875</ele>
        <time>2013-06-27T12:56:25Z</time>
      </trkpt>
      <trkpt lat="47.84798" lon="2.03593">
        <ele>88.098022460938</ele>
        <time>2013-06-27T12:56:54Z</time>
      </trkpt>
      <trkpt lat="47.84736" lon="2.03491">
        <ele>86.656005859375</ele>
        <time>2013-06-27T12:57:10Z</time>
      </trkpt>
      <trkpt lat="47.84724" lon="2.03442">
        <ele>85.694580078125</ele>
        <time>2013-06-27T12:57:22Z</time>
      </trkpt>
      <trkpt lat="47.84723" lon="2.03351">
        <ele>86.656005859375</ele>
        <time>2013-06-27T12:57:36Z</time>
      </trkpt>
      <trkpt lat="47.84708" lon="2.03351">
        <ele>86.656005859375</ele>
        <time>2013-06-27T12:57:41Z</time>
      </trkpt>
      <trkpt lat="47.84699" lon="2.03364">
        <ele>87.6171875</ele>
        <time>2013-06-27T12:57:44Z</time>
      </trkpt>
      <trkpt lat="47.84685" lon="2.03376">
        <ele>88.098022460938</ele>
        <time>2013-06-27T12:57:48Z</time>
      </trkpt>
      <trkpt lat="47.84668" lon="2.0338">
        <ele>87.6171875</ele>
        <time>2013-06-27T12:57:52Z</time>
      </trkpt>
      <trkpt lat="47.84614" lon="2.03342">
        <ele>88.578735351562</ele>
        <time>2013-06-27T12:58:04Z</time>
      </trkpt>
      <trkpt lat="47.84574" lon="2.03315">
        <ele>90.020629882812</ele>
        <time>2013-06-27T12:58:13Z</time>
      </trkpt>
      <trkpt lat="47.84556" lon="2.03279">
        <ele>90.020629882812</ele>
        <time>2013-06-27T12:58:20Z</time>
      </trkpt>
      <trkpt lat="47.84557" lon="2.03195">
        <ele>89.539916992188</ele>
        <time>2013-06-27T12:58:31Z</time>
      </trkpt>
      <trkpt lat="47.84561" lon="2.03153">
        <ele>89.059326171875</ele>
        <time>2013-06-27T12:58:36Z</time>
      </trkpt>
      <trkpt lat="47.84576" lon="2.0297">
        <ele>88.578735351562</ele>
        <time>2013-06-27T12:58:57Z</time>
      </trkpt>
      <trkpt lat="47.8461" lon="2.02833">
        <ele>88.098022460938</ele>
        <time>2013-06-27T12:59:13Z</time>
      </trkpt>
      <trkpt lat="47.84586" lon="2.02763">
        <ele>88.098022460938</ele>
        <time>2013-06-27T12:59:22Z</time>
      </trkpt>
      <trkpt lat="47.8455" lon="2.02669">
        <ele>86.656005859375</ele>
        <time>2013-06-27T12:59:35Z</time>
      </trkpt>
      <trkpt lat="47.84547" lon="2.02662">
        <ele>86.656005859375</ele>
        <time>2013-06-27T12:59:47Z</time>
      </trkpt>
      <trkpt lat="47.84539" lon="2.02632">
        <ele>86.656005859375</ele>
        <time>2013-06-27T13:00:09Z</time>
      </trkpt>
      <trkpt lat="47.84507" lon="2.02519">
        <ele>86.17529296875</ele>
        <time>2013-06-27T13:00:23Z</time>
      </trkpt>
      <trkpt lat="47.84472" lon="2.02348">
        <ele>84.7333984375</ele>
        <time>2013-06-27T13:00:42Z</time>
      </trkpt>
      <trkpt lat="47.84468" lon="2.02329">
        <ele>84.7333984375</ele>
        <time>2013-06-27T13:00:44Z</time>
      </trkpt>
      <trkpt lat="47.84397" lon="2.02146">
        <ele>85.213989257812</ele>
        <time>2013-06-27T13:01:06Z</time>
      </trkpt>
      <trkpt lat="47.84324" lon="2.01944">
        <ele>85.213989257812</ele>
        <time>2013-06-27T13:01:29Z</time>
      </trkpt>
      <trkpt lat="47.84292" lon="2.01771">
        <ele>85.694580078125</ele>
        <time>2013-06-27T13:01:47Z</time>
      </trkpt>
      <trkpt lat="47.84252" lon="2.01531">
        <ele>85.213989257812</ele>
        <time>2013-06-27T13:02:12Z</time>
      </trkpt>
      <trkpt lat="47.84197" lon="2.01397">
        <ele>84.252685546875</ele>
        <time>2013-06-27T13:02:27Z</time>
      </trkpt>
      <trkpt lat="47.84129" lon="2.01261">
        <ele>84.7333984375</ele>
        <time>2013-06-27T13:02:45Z</time>
      </trkpt>
      <trkpt lat="47.84101" lon="2.0111">
        <ele>86.656005859375</ele>
        <time>2013-06-27T13:03:02Z</time>
      </trkpt>
      <trkpt lat="47.84076" lon="2.00911">
        <ele>85.213989257812</ele>
        <time>2013-06-27T13:03:23Z</time>
      </trkpt>
      <trkpt lat="47.84022" lon="2.0077">
        <ele>84.7333984375</ele>
        <time>2013-06-27T13:03:40Z</time>
      </trkpt>
      <trkpt lat="47.8391" lon="2.00573">
        <ele>85.213989257812</ele>
        <time>2013-06-27T13:04:06Z</time>
      </trkpt>
      <trkpt lat="47.83866" lon="2.00408">
        <ele>85.694580078125</ele>
        <time>2013-06-27T13:04:25Z</time>
      </trkpt>
      <trkpt lat="47.838" lon="2.0024">
        <ele>85.213989257812</ele>
        <time>2013-06-27T13:04:44Z</time>
      </trkpt>
      <trkpt lat="47.83739" lon="2.00072">
        <ele>83.77197265625</ele>
        <time>2013-06-27T13:05:03Z</time>
      </trkpt>
      <trkpt lat="47.83695" lon="1.9987">
        <ele>84.252685546875</ele>
        <time>2013-06-27T13:05:24Z</time>
      </trkpt>
      <trkpt lat="47.83644" lon="1.99634">
        <ele>84.252685546875</ele>
        <time>2013-06-27T13:05:50Z</time>
      </trkpt>
      <trkpt lat="47.83632" lon="1.99442">
        <ele>85.213989257812</ele>
        <time>2013-06-27T13:06:10Z</time>
      </trkpt>
      <trkpt lat="47.83662" lon="1.99174">
        <ele>84.7333984375</ele>
        <time>2013-06-27T13:06:38Z</time>
      </trkpt>
      <trkpt lat="47.83656" lon="1.99012">
        <ele>85.213989257812</ele>
        <time>2013-06-27T13:06:55Z</time>
      </trkpt>
      <trkpt lat="47.83609" lon="1.98805">
        <ele>85.213989257812</ele>
        <time>2013-06-27T13:07:17Z</time>
      </trkpt>
      <trkpt lat="47.83572" lon="1.98627">
        <ele>86.17529296875</ele>
        <time>2013-06-27T13:07:35Z</time>
      </trkpt>
      <trkpt lat="47.83509" lon="1.98396">
        <ele>83.77197265625</ele>
        <time>2013-06-27T13:08:00Z</time>
      </trkpt>
      <trkpt lat="47.83442" lon="1.98169">
        <ele>83.291381835938</ele>
        <time>2013-06-27T13:08:26Z</time>
      </trkpt>
      <trkpt lat="47.83372" lon="1.98078">
        <ele>82.330078125</ele>
        <time>2013-06-27T13:08:40Z</time>
      </trkpt>
      <trkpt lat="47.83269" lon="1.97983">
        <ele>82.330078125</ele>
        <time>2013-06-27T13:08:59Z</time>
      </trkpt>
      <trkpt lat="47.83215" lon="1.97873">
        <ele>82.810791015625</ele>
        <time>2013-06-27T13:09:14Z</time>
      </trkpt>
      <trkpt lat="47.83206" lon="1.97746">
        <ele>83.291381835938</ele>
        <time>2013-06-27T13:09:29Z</time>
      </trkpt>
      <trkpt lat="47.83238" lon="1.97572">
        <ele>83.77197265625</ele>
        <time>2013-06-27T13:09:50Z</time>
      </trkpt>
      <trkpt lat="47.83263" lon="1.97409">
        <ele>82.810791015625</ele>
        <time>2013-06-27T13:10:09Z</time>
      </trkpt>
      <trkpt lat="47.83264" lon="1.97392">
        <ele>82.810791015625</ele>
        <time>2013-06-27T13:10:11Z</time>
      </trkpt>
      <trkpt lat="47.83279" lon="1.97358">
        <ele>83.77197265625</ele>
        <time>2013-06-27T13:10:16Z</time>
      </trkpt>
      <trkpt lat="47.83294" lon="1.97259">
        <ele>82.810791015625</ele>
        <time>2013-06-27T13:10:28Z</time>
      </trkpt>
      <trkpt lat="47.83327" lon="1.97007">
        <ele>81.849365234375</ele>
        <time>2013-06-27T13:10:56Z</time>
      </trkpt>
      <trkpt lat="47.83345" lon="1.96861">
        <ele>82.810791015625</ele>
        <time>2013-06-27T13:11:13Z</time>
      </trkpt>
      <trkpt lat="47.83336" lon="1.96827">
        <ele>82.330078125</ele>
        <time>2013-06-27T13:11:18Z</time>
      </trkpt>
      <trkpt lat="47.83331" lon="1.96806">
        <ele>81.849365234375</ele>
        <time>2013-06-27T13:11:21Z</time>
      </trkpt>
      <trkpt lat="47.83308" lon="1.96771">
        <ele>82.330078125</ele>
        <time>2013-06-27T13:11:27Z</time>
      </trkpt>
      <trkpt lat="47.83306" lon="1.96749">
        <ele>82.810791015625</ele>
        <time>2013-06-27T13:11:30Z</time>
      </trkpt>
      <trkpt lat="47.83333" lon="1.96606">
        <ele>85.694580078125</ele>
        <time>2013-06-27T13:11:52Z</time>
      </trkpt>
      <trkpt lat="47.83333" lon="1.96468">
        <ele>87.136596679688</ele>
        <time>2013-06-27T13:12:11Z</time>
      </trkpt>
      <trkpt lat="47.83351" lon="1.96327">
        <ele>89.539916992188</ele>
        <time>2013-06-27T13:12:30Z</time>
      </trkpt>
      <trkpt lat="47.83428" lon="1.96191">
        <ele>90.501342773438</ele>
        <time>2013-06-27T13:12:53Z</time>
      </trkpt>
      <trkpt lat="47.83532" lon="1.96">
        <ele>90.501342773438</ele>
        <time>2013-06-27T13:13:21Z</time>
      </trkpt>
      <trkpt lat="47.83595" lon="1.95855">
        <ele>91.462524414062</ele>
        <time>2013-06-27T13:13:42Z</time>
      </trkpt>
      <trkpt lat="47.83705" lon="1.95722">
        <ele>92.904541015625</ele>
        <time>2013-06-27T13:14:06Z</time>
      </trkpt>
      <trkpt lat="47.8382" lon="1.95567">
        <ele>89.059326171875</ele>
        <time>2013-06-27T13:14:29Z</time>
      </trkpt>
      <trkpt lat="47.83909" lon="1.95447">
        <ele>88.578735351562</ele>
        <time>2013-06-27T13:14:46Z</time>
      </trkpt>
      <trkpt lat="47.84005" lon="1.95332">
        <ele>90.98193359375</ele>
        <time>2013-06-27T13:15:07Z</time>
      </trkpt>
      <trkpt lat="47.84063" lon="1.95202">
        <ele>90.501342773438</ele>
        <time>2013-06-27T13:15:25Z</time>
      </trkpt>
      <trkpt lat="47.84126" lon="1.95095">
        <ele>93.385131835938</ele>
        <time>2013-06-27T13:15:42Z</time>
      </trkpt>
      <trkpt lat="47.84219" lon="1.9491">
        <ele>94.8271484375</ele>
        <time>2013-06-27T13:16:07Z</time>
      </trkpt>
      <trkpt lat="47.84304" lon="1.94758">
        <ele>92.423950195312</ele>
        <time>2013-06-27T13:16:27Z</time>
      </trkpt>
      <trkpt lat="47.84359" lon="1.94645">
        <ele>93.865844726562</ele>
        <time>2013-06-27T13:16:42Z</time>
      </trkpt>
      <trkpt lat="47.84367" lon="1.94632">
        <ele>93.385131835938</ele>
        <time>2013-06-27T13:16:44Z</time>
      </trkpt>
      <trkpt lat="47.84391" lon="1.94602">
        <ele>92.423950195312</ele>
        <time>2013-06-27T13:16:49Z</time>
      </trkpt>
      <trkpt lat="47.84409" lon="1.94591">
        <ele>92.904541015625</ele>
        <time>2013-06-27T13:16:52Z</time>
      </trkpt>
      <trkpt lat="47.84429" lon="1.94546">
        <ele>92.423950195312</ele>
        <time>2013-06-27T13:16:59Z</time>
      </trkpt>
      <trkpt lat="47.84426" lon="1.94528">
        <ele>91.462524414062</ele>
        <time>2013-06-27T13:17:01Z</time>
      </trkpt>
      <trkpt lat="47.84434" lon="1.94494">
        <ele>90.501342773438</ele>
        <time>2013-06-27T13:17:05Z</time>
      </trkpt>
      <trkpt lat="47.84468" lon="1.94417">
        <ele>90.501342773438</ele>
        <time>2013-06-27T13:17:18Z</time>
      </trkpt>
      <trkpt lat="47.84475" lon="1.9441">
        <ele>90.98193359375</ele>
        <time>2013-06-27T13:17:21Z</time>
      </trkpt>
      <trkpt lat="47.84482" lon="1.94411">
        <ele>91.943237304688</ele>
        <time>2013-06-27T13:17:32Z</time>
      </trkpt>
      <trkpt lat="47.8448" lon="1.9441">
        <ele>91.462524414062</ele>
        <time>2013-06-27T13:18:45Z</time>
      </trkpt>
      <trkpt lat="47.84478" lon="1.94397">
        <ele>91.462524414062</ele>
        <time>2013-06-27T13:18:53Z</time>
      </trkpt>
      <trkpt lat="47.84505" lon="1.94346">
        <ele>89.539916992188</ele>
        <time>2013-06-27T13:19:11Z</time>
      </trkpt>
      <trkpt lat="47.84567" lon="1.94229">
        <ele>87.6171875</ele>
        <time>2013-06-27T13:19:28Z</time>
      </trkpt>
      <trkpt lat="47.84618" lon="1.94123">
        <ele>87.6171875</ele>
        <time>2013-06-27T13:19:43Z</time>
      </trkpt>
      <trkpt lat="47.84672" lon="1.9397">
        <ele>87.6171875</ele>
        <time>2013-06-27T13:20:04Z</time>
      </trkpt>
      <trkpt lat="47.84732" lon="1.9379">
        <ele>85.694580078125</ele>
        <time>2013-06-27T13:20:28Z</time>
      </trkpt>
      <trkpt lat="47.84799" lon="1.93586">
        <ele>87.6171875</ele>
        <time>2013-06-27T13:20:55Z</time>
      </trkpt>
      <trkpt lat="47.84849" lon="1.93441">
        <ele>86.656005859375</ele>
        <time>2013-06-27T13:21:15Z</time>
      </trkpt>
      <trkpt lat="47.84924" lon="1.93214">
        <ele>88.578735351562</ele>
        <time>2013-06-27T13:21:45Z</time>
      </trkpt>
      <trkpt lat="47.85001" lon="1.92986">
        <ele>87.6171875</ele>
        <time>2013-06-27T13:22:14Z</time>
      </trkpt>
      <trkpt lat="47.85078" lon="1.92758">
        <ele>87.136596679688</ele>
        <time>2013-06-27T13:22:43Z</time>
      </trkpt>
      <trkpt lat="47.85155" lon="1.92576">
        <ele>88.098022460938</ele>
        <time>2013-06-27T13:23:10Z</time>
      </trkpt>
      <trkpt lat="47.85266" lon="1.92434">
        <ele>90.501342773438</ele>
        <time>2013-06-27T13:23:39Z</time>
      </trkpt>
      <trkpt lat="47.85343" lon="1.92317">
        <ele>90.501342773438</ele>
        <time>2013-06-27T13:24:00Z</time>
      </trkpt>
      <trkpt lat="47.85437" lon="1.92197">
        <ele>89.059326171875</ele>
        <time>2013-06-27T13:24:22Z</time>
      </trkpt>
      <trkpt lat="47.85465" lon="1.92155">
        <ele>89.059326171875</ele>
        <time>2013-06-27T13:24:29Z</time>
      </trkpt>
      <trkpt lat="47.85485" lon="1.9215">
        <ele>89.539916992188</ele>
        <time>2013-06-27T13:24:34Z</time>
      </trkpt>
      <trkpt lat="47.8556" lon="1.92223">
        <ele>89.059326171875</ele>
        <time>2013-06-27T13:24:54Z</time>
      </trkpt>
      <trkpt lat="47.85586" lon="1.92256">
        <ele>87.136596679688</ele>
        <time>2013-06-27T13:25:01Z</time>
      </trkpt>
      <trkpt lat="47.85592" lon="1.92284">
        <ele>85.213989257812</ele>
        <time>2013-06-27T13:25:05Z</time>
      </trkpt>
      <trkpt lat="47.85585" lon="1.92328">
        <ele>83.291381835938</ele>
        <time>2013-06-27T13:25:10Z</time>
      </trkpt>
      <trkpt lat="47.8559" lon="1.92368">
        <ele>81.849365234375</ele>
        <time>2013-06-27T13:25:15Z</time>
      </trkpt>
      <trkpt lat="47.85607" lon="1.92415">
        <ele>81.849365234375</ele>
        <time>2013-06-27T13:25:23Z</time>
      </trkpt>
      <trkpt lat="47.85603" lon="1.9244">
        <ele>82.810791015625</ele>
        <time>2013-06-27T13:25:27Z</time>
      </trkpt>
      <trkpt lat="47.85598" lon="1.9245">
        <ele>82.810791015625</ele>
        <time>2013-06-27T13:25:29Z</time>
      </trkpt>
      <trkpt lat="47.85595" lon="1.92473">
        <ele>82.330078125</ele>
        <time>2013-06-27T13:25:34Z</time>
      </trkpt>
      <trkpt lat="47.85596" lon="1.92478">
        <ele>82.330078125</ele>
        <time>2013-06-27T13:25:36Z</time>
      </trkpt>
      <trkpt lat="47.85593" lon="1.92484">
        <ele>81.849365234375</ele>
        <time>2013-06-27T13:25:40Z</time>
      </trkpt>
      <trkpt lat="47.85578" lon="1.925">
        <ele>83.291381835938</ele>
        <time>2013-06-27T13:25:46Z</time>
      </trkpt>
      <trkpt lat="47.85585" lon="1.92523">
        <ele>84.252685546875</ele>
        <time>2013-06-27T13:25:51Z</time>
      </trkpt>
      <trkpt lat="47.85602" lon="1.92542">
        <ele>84.252685546875</ele>
        <time>2013-06-27T13:25:57Z</time>
      </trkpt>
      <trkpt lat="47.85609" lon="1.92541">
        <ele>84.252685546875</ele>
        <time>2013-06-27T13:26:01Z</time>
      </trkpt>
      <trkpt lat="47.85613" lon="1.92535">
        <ele>82.810791015625</ele>
        <time>2013-06-27T13:26:06Z</time>
      </trkpt>
      <trkpt lat="47.85621" lon="1.92508">
        <ele>80.407470703125</ele>
        <time>2013-06-27T13:26:15Z</time>
      </trkpt>
      <trkpt lat="47.85612" lon="1.92496">
        <ele>80.88818359375</ele>
        <time>2013-06-27T13:26:25Z</time>
      </trkpt>
      <trkpt lat="47.85612" lon="1.92497">
        <ele>81.368774414062</ele>
        <time>2013-06-27T13:26:43Z</time>
      </trkpt>
      <trkpt lat="47.85612" lon="1.92497">
        <ele>81.849365234375</ele>
        <time>2013-06-27T13:27:09Z</time>
      </trkpt>
    </trkseg>
  </trk>
</gpx>